GFSMW_850_dewp_000.txt.gz
Dewpoint
1 0 -1 -1 -2 -2 -2 -4 -3 -3 -2 -0 3 6 8 8 9 9 10 10 10 10 11 10 10 9 9 9 9 9 10 10 10 11 9 9 8 8 8 7 7 7 7
-1 -1 -1 -2 -3 -3 -3 -4 -4 -2 -1 2 5 6 8 9 9 9 8 7 7 7 7 7 7 7 7 8 8 9 9 10 10 10 10 10 10 10 9 9 9 8 8
-0 -0 -1 -1 -1 -2 -2 -2 -3 -3 -2 0 4 7 9 8 6 3 2 2 3 3 3 2 1 1 1 1 3 4 4 7 9 10 10 10 10 10 9 9 8 8 9
1 0 -0 -1 -1 -1 -1 -2 -2 -2 -1 -0 -0 0 1 0 1 1 1 1 0 0 0 -0 -1 -1 -2 -3 -3 -3 -3 -1 1 3 6 8 9 9 9 9 9 9 9
1 1 0 -0 -0 -0 -1 -1 -1 -1 -1 -1 -1 -1 -0 0 1 -0 -1 -3 -4 -4 -4 -4 -4 -4 -4 -4 -5 -5 -6 -7 -7 -5 -3 -0 1 4 7 7 7 6 6
1 1 1 0 0 0 0 0 -0 -0 -0 -1 -1 -2 -2 -3 -4 -5 -5 -5 -5 -5 -5 -5 -5 -5 -5 -5 -6 -6 -7 -6 -6 -5 -4 -1 2 2 3 5 6 6 6
1 1 1 1 1 1 1 1 1 1 -0 -3 -4 -5 -4 -5 -5 -5 -5 -5 -5 -5 -5 -6 -7 -8 -9 -9 -10 -10 -9 -8 -6 -4 -3 -1 1 2 2 1 3 5 4
1 1 1 1 1 1 1 1 1 1 0 -1 -5 -6 -5 -5 -5 -5 -5 -5 -6 -7 -9 -11 -14 -17 -21 -24 -24 -21 -15 -10 -7 -3 0 1 0 -1 -2 1 3 4 4
1 1 1 1 1 1 1 2 1 1 -1 -4 -7 -6 -5 -4 -4 -4 -4 -6 -10 -15 -22 -32 -40 -41 -40 -39 -38 -35 -28 -16 -6 1 1 -4 -5 -3 0 2 1 0 3
1 1 1 1 1 2 2 2 1 -0 -3 -6 -5 -4 -3 -3 -3 -5 -9 -16 -28 -40 -42 -39 -36 -35 -34 -33 -34 -35 -33 -23 -6 -7 -11 -13 -10 -3 -1 -8 -9 -10 -1
1 1 1 1 1 2 2 1 0 -2 -5 -5 -3 -2 -2 -4 -9 -15 -27 -41 -40 -37 -35 -34 -32 -30 -30 -30 -32 -32 -31 -26 -19 -17 -15 -9 -2 -0 -5 -9 -8 -13 -8
1 1 1 1 2 2 1 0 -2 -4 -5 -2 -2 -2 -5 -9 -19 -34 -41 -38 -35 -34 -33 -31 -30 -29 -29 -29 -30 -30 -28 -24 -19 -13 -8 -5 -7 -8 -9 -11 -11 -11 -2
1 2 2 2 2 1 0 -1 -4 -5 -2 -2 -2 -4 -9 -21 -36 -38 -36 -34 -33 -32 -30 -30 -29 -28 -28 -29 -30 -30 -28 -21 -15 -7 -7 -9 -11 -12 -11 -12 -11 -4 -2
1 2 2 2 2 1 -1 -3 -4 -2 -1 -1 -4 -11 -21 -31 -35 -35 -33 -32 -31 -30 -29 -29 -28 -27 -28 -28 -29 -28 -26 -21 -13 -8 -10 -13 -13 -11 -9 -8 -7 -4 -4
1 2 2 2 1 0 -3 -4 -2 -0 -0 -4 -11 -20 -27 -33 -33 -32 -31 -31 -30 -29 -28 -27 -26 -27 -28 -28 -27 -25 -22 -17 -13 -12 -15 -15 -14 -9 -8 -7 -7 -6 -5
2 2 2 2 1 -2 -4 -1 -1 -1 -2 -8 -13 -24 -29 -30 -31 -30 -30 -29 -28 -27 -26 -26 -26 -27 -28 -28 -26 -18 -11 -11 -11 -11 -11 -11 -10 -8 -7 -7 -7 -7 -7
1 1 1 1 -0 -3 -1 -1 -0 -2 -4 -5 -14 -24 -29 -30 -30 -29 -28 -28 -26 -25 -25 -25 -26 -27 -27 -26 -24 -16 -10 -10 -10 -10 -10 -10 -8 -6 -7 -7 -7 -7 -6
1 1 1 1 -2 -2 -1 -0 -2 -2 -5 -12 -20 -28 -30 -29 -28 -28 -27 -26 -24 -24 -24 -25 -26 -26 -27 -24 -20 -9 -9 -9 -10 -10 -10 -8 -7 -9 -7 -7 -6 -7 -10
0 0 1 -1 -2 -1 -1 -1 -2 -6 -14 -21 -28 -29 -28 -27 -27 -27 -25 -24 -23 -23 -24 -25 -26 -25 -26 -21 -14 -8 -9 -9 -10 -10 -8 -7 -8 -8 -7 -7 -7 -8 -8
0 1 -0 -2 -2 -1 0 -1 -4 -9 -20 -27 -28 -27 -26 -26 -26 -24 -23 -22 -22 -23 -24 -25 -25 -24 -20 -17 -9 -9 -9 -8 -9 -8 -7 -9 -9 -8 -7 -8 -8 -8 -10
0 -0 -1 -1 -1 -0 -1 -2 -11 -20 -23 -27 -27 -27 -26 -25 -23 -22 -21 -21 -21 -22 -23 -24 -24 -21 -14 -11 -9 -9 -9 -9 -8 -7 -9 -11 -8 -7 -9 -10 -9 -9 -9
0 -0 -1 -1 -0 -1 -3 -14 -21 -24 -26 -27 -26 -26 -24 -22 -21 -21 -20 -21 -21 -22 -23 -22 -19 -13 -10 -10 -10 -9 -9 -8 -8 -9 -11 -9 -8 -9 -10 -10 -10 -9 -9
1 -0 -1 -1 -2 -6 -12 -22 -25 -25 -26 -26 -25 -23 -21 -20 -20 -20 -20 -20 -21 -21 -20 -14 -10 -9 -9 -11 -11 -9 -8 -8 -9 -10 -8 -9 -9 -11 -13 -11 -10 -10 -11
0 -1 -1 -2 -7 -13 -22 -24 -24 -25 -25 -24 -22 -21 -19 -19 -20 -20 -20 -20 -20 -16 -12 -10 -9 -10 -10 -10 -11 -9 -9 -9 -9 -8 -8 -10 -12 -15 -11 -12 -13 -12 -11
-0 -0 -2 -6 -10 -20 -22 -23 -24 -24 -23 -22 -21 -19 -19 -19 -19 -20 -20 -18 -15 -11 -10 -10 -10 -10 -10 -10 -9 -9 -9 -9 -8 -10 -11 -12 -13 -11 -11 -11 -11 -13 -11
-2 -2 -5 -6 -19 -21 -22 -23 -22 -22 -22 -21 -19 -19 -19 -19 -20 -20 -19 -16 -13 -11 -11 -10 -10 -10 -10 -10 -9 -10 -9 -9 -12 -13 -12 -11 -11 -11 -12 -12 -12 -13 -11

GFSMW_850_dewp_003.txt.gz
Dewpoint
1 0 -1 -1 -2 -2 -3 -4 -4 -2 -0 0 3 5 7 8 9 9 9 8 7 5 5 5 5 5 5 4 3 2 3 3 4 8 8 8 8 9 8 9 9 9 8
0 -0 -1 -2 -3 -3 -4 -5 -5 -4 -2 0 5 7 8 8 7 6 4 2 1 1 -0 -1 -2 -2 -2 -3 -3 -3 -4 -4 -3 5 5 8 7 8 9 8 8 8 10
0 0 -1 -1 -2 -3 -4 -4 -3 -3 -2 -0 3 6 6 3 1 -0 -0 -0 -0 -1 -2 -4 -5 -5 -5 -5 -5 -5 -5 -5 -6 -6 -0 6 5 4 3 6 5 8 9
1 -0 -1 -1 -2 -2 -2 -3 -3 -2 -2 -1 -1 -0 -1 -1 1 1 -1 -3 -5 -5 -5 -5 -5 -5 -6 -7 -8 -8 -8 -7 -6 -6 -3 -5 0 4 4 2 3 3 7
1 0 -0 -0 -1 -1 -1 -2 -2 -2 -1 -2 -2 -2 -2 -2 -3 -5 -5 -5 -4 -4 -4 -4 -5 -8 -11 -14 -17 -18 -17 -14 -9 -5 -1 -0 2 3 4 4 3 3 3
1 1 1 1 0 0 0 -0 -1 -1 -2 -3 -4 -5 -5 -5 -5 -5 -4 -3 -3 -3 -4 -7 -11 -19 -31 -40 -42 -42 -41 -37 -27 -14 -5 2 3 3 3 2 2 2 2
1 1 1 1 1 1 1 1 0 -0 -1 -2 -5 -6 -5 -5 -4 -3 -2 -2 -2 -4 -9 -19 -35 -41 -41 -37 -33 -32 -33 -33 -32 -22 -7 -0 1 0 -0 -1 0 2 2
1 1 1 1 1 2 2 1 1 0 -1 -4 -5 -5 -4 -3 -2 -1 -2 -4 -9 -20 -37 -41 -40 -35 -31 -28 -27 -27 -28 -30 -32 -28 -20 -14 -17 -13 -6 -4 -1 1 1
2 1 1 2 2 2 2 1 1 0 -2 -4 -5 -3 -2 -1 -1 -3 -6 -12 -25 -37 -41 -36 -33 -29 -27 -26 -25 -25 -26 -27 -29 -30 -27 -24 -22 -10 -4 -2 0 -2 0
2 2 1 2 2 2 1 1 1 -1 -3 -5 -3 -1 -1 -2 -4 -7 -14 -27 -41 -37 -34 -31 -29 -27 -26 -26 -25 -25 -25 -26 -27 -23 -21 -15 -10 -7 -6 -5 -4 -3 -4
1 2 2 2 2 2 1 1 -0 -3 -5 -4 -2 -2 -2 -4 -9 -18 -30 -36 -35 -33 -31 -29 -28 -27 -26 -25 -24 -24 -26 -27 -25 -19 -12 -7 -7 -11 -14 -9 -9 -8 -9
1 2 2 2 2 1 1 -0 -2 -5 -4 -3 -2 -2 -4 -7 -16 -26 -33 -34 -32 -30 -29 -28 -27 -25 -24 -23 -24 -25 -27 -27 -25 -16 -8 -9 -12 -13 -11 -10 -8 -8 -7
1 2 2 2 1 1 0 -1 -3 -5 -3 -1 -2 -4 -7 -14 -21 -25 -30 -30 -30 -29 -28 -27 -25 -23 -21 -22 -24 -26 -28 -29 -25 -20 -13 -13 -11 -11 -9 -8 -7 -6 -7
1 2 2 2 1 1 -0 -2 -5 -3 -1 -2 -3 -5 -8 -15 -19 -26 -29 -29 -28 -28 -26 -24 -22 -20 -21 -23 -25 -28 -29 -26 -22 -16 -12 -11 -9 -9 -8 -7 -7 -7 -8
1 2 2 2 1 0 -1 -4 -4 -2 -2 -1 -4 -7 -11 -18 -25 -28 -28 -28 -28 -26 -23 -21 -19 -20 -21 -24 -28 -29 -28 -22 -19 -12 -11 -10 -9 -8 -8 -7 -7 -7 -7
1 2 2 2 1 0 -2 -3 -2 -1 -0 -4 -8 -11 -16 -25 -28 -28 -28 -28 -26 -22 -19 -19 -19 -19 -22 -26 -28 -29 -17 -11 -9 -10 -11 -10 -9 -8 -7 -7 -7 -7 -6
1 1 2 2 1 -0 -3 -3 -1 -0 -2 -6 -10 -15 -24 -27 -28 -28 -28 -25 -21 -19 -18 -19 -19 -21 -23 -25 -27 -21 -10 -9 -9 -9 -9 -10 -8 -7 -9 -8 -8 -7 -8
0 1 2 2 1 -2 -3 -2 -1 -0 -4 -8 -14 -23 -26 -27 -28 -28 -24 -20 -19 -18 -18 -19 -20 -22 -23 -25 -25 -16 -9 -9 -9 -9 -9 -8 -8 -8 -8 -7 -7 -9 -13
-0 0 1 1 -0 -2 -3 -1 -0 -3 -7 -13 -20 -25 -27 -28 -27 -24 -20 -18 -18 -18 -18 -19 -21 -22 -24 -23 -19 -9 -9 -10 -10 -9 -8 -7 -9 -9 -8 -7 -9 -10 -10
-0 0 1 1 -2 -3 -2 -0 -3 -6 -12 -19 -25 -26 -27 -26 -23 -20 -18 -18 -18 -18 -19 -20 -22 -23 -22 -20 -10 -9 -10 -9 -9 -8 -8 -9 -10 -8 -8 -8 -10 -10 -11
0 0 0 -1 -3 -2 -1 -2 -6 -10 -19 -24 -26 -26 -25 -23 -20 -18 -17 -17 -18 -19 -20 -21 -22 -20 -16 -13 -10 -9 -9 -9 -8 -8 -8 -10 -9 -8 -9 -10 -11 -10 -9
0 -0 -1 -2 -2 -1 -2 -7 -12 -18 -22 -25 -25 -24 -23 -21 -19 -18 -17 -17 -19 -20 -21 -21 -19 -15 -11 -10 -10 -9 -9 -9 -8 -9 -10 -8 -8 -9 -10 -11 -11 -10 -10
0 -0 -1 -2 -2 -2 -7 -12 -16 -22 -24 -25 -24 -23 -22 -19 -17 -17 -18 -19 -20 -21 -21 -17 -11 -10 -11 -10 -10 -9 -9 -9 -9 -10 -8 -10 -12 -12 -12 -12 -11 -11 -12
-0 -0 -1 -2 -2 -6 -11 -14 -22 -24 -24 -23 -22 -22 -19 -17 -17 -18 -20 -21 -21 -19 -14 -10 -10 -10 -11 -11 -11 -9 -9 -9 -9 -9 -11 -13 -13 -11 -11 -12 -12 -12 -12
-0 -1 -1 -2 -6 -7 -17 -21 -23 -23 -22 -22 -23 -18 -16 -17 -18 -20 -21 -20 -18 -13 -10 -10 -10 -10 -10 -11 -10 -9 -10 -9 -9 -11 -13 -14 -11 -12 -12 -13 -12 -12 -12
-1 -1 -2 -5 -7 -18 -21 -22 -22 -22 -23 -23 -17 -16 -17 -19 -20 -22 -22 -20 -17 -11 -11 -10 -10 -10 -10 -10 -10 -11 -9 -9 -11 -12 -14 -13 -12 -12 -12 -12 -12 -12 -12

GFSMW_850_dewp_006.txt.gz
Dewpoint
1 1 1 1 0 -1 -2 -1 1 2 3 6 7 8 8 9 8 8 6 4 1 -2 -2 -3 -4 -5 -5 -5 -5 -3 -1 0 1 1 1 1 3 4 3 8 7 3 6
2 1 -0 -1 -2 -3 -4 -4 -3 -1 2 5 7 8 8 7 6 2 -1 -1 -2 -3 -5 -5 -5 -4 -4 -5 -6 -6 -5 -1 -1 -0 0 -1 0 -0 1 -1 1 2 2
2 2 -0 -1 -2 -3 -3 -3 -3 -3 -1 1 4 4 3 1 -0 -0 -2 -4 -5 -4 -3 -3 -4 -6 -8 -11 -15 -15 -12 -3 -4 -2 -2 -1 -0 1 -0 -0 -0 1 2
2 2 2 -0 -2 -2 -2 -2 -2 -2 -2 -1 -1 -1 -1 -1 -3 -5 -5 -4 -3 -3 -3 -5 -8 -12 -20 -27 -32 -35 -26 -8 -5 -4 -4 -2 -2 -0 0 -2 -1 -1 1
2 3 1 -1 -1 -2 -2 -2 -2 -2 -2 -2 -3 -4 -4 -5 -5 -4 -3 -2 -2 -4 -7 -11 -17 -24 -33 -37 -33 -29 -26 -17 -8 -7 -5 -3 -3 -2 -2 -1 -5 -5 -5
3 3 0 -0 -1 -1 -1 -1 -1 -2 -3 -3 -4 -5 -5 -4 -3 -1 -1 -3 -5 -7 -9 -15 -23 -36 -35 -30 -27 -25 -24 -23 -22 -14 -6 -4 -4 -5 -6 -7 -7 -6 -7
3 3 1 1 0 0 0 -0 -1 -1 -2 -4 -5 -4 -3 -2 -1 -2 -3 -4 -6 -8 -13 -25 -36 -33 -30 -27 -25 -24 -23 -18 -19 -12 -7 -6 -9 -9 -10 -9 -5 -5 -4
3 3 3 1 1 1 1 0 -0 -2 -3 -4 -4 -3 -2 -1 -2 -2 -4 -6 -10 -19 -32 -36 -33 -30 -27 -26 -25 -24 -21 -17 -14 -17 -12 -8 -10 -9 -8 -5 -4 -2 -2
3 3 3 2 2 1 1 1 -0 -2 -3 -4 -4 -2 -1 -1 -1 -4 -6 -10 -19 -30 -34 -33 -30 -28 -26 -25 -23 -21 -19 -19 -14 -13 -10 -9 -9 -8 -7 -7 -8 -8 -5
3 3 3 2 2 2 1 1 -1 -2 -4 -4 -3 -1 -1 -2 -4 -7 -10 -17 -27 -32 -32 -30 -28 -27 -25 -22 -20 -18 -18 -16 -14 -13 -12 -10 -10 -9 -10 -11 -12 -10 -9
3 3 3 2 2 2 1 0 -1 -3 -4 -4 -2 -1 -2 -4 -6 -10 -14 -20 -25 -29 -29 -28 -27 -25 -21 -19 -19 -19 -18 -15 -13 -13 -12 -11 -11 -10 -11 -12 -12 -10 -10
3 2 3 2 2 1 1 -0 -1 -3 -4 -3 -1 -2 -4 -6 -9 -12 -14 -23 -28 -29 -28 -26 -24 -20 -18 -18 -19 -18 -16 -14 -13 -13 -12 -12 -12 -11 -12 -11 -11 -10 -9
3 2 3 2 2 1 1 -0 -2 -4 -4 -2 -2 -3 -5 -6 -8 -14 -22 -27 -28 -28 -26 -23 -20 -18 -18 -18 -19 -17 -15 -13 -13 -12 -12 -11 -11 -11 -11 -10 -10 -9 -9
2 2 3 1 1 1 0 -1 -3 -4 -3 -2 -2 -5 -7 -8 -13 -21 -27 -28 -28 -27 -23 -19 -18 -17 -18 -18 -18 -20 -14 -12 -12 -11 -10 -10 -10 -10 -10 -10 -9 -8 -7
2 2 3 1 1 0 -0 -1 -4 -4 -2 -1 -3 -7 -7 -11 -18 -26 -27 -28 -27 -22 -19 -18 -17 -17 -17 -18 -21 -22 -12 -10 -10 -10 -10 -10 -10 -9 -9 -8 -8 -8 -8
2 2 2 1 0 -0 -0 -2 -4 -3 -2 -2 -5 -6 -10 -16 -25 -27 -28 -26 -21 -19 -17 -17 -17 -17 -18 -20 -22 -19 -9 -10 -10 -10 -10 -11 -11 -10 -9 -8 -7 -7 -6
1 2 2 1 1 1 -0 -3 -3 -2 -1 -3 -6 -9 -14 -23 -27 -28 -26 -21 -19 -17 -17 -16 -17 -18 -18 -20 -21 -10 -9 -9 -10 -10 -11 -11 -11 -9 -8 -9 -9 -8 -7
0 1 2 2 2 1 -1 -3 -3 -1 -2 -5 -8 -12 -23 -26 -27 -26 -22 -19 -18 -17 -16 -16 -16 -16 -16 -18 -11 -9 -9 -10 -11 -11 -11 -11 -9 -8 -10 -9 -7 -7 -9
-0 0 1 2 2 1 -2 -3 -2 -2 -4 -7 -11 -22 -26 -27 -25 -22 -20 -18 -17 -16 -16 -16 -16 -15 -16 -13 -10 -9 -10 -11 -11 -11 -10 -9 -8 -10 -9 -7 -8 -9 -10
-1 -0 1 2 1 -1 -3 -3 -2 -3 -8 -10 -19 -25 -26 -25 -23 -21 -19 -17 -16 -16 -16 -16 -16 -15 -14 -12 -9 -9 -10 -10 -10 -10 -9 -9 -10 -9 -7 -9 -9 -9 -12
-1 -0 1 1 -1 -2 -3 -2 -3 -6 -11 -16 -23 -25 -24 -23 -22 -19 -17 -17 -16 -16 -16 -16 -15 -14 -12 -11 -10 -9 -9 -9 -9 -9 -9 -10 -8 -8 -10 -11 -10 -10 -10
-1 -1 -0 -1 -2 -3 -2 -3 -6 -11 -15 -22 -24 -24 -23 -23 -18 -17 -17 -18 -16 -16 -16 -16 -14 -12 -11 -11 -10 -9 -9 -9 -8 -9 -9 -8 -9 -11 -12 -11 -11 -11 -11
-2 -1 -1 -1 -2 -2 -2 -5 -10 -15 -20 -23 -23 -23 -23 -18 -16 -17 -18 -17 -16 -16 -15 -14 -12 -12 -11 -11 -10 -10 -9 -9 -9 -10 -8 -10 -12 -12 -12 -11 -12 -12 -12
-2 -1 -0 -1 -2 -2 -4 -9 -12 -20 -22 -22 -23 -23 -17 -16 -17 -17 -16 -18 -16 -15 -13 -12 -12 -11 -11 -11 -10 -10 -10 -11 -10 -9 -10 -12 -13 -13 -12 -12 -13 -13 -12
-1 -1 -1 -2 -3 -4 -10 -12 -19 -22 -22 -23 -23 -17 -16 -16 -17 -17 -17 -15 -14 -14 -11 -11 -10 -10 -10 -10 -10 -10 -10 -9 -9 -10 -12 -13 -13 -12 -13 -13 -13 -13 -12
-1 -1 -1 -2 -4 -9 -11 -19 -21 -22 -23 -23 -17 -16 -16 -17 -18 -17 -16 -14 -12 -11 -14 -13 -10 -10 -10 -10 -10 -10 -10 -9 -11 -12 -13 -13 -12 -12 -12 -12 -13 -13 -12

GFSMW_850_dewp_009.txt.gz
Dewpoint
2 3 4 4 4 7 8 9 9 10 11 11 10 8 7 7 7 6 2 -2 -2 -5 -6 -4 -3 -3 -4 -4 -5 -4 -5 -6 -3 -4 -3 -7 -1 -4 -0 2 -0 -3 -2
2 3 3 3 3 4 4 6 8 10 9 8 8 7 6 5 1 -1 -2 -4 -5 -4 -3 -3 -4 -6 -8 -9 -13 -13 -17 -10 -10 -5 -5 -4 -4 -5 -10 -6 -2 -3 1
1 2 3 3 3 -1 -2 -2 -1 1 3 4 4 3 1 2 -0 -4 -5 -4 -3 -2 -4 -6 -9 -11 -14 -17 -24 -18 -15 -9 -9 -9 -6 -6 -5 -4 -4 -6 -3 -3 -6
1 2 2 3 2 -2 -2 -2 -2 -2 0 3 3 3 1 -3 -5 -4 -3 -2 -2 -4 -6 -8 -10 -14 -22 -28 -29 -23 -22 -15 -9 -11 -10 -9 -7 -5 -5 -7 -7 -8 -9
2 2 3 3 1 -1 -1 -2 -2 -2 -2 -2 -3 -4 -4 -4 -3 -1 -2 -4 -4 -4 -6 -10 -14 -22 -29 -30 -28 -26 -24 -22 -11 -10 -10 -9 -7 -6 -9 -9 -9 -10 -10
2 3 3 3 0 -1 -1 -2 -2 -3 -3 -4 -4 -4 -3 -2 -1 -2 -2 -3 -5 -6 -8 -12 -22 -30 -31 -29 -27 -25 -24 -20 -12 -13 -10 -11 -9 -8 -9 -10 -9 -8 -7
2 3 3 3 2 0 -1 -2 -2 -2 -3 -4 -3 -3 -2 -1 -1 -1 -1 -3 -5 -6 -8 -15 -27 -31 -30 -27 -26 -25 -21 -16 -12 -13 -11 -13 -11 -9 -10 -10 -9 -7 -6
2 3 3 4 4 1 -0 -1 -2 -3 -3 -3 -3 -3 -2 -1 -1 -1 -2 -4 -5 -8 -14 -22 -29 -30 -27 -26 -23 -21 -15 -14 -15 -14 -13 -13 -11 -11 -10 -10 -8 -7 -8
2 3 3 4 4 2 1 -0 -1 -2 -3 -3 -3 -2 -2 -1 -1 -2 -4 -5 -8 -11 -17 -25 -28 -28 -26 -23 -20 -17 -16 -15 -16 -15 -14 -13 -12 -11 -11 -10 -9 -9 -9
3 3 3 4 3 2 1 0 -1 -2 -3 -4 -3 -2 -1 -2 -3 -3 -4 -7 -10 -13 -22 -27 -28 -27 -25 -20 -17 -16 -16 -16 -15 -14 -14 -13 -12 -12 -11 -11 -10 -11 -10
2 3 3 3 3 1 1 1 -0 -2 -3 -4 -3 -2 -2 -2 -3 -4 -6 -9 -15 -20 -26 -27 -28 -27 -20 -17 -16 -16 -16 -16 -15 -14 -13 -13 -12 -12 -12 -11 -11 -11 -10
2 2 3 3 2 1 1 1 -0 -2 -4 -4 -3 -2 -2 -3 -4 -6 -9 -15 -20 -25 -27 -28 -26 -19 -17 -16 -16 -16 -16 -16 -15 -14 -13 -12 -11 -11 -10 -11 -10 -10 -10
2 2 3 3 1 1 0 -0 -2 -3 -4 -4 -3 -3 -3 -4 -6 -8 -13 -19 -25 -27 -29 -25 -19 -17 -16 -16 -15 -16 -16 -15 -13 -12 -12 -11 -11 -10 -10 -10 -10 -9 -8
2 2 3 2 1 -0 -1 -2 -3 -3 -4 -4 -3 -2 -4 -5 -7 -12 -18 -24 -27 -29 -25 -19 -17 -16 -15 -15 -15 -16 -16 -13 -11 -10 -11 -10 -10 -10 -10 -10 -9 -8 -8
2 2 3 2 1 -1 -2 -4 -4 -4 -4 -3 -2 -3 -4 -6 -11 -17 -24 -28 -29 -24 -19 -17 -15 -14 -14 -15 -16 -15 -12 -11 -10 -10 -10 -10 -11 -10 -10 -9 -7 -7 -7
2 2 3 2 1 -1 -3 -4 -3 -4 -4 -3 -2 -3 -6 -10 -17 -24 -27 -28 -24 -20 -17 -15 -14 -14 -15 -15 -13 -11 -10 -9 -9 -10 -10 -11 -11 -11 -10 -9 -9 -7 -7
1 2 3 2 1 -1 -3 -4 -4 -4 -3 -2 -3 -6 -8 -14 -22 -26 -27 -23 -19 -17 -15 -14 -14 -15 -15 -14 -12 -11 -9 -9 -10 -10 -11 -11 -11 -10 -10 -9 -8 -8 -7
2 2 3 2 0 -2 -3 -5 -4 -4 -2 -3 -6 -8 -13 -19 -25 -26 -23 -20 -17 -15 -15 -15 -15 -15 -15 -14 -12 -10 -9 -9 -10 -11 -11 -10 -10 -10 -9 -7 -7 -8 -9
1 2 3 1 -1 -1 -2 -3 -4 -3 -3 -6 -9 -13 -17 -23 -25 -24 -22 -20 -16 -15 -15 -16 -15 -16 -16 -14 -12 -9 -9 -10 -10 -10 -10 -9 -8 -9 -7 -7 -8 -10 -12
-0 0 1 0 0 -2 -2 -4 -5 -3 -4 -7 -11 -15 -21 -24 -23 -23 -20 -16 -15 -16 -16 -16 -16 -16 -16 -13 -10 -9 -9 -9 -9 -9 -9 -9 -9 -7 -8 -9 -10 -10 -10
-3 -1 0 -0 -2 -2 -3 -7 -4 -3 -7 -9 -12 -19 -24 -23 -23 -20 -16 -15 -16 -16 -16 -16 -17 -16 -13 -12 -11 -10 -9 -9 -8 -9 -9 -10 -9 -8 -10 -11 -11 -10 -9
-2 -1 -1 -2 -2 -2 -4 -4 -3 -5 -8 -9 -17 -23 -23 -24 -20 -16 -15 -17 -15 -15 -17 -16 -16 -14 -12 -12 -11 -10 -9 -9 -8 -9 -10 -9 -8 -11 -12 -12 -11 -11 -10
-3 -2 -2 -2 -3 -3 -3 -3 -3 -6 -7 -17 -22 -22 -25 -20 -16 -15 -16 -15 -15 -16 -15 -15 -13 -12 -11 -11 -11 -10 -10 -9 -9 -9 -9 -9 -11 -12 -12 -12 -12 -12 -12
-3 -2 -2 -3 -3 -2 -2 -2 -5 -6 -16 -22 -22 -24 -21 -16 -14 -15 -15 -15 -15 -15 -14 -13 -11 -10 -10 -10 -11 -10 -9 -10 -10 -9 -9 -12 -12 -12 -12 -12 -12 -12 -12
-2 -2 -2 -3 -4 -2 -2 -4 -6 -16 -22 -22 -25 -21 -16 -14 -14 -15 -15 -15 -14 -13 -11 -11 -10 -10 -10 -10 -10 -9 -10 -10 -9 -10 -11 -12 -12 -12 -12 -12 -12 -12 -11
-1 -1 -2 -2 -2 -2 -4 -6 -17 -21 -23 -24 -21 -16 -14 -14 -14 -15 -15 -15 -13 -13 -12 -11 -11 -10 -10 -10 -10 -11 -10 -10 -11 -11 -12 -12 -12 -12 -12 -12 -12 -12 -12

GFSMW_850_dewp_012.txt.gz
Dewpoint
3 3 4 6 8 9 9 9 9 10 11 11 12 12 10 8 7 5 -1 -3 -5 -4 -3 -3 -4 -5 -8 -9 -11 -13 -16 -18 -19 -16 -18 -13 -13 -11 -6 -14 -14 -14 -8
3 3 3 5 7 9 10 10 11 11 11 11 9 7 7 5 0 -2 -5 -4 -3 -2 -3 -4 -5 -6 -8 -10 -16 -19 -23 -21 -21 -13 -17 -10 -12 -11 -17 -7 -13 -4 -3
2 3 3 3 5 5 5 8 8 8 8 7 6 5 1 -1 -3 -4 -4 -2 -2 -3 -3 -5 -7 -9 -12 -16 -24 -24 -24 -23 -22 -22 -13 -9 -9 -9 -10 -12 -8 -11 -15
2 3 3 3 2 1 1 2 3 3 4 3 2 0 -2 -4 -4 -2 -2 -2 -3 -3 -4 -6 -8 -12 -17 -23 -26 -25 -24 -24 -23 -22 -20 -18 -12 -9 -8 -10 -14 -13 -15
2 2 3 3 2 1 1 0 0 1 3 3 1 -3 -4 -3 -2 -2 -2 -3 -3 -2 -3 -5 -8 -11 -17 -23 -26 -25 -24 -25 -22 -18 -16 -17 -13 -16 -11 -8 -10 -10 -11
2 3 4 3 2 1 -0 -1 -2 -2 -2 -3 -4 -4 -3 -2 -2 -2 -2 -2 -2 -3 -3 -5 -8 -14 -21 -24 -25 -25 -25 -24 -21 -18 -16 -15 -11 -13 -11 -9 -10 -10 -10
2 3 4 3 2 0 -1 -2 -3 -3 -3 -4 -3 -2 -2 -2 -1 -1 -1 -2 -2 -3 -3 -6 -10 -15 -21 -25 -25 -26 -25 -21 -18 -16 -17 -16 -15 -15 -11 -10 -10 -9 -10
3 3 4 3 1 0 -1 -2 -2 -3 -3 -3 -3 -2 -2 -2 -1 -1 -2 -2 -2 -3 -5 -8 -13 -19 -24 -26 -26 -25 -21 -18 -17 -17 -17 -16 -15 -13 -12 -12 -10 -10 -9
3 3 3 3 2 1 -0 -1 -2 -3 -3 -3 -3 -2 -2 -1 -1 -2 -2 -2 -3 -5 -9 -14 -19 -23 -26 -27 -23 -19 -17 -17 -18 -18 -16 -16 -15 -14 -12 -12 -12 -10 -9
3 3 4 4 3 2 1 -0 -2 -3 -3 -3 -3 -2 -2 -2 -2 -2 -2 -3 -5 -9 -13 -18 -22 -25 -28 -23 -19 -17 -17 -18 -17 -17 -17 -17 -14 -13 -12 -11 -11 -11 -10
3 3 4 4 3 2 1 0 -1 -2 -3 -3 -3 -3 -2 -2 -2 -2 -3 -4 -8 -13 -18 -22 -25 -29 -25 -20 -17 -17 -17 -16 -17 -17 -18 -15 -13 -12 -11 -11 -10 -10 -10
3 3 4 4 3 2 1 0 -0 -1 -2 -3 -3 -3 -3 -2 -3 -3 -4 -7 -11 -17 -22 -27 -30 -25 -20 -18 -17 -16 -16 -16 -17 -18 -17 -15 -12 -10 -10 -10 -10 -10 -10
3 3 3 3 3 2 1 0 -0 -1 -2 -4 -4 -3 -3 -2 -3 -4 -6 -10 -15 -21 -28 -29 -24 -21 -18 -17 -16 -16 -15 -16 -16 -15 -15 -13 -11 -10 -10 -10 -10 -10 -9
2 3 3 3 2 1 1 -0 -1 -2 -3 -4 -4 -4 -3 -3 -4 -5 -8 -14 -21 -27 -27 -24 -21 -18 -16 -15 -15 -14 -14 -12 -12 -12 -14 -11 -10 -10 -10 -10 -9 -9 -7
2 2 3 3 2 1 -0 -1 -2 -3 -3 -5 -4 -3 -2 -3 -4 -7 -13 -21 -27 -26 -23 -22 -18 -16 -15 -15 -13 -12 -11 -11 -11 -13 -11 -9 -10 -10 -10 -10 -9 -8 -8
2 2 3 3 1 0 -1 -2 -3 -4 -4 -5 -4 -2 -3 -4 -6 -11 -19 -25 -25 -24 -22 -17 -16 -15 -15 -14 -12 -11 -11 -11 -11 -11 -9 -10 -10 -10 -10 -9 -9 -8 -6
2 2 3 3 1 -0 -1 -3 -4 -4 -5 -5 -3 -3 -3 -6 -9 -18 -24 -24 -24 -21 -17 -16 -17 -16 -16 -15 -13 -12 -11 -10 -10 -10 -10 -10 -10 -10 -10 -10 -7 -7 -8
2 2 3 3 1 -0 -2 -3 -4 -5 -5 -3 -3 -4 -6 -9 -16 -23 -24 -25 -21 -16 -16 -17 -17 -17 -18 -15 -13 -12 -10 -10 -9 -11 -10 -9 -9 -9 -8 -7 -7 -8 -9
2 2 2 2 1 -0 -2 -3 -5 -5 -4 -3 -4 -7 -11 -16 -21 -24 -25 -22 -15 -15 -18 -18 -19 -20 -18 -16 -13 -10 -10 -10 -10 -9 -8 -8 -9 -9 -8 -8 -8 -9 -10
3 3 2 1 0 -1 -2 -3 -4 -4 -3 -4 -7 -8 -14 -21 -24 -26 -22 -15 -15 -17 -18 -20 -20 -18 -17 -15 -12 -10 -10 -9 -8 -8 -8 -9 -10 -9 -8 -8 -9 -9 -12
1 1 0 -0 -1 -1 -2 -5 -5 -4 -4 -7 -8 -12 -21 -24 -26 -22 -15 -14 -16 -18 -19 -20 -20 -18 -15 -13 -11 -10 -9 -8 -8 -8 -9 -9 -10 -8 -9 -10 -10 -11 -9
-1 -1 -1 -2 -2 -3 -4 -5 -4 -4 -6 -7 -11 -20 -24 -26 -21 -15 -14 -15 -17 -18 -19 -18 -17 -15 -14 -11 -10 -9 -9 -9 -9 -9 -10 -11 -8 -10 -11 -11 -12 -10 -11
-3 -2 -2 -2 -3 -4 -4 -3 -3 -5 -7 -11 -20 -24 -26 -19 -14 -14 -14 -16 -17 -17 -16 -15 -14 -13 -12 -12 -10 -10 -9 -9 -10 -11 -10 -9 -10 -11 -12 -12 -11 -12 -13
-3 -4 -3 -3 -3 -3 -3 -3 -4 -6 -10 -20 -25 -25 -19 -14 -14 -14 -16 -17 -16 -15 -14 -12 -12 -11 -11 -11 -11 -9 -9 -10 -10 -10 -9 -10 -12 -13 -12 -12 -13 -13 -12
-3 -3 -3 -3 -3 -3 -3 -4 -6 -9 -19 -24 -24 -20 -15 -13 -13 -15 -16 -16 -16 -14 -12 -12 -12 -11 -11 -11 -10 -10 -10 -10 -10 -10 -11 -14 -13 -12 -12 -12 -12 -12 -12
-2 -2 -3 -4 -4 -3 -3 -6 -8 -19 -23 -23 -21 -16 -13 -13 -14 -16 -17 -18 -18 -15 -12 -12 -11 -11 -11 -11 -10 -11 -10 -10 -10 -11 -13 -12 -12 -12 -12 -12 -12 -12 -12

GFSMW_850_dewp_015.txt.gz
Dewpoint
2 2 3 6 7 7 8 8 7 9 11 12 12 12 12 11 11 10 2 -4 -4 -3 -3 -3 -4 -6 -7 -9 -11 -13 -13 -15 -15 -15 -13 -15 -15 -14 -15 -26 -28 -28 -15
3 3 5 8 9 9 10 9 10 11 11 12 12 11 11 9 5 -2 -4 -3 -3 -3 -4 -4 -4 -6 -9 -11 -14 -17 -18 -19 -21 -19 -17 -15 -17 -14 -24 -15 -25 -16 -11
3 4 5 8 10 10 11 11 11 11 11 11 10 8 6 1 -3 -4 -3 -2 -3 -3 -2 -3 -3 -5 -9 -13 -18 -20 -21 -21 -20 -22 -15 -12 -12 -16 -12 -22 -13 -20 -18
2 3 4 6 8 10 10 10 11 11 10 7 6 4 -1 -3 -4 -2 -2 -2 -2 -2 -2 -2 -3 -5 -10 -15 -19 -21 -22 -23 -22 -23 -22 -17 -15 -12 -10 -14 -22 -16 -19
2 3 3 3 5 6 8 9 7 7 5 2 -0 -2 -4 -4 -2 -2 -2 -2 -2 -2 -2 -2 -4 -7 -11 -15 -17 -20 -22 -24 -24 -21 -20 -19 -19 -19 -11 -11 -12 -13 -14
3 3 3 2 3 4 4 3 2 3 2 2 0 -4 -3 -2 -2 -2 -2 -2 -2 -2 -2 -3 -6 -9 -14 -17 -20 -22 -23 -25 -23 -19 -19 -17 -17 -16 -15 -14 -12 -10 -11
3 3 3 3 3 2 2 2 2 2 2 -1 -4 -3 -2 -2 -2 -2 -2 -2 -2 -2 -3 -5 -8 -12 -16 -20 -21 -23 -26 -23 -19 -18 -19 -18 -18 -16 -16 -13 -12 -12 -11
3 3 3 3 2 1 -0 -1 -1 -2 -3 -3 -3 -2 -2 -2 -2 -2 -2 -2 -2 -2 -4 -6 -10 -15 -19 -22 -25 -26 -22 -18 -18 -19 -19 -18 -18 -18 -18 -14 -12 -10 -11
3 3 3 2 1 0 -1 -2 -3 -3 -4 -3 -3 -2 -2 -2 -2 -2 -2 -2 -2 -3 -6 -9 -13 -18 -23 -27 -25 -21 -18 -18 -18 -19 -19 -18 -18 -19 -18 -13 -12 -11 -9
3 3 3 2 1 -0 -1 -2 -2 -3 -3 -3 -3 -2 -2 -2 -2 -2 -2 -2 -3 -4 -8 -12 -17 -24 -28 -23 -20 -18 -17 -18 -18 -18 -18 -17 -17 -19 -18 -11 -10 -10 -10
3 3 3 3 2 0 -0 -1 -2 -3 -3 -3 -3 -3 -3 -3 -2 -2 -2 -2 -4 -7 -12 -19 -26 -27 -23 -20 -18 -17 -17 -18 -18 -17 -16 -16 -16 -17 -13 -12 -10 -10 -10
3 3 3 4 3 1 1 -0 -1 -2 -3 -4 -4 -3 -3 -3 -2 -2 -2 -3 -6 -12 -19 -26 -26 -24 -21 -18 -17 -18 -18 -17 -15 -14 -14 -14 -15 -13 -10 -10 -10 -10 -10
3 3 4 4 3 2 1 1 -0 -1 -3 -4 -4 -4 -4 -3 -2 -2 -3 -5 -10 -17 -24 -25 -24 -20 -17 -18 -19 -18 -14 -13 -12 -12 -12 -12 -13 -11 -10 -9 -9 -9 -9
3 3 4 4 3 2 2 1 -0 -2 -3 -4 -4 -5 -4 -3 -2 -2 -4 -8 -15 -22 -25 -24 -19 -17 -18 -20 -19 -15 -13 -12 -11 -11 -11 -13 -12 -9 -8 -9 -9 -8 -9
3 3 4 3 3 2 1 0 -1 -1 -3 -4 -5 -5 -3 -2 -2 -4 -6 -12 -21 -25 -24 -18 -16 -18 -20 -20 -16 -13 -11 -11 -11 -11 -11 -12 -11 -9 -9 -9 -9 -9 -8
3 3 3 3 3 2 1 -0 -1 -3 -3 -5 -6 -4 -3 -3 -4 -5 -10 -20 -24 -25 -18 -16 -17 -20 -21 -21 -14 -11 -11 -11 -11 -10 -11 -11 -10 -10 -9 -9 -9 -8 -7
3 3 3 3 3 2 1 -1 -2 -3 -4 -6 -5 -3 -3 -4 -6 -10 -19 -24 -25 -17 -15 -17 -19 -21 -22 -21 -13 -12 -11 -11 -10 -10 -10 -10 -9 -9 -9 -10 -8 -8 -8
2 2 3 3 2 1 -0 -1 -3 -4 -5 -5 -4 -3 -5 -6 -9 -17 -24 -25 -17 -15 -16 -19 -20 -21 -22 -20 -13 -11 -10 -10 -10 -10 -9 -9 -9 -9 -9 -9 -8 -8 -9
2 2 2 3 1 0 -1 -2 -3 -4 -5 -4 -4 -5 -6 -8 -17 -24 -25 -17 -14 -15 -18 -19 -20 -20 -20 -18 -12 -10 -10 -10 -9 -9 -8 -8 -9 -10 -10 -8 -8 -9 -10
2 2 3 2 1 -1 -1 -2 -4 -5 -4 -4 -5 -6 -8 -17 -25 -25 -16 -14 -14 -17 -18 -19 -20 -19 -18 -17 -10 -9 -10 -9 -10 -10 -10 -10 -10 -10 -8 -8 -9 -10 -13
2 2 2 2 0 -1 -2 -3 -4 -4 -4 -5 -6 -7 -17 -25 -24 -15 -13 -14 -16 -17 -19 -19 -20 -18 -16 -14 -10 -9 -9 -10 -9 -10 -10 -11 -10 -9 -10 -10 -11 -11 -10
2 2 1 -0 -1 -1 -2 -3 -5 -4 -4 -6 -7 -18 -25 -22 -15 -13 -13 -15 -17 -18 -19 -20 -18 -15 -13 -13 -13 -9 -9 -9 -9 -9 -11 -10 -9 -11 -11 -11 -11 -11 -11
-3 -2 -2 -2 -3 -4 -4 -5 -4 -4 -5 -8 -19 -25 -22 -15 -13 -12 -14 -16 -17 -19 -20 -16 -14 -13 -12 -12 -12 -10 -9 -9 -10 -10 -9 -10 -11 -12 -12 -12 -11 -11 -13
-4 -3 -3 -4 -4 -5 -5 -4 -3 -5 -7 -18 -24 -23 -16 -13 -12 -12 -15 -17 -18 -20 -15 -13 -12 -12 -12 -11 -11 -10 -9 -10 -9 -10 -10 -12 -13 -12 -12 -13 -13 -12 -12
-4 -4 -4 -4 -4 -4 -3 -3 -5 -7 -18 -24 -23 -18 -14 -13 -12 -13 -16 -18 -20 -16 -13 -12 -11 -11 -11 -11 -10 -10 -10 -10 -10 -10 -12 -14 -13 -13 -13 -13 -13 -12 -12
-3 -3 -4 -4 -4 -3 -3 -4 -8 -18 -23 -23 -20 -17 -14 -12 -12 -15 -17 -22 -22 -20 -18 -14 -11 -11 -11 -11 -11 -11 -10 -10 -11 -12 -13 -13 -13 -13 -13 -12 -13 -13 -12

GFSMW_850_dewp_018.txt.gz
Dewpoint
1 2 1 1 2 3 4 4 4 6 9 12 12 11 11 11 11 11 10 4 -4 -3 -3 -4 -4 -4 -5 -7 -10 -12 -13 -14 -14 -14 -13 -15 -17 -19 -13 -27 -23 -30 -23
3 2 1 2 5 4 6 6 4 5 10 11 12 12 11 10 11 10 -1 -4 -3 -3 -3 -3 -2 -2 -4 -8 -12 -14 -15 -17 -19 -19 -16 -18 -19 -17 -26 -21 -26 -23 -28
2 3 3 5 6 7 9 8 8 9 11 12 12 11 11 11 9 -2 -4 -3 -3 -3 -2 -1 -2 -3 -7 -10 -14 -16 -18 -19 -20 -21 -19 -18 -15 -18 -19 -24 -21 -24 -25
2 3 5 7 8 8 10 10 10 11 12 12 12 11 11 8 -2 -4 -2 -3 -2 -2 -1 -1 -2 -5 -9 -12 -15 -19 -20 -21 -22 -23 -21 -18 -17 -15 -15 -18 -24 -22 -24
2 3 5 7 9 9 10 10 10 10 10 10 9 7 4 -3 -4 -2 -3 -3 -2 -1 -1 -2 -3 -7 -10 -14 -18 -20 -22 -23 -23 -21 -19 -19 -19 -18 -15 -12 -14 -20 -24
3 4 6 8 10 10 10 11 11 11 9 6 3 -1 -3 -3 -2 -3 -2 -2 -2 -2 -2 -2 -5 -9 -13 -16 -19 -22 -24 -23 -21 -19 -18 -18 -18 -17 -16 -15 -16 -14 -14
3 4 6 6 8 10 10 10 9 7 3 1 -1 -3 -3 -2 -2 -2 -2 -2 -2 -2 -2 -4 -7 -11 -15 -19 -22 -25 -24 -22 -19 -18 -18 -19 -19 -17 -17 -17 -17 -14 -13
3 4 4 4 5 5 6 5 4 2 2 1 -2 -4 -2 -2 -2 -2 -2 -2 -2 -2 -3 -6 -10 -13 -17 -22 -26 -24 -21 -19 -18 -19 -20 -20 -19 -18 -17 -17 -16 -12 -12
4 4 3 3 4 4 3 3 3 2 2 0 -3 -3 -2 -2 -2 -2 -2 -2 -2 -3 -4 -6 -11 -16 -23 -26 -23 -21 -19 -18 -19 -21 -20 -19 -18 -17 -17 -19 -18 -10 -9
5 4 4 3 3 2 2 2 1 -0 -1 -3 -3 -2 -2 -2 -2 -2 -2 -2 -2 -3 -5 -10 -15 -22 -25 -23 -21 -18 -18 -19 -20 -19 -17 -16 -15 -16 -18 -18 -13 -10 -9
4 4 4 3 2 1 -0 -1 -2 -3 -3 -3 -3 -3 -3 -3 -3 -3 -2 -2 -2 -4 -9 -14 -21 -24 -24 -20 -18 -18 -19 -19 -18 -17 -15 -14 -13 -14 -16 -13 -11 -10 -9
4 4 4 3 1 0 -1 -2 -2 -3 -4 -4 -3 -3 -3 -3 -3 -3 -2 -2 -3 -7 -13 -20 -24 -24 -19 -17 -19 -20 -20 -18 -17 -15 -13 -12 -12 -13 -14 -13 -10 -9 -9
4 4 4 2 1 0 -0 -1 -2 -3 -4 -4 -4 -4 -4 -4 -3 -2 -2 -3 -5 -11 -20 -23 -24 -18 -17 -19 -21 -21 -19 -19 -15 -12 -11 -12 -11 -13 -12 -10 -9 -8 -8
4 4 4 3 2 1 0 -0 -1 -3 -4 -5 -5 -5 -5 -4 -3 -2 -3 -4 -9 -18 -23 -24 -18 -16 -18 -20 -22 -21 -20 -16 -12 -11 -11 -11 -11 -11 -9 -9 -8 -8 -9
4 4 4 4 3 2 1 1 -0 -2 -3 -4 -5 -6 -5 -4 -3 -3 -5 -8 -17 -23 -24 -17 -16 -18 -20 -22 -23 -19 -13 -12 -12 -11 -11 -10 -11 -9 -9 -8 -8 -8 -8
4 3 3 4 4 3 2 1 -0 -2 -2 -3 -5 -6 -5 -3 -3 -5 -8 -14 -22 -24 -16 -15 -18 -19 -21 -22 -23 -13 -11 -11 -10 -10 -10 -11 -10 -9 -9 -9 -9 -9 -8
3 3 3 4 4 3 2 1 -0 -2 -2 -4 -6 -6 -4 -4 -6 -8 -12 -21 -24 -16 -14 -17 -19 -20 -22 -23 -22 -12 -10 -10 -10 -10 -11 -11 -10 -10 -11 -10 -9 -9 -8
3 3 3 3 3 3 2 1 -1 -2 -4 -5 -6 -4 -4 -6 -7 -11 -21 -24 -15 -14 -16 -18 -19 -21 -22 -22 -21 -17 -11 -12 -12 -11 -11 -9 -11 -11 -10 -9 -9 -9 -10
3 3 3 3 3 2 1 -0 -2 -4 -5 -6 -5 -4 -6 -6 -10 -22 -23 -14 -13 -15 -17 -18 -20 -22 -22 -20 -20 -10 -10 -11 -11 -11 -9 -10 -10 -10 -9 -8 -9 -10 -11
3 3 3 3 3 1 -0 -2 -3 -4 -5 -5 -4 -5 -6 -10 -22 -22 -13 -13 -14 -16 -17 -19 -22 -21 -20 -20 -17 -9 -10 -10 -11 -9 -10 -10 -10 -9 -9 -10 -10 -11 -13
3 3 3 3 1 -0 -2 -3 -4 -5 -5 -4 -5 -6 -10 -22 -22 -13 -12 -13 -14 -16 -18 -22 -23 -22 -20 -16 -13 -9 -9 -9 -9 -9 -10 -11 -10 -9 -11 -11 -11 -11 -10
3 2 2 0 -1 -2 -2 -3 -4 -5 -4 -5 -6 -11 -23 -22 -14 -12 -12 -14 -15 -18 -21 -23 -24 -22 -18 -15 -14 -9 -9 -9 -10 -9 -11 -10 -10 -11 -11 -11 -11 -10 -11
2 1 1 -0 -2 -3 -3 -3 -5 -4 -4 -6 -12 -22 -23 -15 -13 -12 -12 -14 -16 -21 -23 -22 -19 -16 -15 -13 -12 -10 -10 -10 -10 -10 -9 -10 -11 -13 -15 -12 -11 -11 -13
-1 -1 -2 -2 -3 -5 -6 -5 -3 -4 -6 -11 -22 -23 -17 -14 -13 -12 -13 -16 -20 -23 -22 -18 -14 -14 -12 -12 -10 -10 -11 -10 -10 -10 -11 -13 -14 -15 -13 -13 -13 -13 -12
-3 -4 -4 -4 -5 -6 -5 -4 -4 -6 -11 -21 -23 -20 -16 -14 -12 -12 -14 -18 -22 -22 -15 -14 -13 -12 -11 -11 -10 -10 -10 -10 -10 -11 -13 -15 -15 -14 -13 -13 -13 -13 -12
-5 -5 -4 -4 -5 -5 -4 -4 -6 -11 -21 -23 -21 -18 -16 -14 -12 -13 -16 -21 -23 -23 -21 -21 -14 -13 -11 -11 -11 -10 -10 -11 -11 -12 -14 -14 -14 -13 -13 -13 -12 -13 -12

GFSMW_850_dewp_021.txt.gz
Dewpoint
3 2 2 2 1 2 3 7 10 11 11 13 13 12 11 12 12 12 11 10 9 -2 -3 -3 -4 -2 -2 -5 -8 -10 -12 -13 -13 -13 -13 -15 -16 -17 -18 -15 -25 -26 -28
3 2 2 2 2 2 2 4 7 9 10 11 12 12 11 11 11 11 10 9 -4 -3 -3 -3 -2 -2 -4 -8 -10 -12 -14 -16 -17 -18 -17 -19 -19 -18 -22 -23 -24 -25 -25
3 2 2 2 2 2 3 4 4 5 7 12 12 12 10 10 9 10 9 -3 -3 -3 -2 -2 -1 -2 -5 -9 -11 -13 -16 -18 -20 -21 -18 -19 -18 -20 -21 -23 -23 -23 -25
3 2 2 2 2 4 5 6 6 5 10 12 12 12 10 10 10 8 -2 -3 -3 -2 -1 -1 -2 -3 -6 -10 -12 -14 -17 -20 -21 -23 -20 -18 -17 -17 -16 -20 -22 -22 -24
3 2 2 2 4 5 7 8 8 8 12 12 12 12 11 11 9 -0 -3 -3 -3 -2 -1 -2 -2 -4 -7 -10 -12 -15 -18 -22 -23 -20 -19 -19 -19 -19 -16 -14 -18 -23 -24
3 2 2 5 6 7 9 10 11 11 12 12 12 11 11 9 2 -3 -3 -3 -2 -2 -2 -2 -3 -4 -8 -12 -14 -18 -23 -24 -21 -19 -18 -18 -17 -17 -16 -15 -16 -16 -19
3 2 4 7 7 8 10 10 11 11 11 11 9 8 7 1 -3 -3 -3 -2 -2 -2 -2 -3 -4 -6 -10 -14 -19 -24 -24 -22 -20 -18 -18 -19 -19 -18 -17 -16 -16 -15 -18
3 3 4 6 7 8 10 11 11 11 10 7 5 1 -3 -3 -2 -3 -2 -2 -2 -2 -2 -3 -5 -9 -14 -20 -24 -24 -22 -20 -18 -19 -20 -20 -18 -16 -15 -14 -15 -15 -13
3 3 4 7 8 9 10 10 10 10 7 3 -0 -3 -3 -2 -3 -2 -2 -2 -2 -2 -3 -4 -8 -14 -20 -23 -23 -23 -20 -18 -20 -21 -20 -18 -16 -15 -14 -15 -16 -13 -9
4 4 5 6 8 9 9 9 8 6 2 1 -0 -3 -3 -3 -3 -3 -3 -2 -2 -3 -4 -7 -12 -17 -22 -23 -22 -19 -18 -21 -22 -21 -19 -18 -14 -14 -14 -14 -15 -14 -11
4 5 6 6 6 7 7 6 5 3 3 2 -2 -3 -3 -3 -3 -3 -2 -2 -2 -3 -5 -10 -15 -19 -22 -22 -18 -18 -21 -22 -22 -21 -16 -14 -13 -13 -13 -13 -13 -11 -10
5 5 5 5 5 5 4 4 3 2 1 -1 -3 -3 -3 -4 -4 -3 -3 -2 -3 -5 -8 -13 -18 -22 -22 -17 -18 -20 -22 -23 -21 -17 -14 -13 -13 -12 -12 -13 -10 -10 -10
5 4 4 4 4 4 3 2 1 -0 -2 -3 -3 -4 -4 -4 -4 -3 -3 -3 -4 -7 -12 -18 -22 -21 -16 -17 -20 -21 -23 -21 -17 -14 -13 -12 -11 -11 -11 -10 -10 -9 -8
5 4 4 3 3 2 1 -0 -2 -3 -4 -4 -4 -5 -5 -5 -4 -3 -3 -4 -6 -10 -17 -22 -20 -15 -17 -19 -21 -22 -20 -18 -15 -13 -11 -11 -11 -11 -9 -9 -8 -8 -10
4 4 4 3 2 1 -0 -1 -2 -4 -4 -5 -5 -5 -5 -5 -4 -4 -4 -6 -9 -15 -22 -20 -15 -16 -18 -20 -22 -21 -18 -15 -13 -11 -12 -13 -12 -10 -9 -9 -9 -10 -9
4 4 4 3 2 1 -0 -1 -2 -3 -4 -5 -5 -6 -6 -5 -4 -4 -6 -8 -13 -22 -18 -14 -15 -17 -19 -21 -23 -22 -17 -14 -14 -15 -15 -14 -13 -11 -10 -10 -9 -9 -8
4 4 4 3 2 1 0 -0 -1 -2 -3 -4 -5 -7 -7 -5 -4 -6 -7 -12 -23 -18 -13 -14 -16 -18 -20 -22 -23 -18 -11 -15 -15 -14 -13 -12 -11 -11 -11 -11 -9 -8 -9
3 3 3 3 3 2 1 1 -0 -2 -3 -4 -6 -7 -6 -5 -6 -7 -12 -23 -17 -12 -13 -15 -16 -19 -22 -23 -22 -18 -15 -15 -13 -12 -12 -9 -11 -11 -10 -9 -8 -11 -12
3 3 3 3 3 3 2 1 -1 -2 -4 -5 -7 -6 -5 -5 -7 -13 -23 -17 -12 -12 -13 -15 -18 -22 -23 -23 -22 -19 -14 -12 -11 -11 -9 -9 -10 -10 -9 -8 -9 -10 -13
3 3 3 3 3 3 2 0 -1 -3 -5 -7 -7 -5 -5 -8 -12 -22 -16 -12 -12 -12 -14 -17 -21 -23 -23 -22 -22 -15 -10 -10 -11 -8 -10 -9 -10 -9 -9 -10 -10 -11 -13
3 3 3 3 3 2 1 -1 -3 -5 -6 -6 -5 -6 -8 -11 -22 -17 -12 -12 -12 -13 -16 -20 -24 -24 -24 -23 -21 -11 -9 -10 -8 -11 -10 -11 -10 -9 -10 -10 -11 -11 -10
3 3 3 3 2 1 -1 -3 -4 -5 -6 -5 -6 -7 -12 -22 -18 -13 -12 -12 -13 -15 -20 -24 -26 -26 -25 -22 -18 -10 -9 -9 -10 -9 -11 -11 -10 -11 -11 -11 -11 -10 -11
2 2 3 1 -1 -2 -3 -3 -4 -5 -5 -6 -7 -13 -23 -19 -14 -13 -12 -12 -14 -19 -23 -24 -24 -24 -23 -19 -15 -11 -10 -10 -10 -10 -10 -10 -11 -14 -16 -13 -11 -12 -13
2 1 0 -1 -3 -4 -4 -4 -5 -5 -6 -7 -13 -23 -21 -16 -15 -13 -12 -13 -17 -22 -24 -23 -23 -22 -19 -16 -11 -10 -11 -10 -10 -11 -11 -13 -15 -16 -14 -13 -13 -13 -12
0 -0 -1 -2 -3 -5 -6 -5 -4 -5 -6 -12 -22 -22 -18 -16 -15 -12 -12 -15 -21 -23 -22 -21 -19 -16 -14 -12 -10 -10 -10 -10 -11 -11 -13 -15 -15 -15 -13 -13 -12 -12 -12
-3 -3 -4 -4 -5 -6 -5 -4 -5 -7 -13 -22 -22 -19 -18 -16 -13 -12 -14 -19 -23 -24 -24 -23 -21 -18 -14 -11 -10 -10 -10 -10 -11 -13 -15 -15 -15 -14 -13 -12 -12 -12 -12

GFSMW_850_dewp_024.txt.gz
Dewpoint
4 3 3 3 2 2 1 0 1 4 9 12 13 13 12 11 12 12 12 11 10 9 2 -4 -4 -3 -3 -4 -8 -11 -11 -11 -12 -12 -13 -15 -17 -17 -15 -20 -20 -16 -24
3 3 4 3 2 2 1 0 2 8 11 12 13 13 12 11 12 12 11 10 9 1 -3 -3 -2 -2 -2 -4 -6 -10 -11 -12 -13 -15 -17 -20 -20 -20 -21 -23 -23 -22 -23
3 2 3 3 2 2 1 1 3 9 11 13 13 13 12 11 11 11 10 7 -0 -3 -3 -2 -1 -1 -2 -3 -5 -10 -11 -13 -16 -20 -20 -20 -19 -20 -20 -21 -21 -21 -23
1 3 3 3 2 1 2 3 3 6 11 12 13 13 12 10 10 9 7 5 -3 -3 -2 -1 -1 -1 -2 -3 -6 -10 -13 -15 -20 -22 -21 -19 -18 -17 -17 -19 -22 -23 -24
1 2 3 2 3 2 2 4 5 6 6 10 13 12 12 10 8 8 7 -1 -3 -3 -2 -1 -1 -2 -2 -4 -8 -12 -15 -20 -23 -21 -20 -19 -19 -19 -16 -16 -20 -24 -24
2 1 3 3 3 3 4 6 6 6 7 11 12 11 10 9 8 8 2 -3 -3 -2 -1 -2 -2 -2 -3 -6 -10 -15 -20 -23 -22 -20 -18 -18 -19 -19 -17 -16 -16 -14 -18
2 3 3 3 3 4 5 7 8 7 10 12 11 10 10 10 10 7 -2 -3 -3 -2 -2 -2 -2 -3 -5 -8 -14 -19 -22 -22 -21 -19 -19 -21 -20 -18 -16 -15 -15 -15 -19
2 3 3 2 3 4 6 8 10 10 11 11 10 11 11 10 6 -2 -3 -3 -2 -2 -2 -2 -3 -4 -7 -12 -17 -20 -22 -21 -19 -20 -21 -21 -19 -18 -15 -14 -13 -14 -14
2 3 3 3 3 5 7 9 11 11 11 11 11 9 7 2 -3 -3 -3 -3 -2 -2 -2 -3 -4 -6 -11 -15 -19 -21 -20 -18 -20 -21 -22 -21 -19 -16 -15 -14 -13 -12 -11
0 2 3 4 6 7 8 10 11 11 11 9 7 4 -1 -3 -3 -3 -3 -3 -3 -2 -2 -3 -5 -9 -13 -18 -21 -19 -17 -20 -21 -22 -22 -21 -18 -16 -14 -13 -12 -12 -12
1 2 3 5 7 9 9 10 10 11 9 6 2 -1 -3 -3 -3 -4 -3 -3 -3 -3 -3 -4 -7 -12 -18 -21 -19 -17 -19 -21 -22 -22 -20 -19 -16 -15 -13 -11 -11 -11 -10
3 4 5 6 8 9 10 10 10 9 7 2 -0 -3 -3 -3 -4 -4 -3 -3 -3 -3 -4 -5 -10 -16 -21 -18 -16 -18 -20 -21 -21 -21 -19 -17 -15 -13 -12 -11 -11 -9 -10
5 5 5 7 8 8 8 8 7 6 3 2 -1 -3 -4 -4 -4 -4 -3 -3 -3 -3 -4 -8 -15 -20 -18 -15 -17 -19 -20 -21 -21 -19 -17 -15 -14 -13 -13 -11 -9 -9 -8
5 4 5 7 8 8 7 6 5 4 2 -0 -3 -4 -4 -5 -5 -4 -4 -3 -3 -4 -8 -13 -20 -18 -14 -16 -18 -20 -21 -22 -21 -19 -18 -18 -16 -14 -10 -9 -9 -8 -10
4 4 4 5 5 5 4 3 2 1 -1 -3 -4 -5 -5 -5 -5 -5 -4 -4 -5 -7 -12 -19 -17 -14 -15 -16 -19 -21 -22 -21 -20 -19 -18 -15 -14 -12 -9 -9 -9 -9 -9
4 4 4 4 4 3 2 1 -0 -2 -4 -5 -5 -6 -6 -6 -5 -5 -4 -5 -8 -12 -19 -16 -13 -14 -15 -17 -21 -23 -20 -19 -18 -16 -14 -13 -12 -11 -10 -10 -9 -9 -8
4 4 4 4 3 2 1 -1 -2 -4 -5 -6 -6 -6 -7 -6 -5 -5 -6 -8 -11 -19 -15 -12 -13 -14 -16 -20 -24 -24 -21 -18 -15 -13 -12 -11 -10 -12 -11 -11 -9 -8 -9
4 4 3 3 2 1 -1 -2 -3 -4 -5 -6 -6 -7 -7 -6 -6 -6 -8 -11 -18 -15 -12 -12 -13 -15 -19 -23 -25 -24 -22 -16 -13 -12 -11 -10 -11 -10 -9 -9 -8 -11 -12
4 4 4 3 2 1 -0 -1 -2 -4 -5 -5 -6 -7 -7 -6 -6 -8 -11 -19 -15 -12 -12 -12 -14 -18 -23 -25 -26 -25 -16 -12 -11 -11 -9 -10 -10 -10 -9 -9 -9 -10 -13
3 4 4 3 3 1 0 -1 -2 -3 -5 -6 -7 -7 -7 -7 -8 -12 -19 -15 -12 -12 -12 -13 -18 -23 -25 -26 -25 -16 -10 -9 -10 -9 -10 -11 -9 -10 -9 -10 -10 -11 -13
3 3 3 3 3 2 1 -1 -2 -4 -5 -7 -7 -7 -8 -9 -11 -19 -15 -13 -12 -12 -13 -17 -22 -26 -26 -25 -23 -15 -9 -10 -9 -11 -11 -11 -10 -9 -10 -10 -11 -11 -10
3 3 3 3 3 2 1 -1 -3 -5 -7 -8 -7 -8 -8 -11 -20 -16 -13 -13 -12 -13 -15 -20 -26 -27 -26 -23 -20 -13 -9 -9 -10 -10 -11 -11 -10 -10 -11 -12 -11 -10 -11
3 3 3 3 2 0 -1 -2 -5 -7 -7 -7 -7 -7 -12 -21 -17 -14 -14 -13 -12 -14 -20 -25 -26 -26 -25 -22 -20 -14 -10 -10 -10 -10 -10 -10 -12 -15 -16 -14 -11 -12 -12
2 2 2 1 -1 -3 -4 -4 -6 -7 -7 -6 -7 -13 -22 -19 -16 -15 -14 -12 -13 -19 -24 -25 -24 -23 -22 -20 -14 -11 -11 -10 -10 -11 -11 -14 -15 -16 -14 -13 -13 -12 -12
1 1 0 -2 -4 -5 -5 -6 -6 -6 -6 -7 -13 -22 -20 -17 -17 -15 -13 -12 -18 -23 -23 -23 -22 -19 -18 -14 -10 -10 -10 -10 -11 -11 -14 -15 -16 -16 -13 -13 -12 -12 -11
-2 -2 -3 -3 -5 -5 -6 -6 -6 -6 -7 -14 -22 -21 -18 -18 -17 -13 -12 -17 -23 -25 -24 -23 -22 -21 -19 -12 -11 -10 -10 -11 -11 -13 -15 -15 -15 -15 -12 -12 -12 -11 -11

GFSMW_850_dewp_027.txt.gz
Dewpoint
2 3 4 3 3 3 3 2 2 2 2 3 9 12 13 13 12 12 11 12 11 10 9 8 -3 -4 -3 -2 -3 -5 -8 -11 -12 -13 -15 -17 -17 -19 -15 -12 -19 -22 -22
0 1 2 3 4 3 3 2 2 2 2 5 8 12 12 13 12 12 12 11 10 10 4 -3 -3 -3 -1 -2 -2 -4 -7 -10 -12 -15 -18 -19 -19 -19 -20 -21 -21 -21 -22
-1 -2 0 1 2 3 3 2 2 2 4 6 11 13 13 12 12 12 11 10 8 5 -3 -3 -3 -1 -1 -2 -2 -3 -7 -10 -14 -18 -19 -18 -16 -20 -20 -20 -21 -22 -24
-2 -4 -3 1 2 2 3 2 2 3 5 9 12 12 12 11 11 11 11 9 7 -2 -3 -3 -1 -1 -1 -2 -2 -4 -7 -12 -16 -19 -20 -21 -20 -16 -15 -19 -20 -22 -22
-2 -3 -5 -1 1 2 3 2 2 4 6 11 13 13 12 11 11 11 9 5 3 -3 -3 -2 -1 -1 -2 -2 -3 -5 -10 -15 -18 -20 -20 -20 -20 -20 -18 -15 -19 -20 -20
-1 2 -0 -1 1 3 3 3 3 4 6 11 13 13 12 11 10 9 7 4 1 -3 -2 -2 -2 -2 -2 -2 -4 -7 -12 -16 -19 -20 -19 -19 -20 -20 -18 -14 -14 -13 -16
-5 -4 -0 2 2 3 3 3 4 5 6 10 12 12 12 11 9 7 6 4 -2 -3 -2 -2 -2 -2 -2 -3 -5 -10 -14 -18 -20 -19 -19 -21 -21 -20 -19 -17 -14 -12 -13
-4 -2 -2 2 2 3 3 3 4 6 7 9 11 12 11 9 8 7 5 -1 -3 -2 -2 -2 -2 -2 -3 -4 -8 -13 -17 -19 -19 -19 -21 -21 -21 -20 -18 -16 -13 -13 -13
-3 -2 1 3 3 3 3 3 5 7 7 9 11 11 10 9 6 4 -2 -3 -3 -2 -2 -2 -2 -2 -4 -6 -11 -17 -19 -18 -18 -20 -21 -21 -21 -20 -18 -16 -14 -11 -11
0 -2 2 3 3 4 5 6 7 8 9 10 10 10 9 5 4 -1 -4 -4 -3 -2 -2 -2 -2 -4 -6 -10 -16 -19 -17 -18 -19 -20 -21 -21 -20 -19 -18 -15 -13 -12 -10
2 -0 -1 2 3 5 7 8 9 10 11 10 9 9 6 3 -3 -4 -4 -3 -3 -2 -2 -3 -3 -5 -9 -15 -18 -16 -17 -18 -19 -20 -21 -21 -19 -19 -18 -16 -15 -13 -11
3 2 2 3 4 7 9 10 10 11 10 9 8 6 1 -3 -4 -5 -4 -3 -3 -3 -3 -3 -5 -9 -14 -18 -15 -16 -17 -18 -20 -21 -22 -22 -21 -21 -20 -18 -16 -13 -10
5 5 5 5 6 8 10 10 10 10 9 6 3 -1 -3 -4 -5 -4 -4 -3 -3 -3 -4 -5 -8 -13 -17 -15 -15 -16 -17 -19 -21 -22 -22 -21 -20 -18 -17 -15 -11 -10 -9
4 5 5 6 7 9 10 10 9 8 6 1 -2 -3 -4 -5 -5 -4 -4 -4 -4 -4 -5 -8 -11 -16 -14 -14 -15 -16 -19 -21 -23 -23 -20 -19 -16 -15 -13 -9 -9 -8 -9
4 4 4 5 7 8 9 8 8 5 2 -1 -3 -4 -5 -5 -5 -5 -5 -4 -5 -6 -8 -11 -16 -13 -13 -13 -15 -18 -22 -24 -24 -23 -21 -17 -14 -13 -9 -9 -9 -9 -9
5 4 3 5 7 7 7 6 5 3 0 -2 -4 -5 -5 -5 -6 -5 -5 -5 -6 -8 -11 -15 -13 -12 -13 -14 -17 -23 -25 -25 -23 -20 -18 -15 -13 -12 -9 -9 -9 -8 -9
5 4 3 5 6 6 6 5 3 1 -2 -4 -5 -6 -6 -6 -6 -6 -6 -7 -8 -11 -15 -13 -12 -12 -14 -16 -22 -26 -26 -23 -21 -18 -15 -12 -11 -11 -10 -10 -9 -8 -8
4 3 3 3 4 4 3 2 -0 -3 -4 -6 -6 -7 -7 -7 -6 -6 -7 -8 -11 -15 -13 -12 -12 -13 -16 -21 -26 -27 -26 -23 -18 -15 -12 -10 -11 -10 -9 -9 -8 -10 -10
4 4 4 3 2 2 0 -1 -3 -5 -7 -7 -7 -7 -7 -7 -7 -7 -8 -11 -16 -13 -12 -12 -13 -15 -21 -26 -27 -27 -22 -17 -14 -12 -10 -10 -9 -9 -9 -9 -9 -10 -10
4 4 3 3 2 -0 -1 -3 -5 -7 -7 -7 -7 -7 -8 -7 -7 -8 -11 -16 -13 -13 -12 -13 -15 -21 -26 -27 -27 -24 -14 -12 -10 -9 -9 -10 -10 -9 -9 -9 -10 -10 -12
4 4 3 2 1 -1 -2 -4 -5 -6 -7 -7 -7 -8 -8 -7 -8 -12 -17 -14 -13 -13 -13 -13 -19 -26 -26 -26 -25 -23 -10 -9 -9 -9 -9 -10 -10 -9 -10 -10 -11 -11 -10
4 3 3 2 0 -1 -2 -4 -5 -6 -7 -7 -8 -7 -7 -7 -12 -18 -14 -14 -13 -13 -13 -18 -25 -27 -27 -26 -24 -19 -9 -9 -10 -9 -10 -10 -10 -11 -11 -12 -12 -10 -11
3 3 3 1 -1 -2 -3 -3 -5 -6 -7 -8 -7 -6 -7 -13 -19 -15 -15 -14 -13 -13 -18 -25 -27 -27 -27 -25 -21 -14 -11 -10 -10 -10 -10 -10 -13 -16 -16 -15 -12 -12 -12
2 2 2 1 -1 -3 -3 -3 -5 -7 -7 -6 -6 -7 -15 -20 -17 -16 -15 -13 -13 -18 -25 -26 -26 -26 -24 -22 -15 -11 -11 -10 -10 -11 -11 -15 -16 -16 -16 -13 -12 -12 -11
1 1 1 0 -2 -4 -5 -6 -7 -7 -6 -6 -8 -15 -21 -18 -17 -16 -14 -12 -17 -24 -26 -25 -24 -22 -19 -16 -10 -10 -10 -10 -11 -11 -14 -16 -16 -16 -14 -13 -12 -12 -11
-0 -1 -1 -2 -6 -6 -6 -7 -6 -6 -5 -8 -17 -21 -19 -18 -17 -14 -12 -17 -24 -25 -25 -24 -23 -22 -21 -18 -11 -10 -10 -11 -12 -14 -15 -15 -15 -15 -13 -12 -12 -11 -10

GFSMW_850_dewp_030.txt.gz
Dewpoint
1 2 3 3 4 1 1 3 2 2 2 5 12 12 12 12 13 12 12 12 11 11 11 9 9 -3 -4 -2 -2 -2 -3 -4 -7 -11 -13 -16 -18 -19 -16 -12 -14 -17 -20
-2 -1 2 3 4 4 3 3 3 2 2 5 6 11 12 12 13 13 13 12 11 11 10 6 -0 -3 -3 -1 -1 -1 -2 -4 -7 -13 -12 -11 -12 -13 -16 -18 -20 -18 -20
-4 -3 -2 1 3 4 4 3 3 2 3 5 9 8 11 12 13 13 12 12 11 10 7 -2 -3 -3 -1 -1 -1 -1 -2 -6 -8 -14 -16 -13 -12 -13 -14 -17 -18 -19 -17
-3 -3 -3 -2 0 2 2 3 3 3 3 4 4 6 9 13 13 12 12 11 10 9 -2 -3 -3 -2 -1 -1 -1 -2 -3 -6 -11 -14 -17 -19 -18 -14 -14 -13 -13 -14 -14
-5 -4 -3 -3 -1 1 -0 2 3 3 3 3 5 9 12 13 12 11 11 10 9 3 -3 -3 -2 -1 -1 -1 -1 -2 -4 -7 -13 -16 -18 -17 -15 -13 -13 -13 -14 -14 -13
-4 -3 -3 -1 -0 2 0 2 3 3 3 4 7 11 12 13 12 11 10 10 5 -1 -3 -3 -2 -1 -1 -1 -2 -3 -5 -10 -15 -18 -19 -18 -15 -15 -14 -15 -14 -13 -13
-5 -5 -2 1 2 3 1 3 3 3 3 6 9 12 12 13 11 10 10 9 3 -0 -2 -3 -2 -2 -2 -2 -3 -4 -8 -14 -18 -18 -18 -19 -19 -17 -14 -13 -13 -13 -13
1 -3 -3 -0 2 2 -0 3 4 4 4 7 10 12 12 12 11 10 10 5 3 -0 -3 -2 -2 -2 -2 -3 -4 -7 -12 -17 -18 -17 -19 -20 -19 -17 -13 -12 -11 -12 -13
2 1 -1 1 3 4 2 3 4 5 6 7 10 11 11 12 11 10 7 1 1 -2 -3 -2 -2 -2 -3 -4 -6 -11 -16 -17 -17 -18 -19 -19 -18 -17 -14 -12 -11 -11 -11
3 3 1 2 4 6 5 5 6 6 7 8 10 11 10 10 9 6 2 1 -3 -3 -3 -3 -3 -3 -4 -6 -9 -15 -16 -16 -17 -17 -18 -19 -17 -18 -15 -11 -11 -11 -11
4 4 2 4 6 7 8 6 7 7 7 8 9 11 10 9 6 5 -0 -4 -4 -3 -3 -3 -3 -4 -6 -8 -13 -16 -15 -15 -16 -18 -19 -20 -20 -18 -14 -11 -11 -11 -11
4 5 4 6 7 7 7 7 7 7 7 8 10 9 8 8 3 -2 -5 -5 -4 -3 -3 -3 -4 -5 -8 -12 -15 -14 -14 -15 -17 -19 -21 -21 -16 -18 -14 -12 -11 -11 -10
4 4 5 5 6 6 6 7 7 7 8 9 9 8 7 3 -3 -5 -5 -4 -4 -3 -4 -4 -5 -7 -12 -14 -13 -13 -14 -16 -18 -21 -22 -20 -18 -15 -11 -11 -10 -9 -9
4 4 4 5 5 5 5 6 8 9 9 8 8 6 1 -3 -6 -6 -5 -4 -4 -4 -5 -5 -7 -11 -14 -13 -13 -14 -15 -18 -20 -21 -21 -19 -17 -11 -10 -9 -9 -9 -9
5 4 3 3 4 3 3 8 9 8 7 6 4 0 -4 -6 -6 -5 -5 -5 -5 -5 -6 -7 -11 -13 -13 -13 -13 -16 -18 -17 -18 -19 -15 -13 -12 -16 -10 -8 -9 -9 -9
4 4 3 2 1 3 6 8 8 6 4 2 -1 -4 -5 -6 -5 -5 -5 -6 -6 -6 -8 -11 -13 -13 -12 -13 -15 -19 -23 -19 -17 -14 -12 -11 -10 -10 -9 -9 -9 -9 -8
4 4 2 1 -0 3 7 7 6 3 1 -3 -5 -5 -6 -6 -6 -6 -6 -6 -7 -8 -11 -13 -13 -12 -13 -14 -18 -24 -27 -19 -16 -12 -11 -10 -10 -9 -9 -9 -9 -8 -8
4 3 1 -0 2 4 4 5 3 0 -3 -5 -5 -6 -6 -6 -7 -7 -7 -7 -8 -11 -14 -13 -12 -13 -14 -18 -24 -27 -24 -14 -11 -10 -10 -9 -9 -10 -9 -9 -9 -9 -9
4 2 0 4 3 4 3 1 -2 -4 -4 -5 -6 -7 -7 -7 -7 -7 -7 -8 -12 -14 -13 -13 -13 -14 -18 -24 -27 -27 -18 -11 -10 -10 -10 -10 -10 -9 -9 -9 -9 -10 -11
2 0 2 3 4 3 2 1 -2 -5 -7 -7 -7 -8 -8 -7 -7 -7 -9 -13 -14 -13 -13 -13 -13 -16 -24 -27 -27 -26 -15 -11 -10 -10 -10 -10 -9 -10 -9 -9 -10 -10 -11
3 3 3 2 2 0 -1 -3 -6 -7 -8 -8 -8 -8 -8 -7 -8 -9 -14 -15 -14 -14 -13 -13 -16 -24 -26 -26 -26 -26 -15 -10 -10 -10 -10 -10 -10 -9 -10 -10 -10 -11 -10
3 2 2 1 -1 -2 -4 -6 -7 -7 -7 -7 -7 -7 -8 -8 -10 -15 -15 -14 -15 -14 -13 -16 -24 -25 -25 -25 -26 -24 -14 -9 -10 -10 -10 -10 -9 -10 -11 -12 -12 -10 -10
2 2 1 -1 -4 -5 -6 -5 -6 -7 -7 -7 -7 -8 -8 -11 -16 -16 -15 -16 -14 -13 -16 -24 -25 -23 -23 -21 -22 -17 -10 -10 -10 -10 -10 -10 -10 -14 -17 -16 -13 -12 -11
2 1 -1 -3 -5 -6 -6 -5 -7 -7 -7 -7 -8 -9 -12 -17 -17 -16 -16 -15 -13 -16 -24 -22 -21 -20 -18 -15 -13 -11 -10 -10 -10 -10 -10 -11 -15 -14 -14 -13 -12 -11 -11
1 0 -1 -3 -4 -6 -7 -6 -7 -8 -7 -7 -8 -11 -18 -19 -17 -17 -15 -13 -16 -24 -25 -24 -24 -19 -15 -13 -11 -10 -10 -10 -10 -10 -11 -12 -13 -12 -12 -12 -11 -11 -11
0 -1 -2 -4 -6 -6 -6 -8 -8 -8 -6 -6 -11 -19 -19 -18 -18 -15 -12 -16 -24 -25 -25 -25 -25 -25 -21 -16 -11 -10 -10 -10 -11 -12 -12 -12 -12 -12 -12 -12 -11 -11 -10

GFSMW_850_dewp_033.txt.gz
Dewpoint
-0 0 1 2 1 1 3 3 4 4 6 8 11 12 13 12 13 13 12 11 10 10 10 11 10 9 -2 -4 -2 -1 -1 -1 -3 -5 -9 -10 -11 -14 -9 -10 -10 -11 -13
-2 -2 -0 1 2 2 3 3 3 5 6 8 10 12 13 13 13 12 12 12 11 11 11 11 9 8 -3 -3 -1 -1 -1 -1 -3 -6 -9 -9 -10 -10 -13 -11 -14 -15 -15
-4 -4 -4 -2 0 2 2 3 4 5 6 9 11 12 13 13 13 12 12 12 12 11 11 11 8 -1 -3 -2 -1 -1 -1 -2 -3 -6 -11 -12 -10 -12 -13 -13 -12 -15 -13
-5 -4 -4 -5 -3 0 2 3 4 5 8 9 11 10 6 7 9 11 12 12 12 11 11 10 1 -3 -2 -1 -1 -1 -1 -2 -4 -8 -11 -16 -16 -12 -12 -12 -12 -12 -14
-6 -6 -4 -4 -4 -3 1 3 5 6 9 10 10 8 8 8 9 12 12 12 11 11 10 9 -2 -3 -2 -1 -1 -1 -1 -2 -6 -10 -15 -14 -13 -12 -12 -12 -13 -13 -13
-7 -6 -5 -5 -4 -3 -2 4 5 8 10 10 7 6 8 8 9 12 11 11 11 10 8 3 -3 -2 -2 -1 -1 -1 -2 -3 -7 -13 -16 -16 -15 -14 -13 -13 -14 -13 -14
-3 -1 -3 -5 -3 -2 -2 4 6 8 9 8 7 8 10 8 10 11 11 11 10 8 6 -2 -3 -2 -2 -2 -2 -2 -2 -5 -11 -16 -17 -17 -16 -15 -14 -13 -13 -12 -14
-1 1 2 -2 -3 0 1 3 8 8 8 6 9 10 10 9 11 11 11 10 9 7 0 -3 -3 -2 -2 -2 -2 -2 -4 -8 -14 -16 -16 -16 -17 -15 -14 -12 -11 -11 -11
1 2 2 1 -3 -1 3 5 8 8 8 8 9 10 9 11 11 11 10 9 8 1 -3 -3 -3 -2 -2 -2 -3 -4 -6 -11 -15 -15 -15 -15 -15 -14 -14 -14 -12 -10 -10
1 2 2 2 -1 0 3 6 7 8 7 9 9 8 9 11 11 11 9 8 3 -0 -3 -3 -3 -2 -3 -3 -4 -5 -9 -14 -15 -15 -15 -15 -15 -16 -16 -13 -11 -11 -10
1 2 3 2 1 2 4 7 7 7 7 8 6 8 10 10 10 9 7 6 -1 -2 -4 -3 -3 -3 -3 -4 -5 -8 -13 -14 -14 -14 -14 -16 -17 -16 -15 -15 -13 -12 -11
2 3 4 4 5 5 7 8 7 7 7 5 4 8 10 10 10 6 6 -2 -2 -4 -4 -3 -3 -4 -4 -5 -8 -12 -13 -13 -14 -14 -15 -16 -15 -15 -16 -13 -11 -11 -10
2 3 4 5 6 7 8 7 6 5 4 3 4 9 8 8 6 4 -0 -2 -4 -4 -4 -4 -4 -4 -5 -7 -12 -13 -13 -13 -14 -15 -16 -17 -15 -14 -13 -11 -10 -9 -9
0 4 4 5 5 6 6 6 4 3 2 3 5 7 6 6 5 0 -4 -5 -5 -5 -4 -4 -5 -5 -7 -12 -13 -13 -13 -14 -15 -14 -14 -14 -13 -12 -11 -11 -9 -8 -9
1 4 4 4 5 5 5 3 -0 -0 2 5 5 5 4 1 -3 -5 -5 -5 -4 -4 -5 -5 -5 -8 -12 -13 -13 -13 -15 -17 -17 -17 -14 -12 -12 -12 -9 -8 -8 -9 -9
-0 4 3 3 4 4 1 -1 -1 1 3 4 4 3 -1 -3 -6 -6 -5 -4 -3 -5 -6 -6 -8 -12 -13 -13 -13 -14 -18 -23 -20 -15 -15 -13 -11 -10 -9 -8 -9 -9 -9
3 4 3 3 2 -1 -0 -1 0 3 3 3 -2 -2 -3 -6 -3 -4 -5 -5 -5 -6 -7 -8 -12 -13 -13 -13 -14 -17 -24 -26 -19 -16 -12 -10 -10 -10 -9 -10 -9 -9 -9
5 4 2 1 -2 -2 -1 -2 -1 1 2 0 -2 -2 -5 -5 -5 -6 -6 -6 -6 -7 -9 -12 -13 -13 -13 -14 -18 -24 -26 -23 -16 -12 -10 -10 -10 -10 -9 -9 -10 -10 -10
4 3 0 -2 -3 -3 -3 -2 -1 -1 0 2 2 -2 -2 -3 -6 -7 -6 -6 -8 -10 -13 -13 -13 -13 -15 -17 -25 -26 -26 -20 -13 -11 -11 -10 -10 -10 -9 -9 -8 -9 -11
1 -1 -3 -3 -3 -3 -3 -1 1 2 -0 -3 -4 -6 -7 -7 -7 -6 -6 -8 -10 -14 -14 -14 -13 -13 -18 -24 -25 -25 -26 -14 -11 -11 -11 -10 -10 -9 -9 -9 -9 -10 -11
-0 -1 -1 -1 -1 -0 2 1 -0 -1 -1 -6 -8 -8 -7 -6 -6 -7 -9 -12 -14 -14 -14 -14 -14 -17 -22 -23 -23 -25 -23 -12 -10 -10 -10 -10 -10 -9 -9 -9 -10 -10 -10
-4 -3 -4 -5 -6 -6 -7 -9 -8 -8 -8 -8 -8 -7 -7 -7 -8 -9 -13 -15 -15 -15 -14 -13 -17 -19 -16 -17 -17 -20 -15 -10 -9 -10 -10 -10 -9 -9 -10 -10 -10 -10 -10
-1 -2 -2 -5 -7 -7 -6 -6 -8 -8 -8 -7 -7 -7 -8 -8 -10 -14 -16 -16 -16 -14 -13 -18 -19 -18 -17 -17 -14 -12 -10 -9 -10 -10 -9 -9 -10 -10 -11 -12 -10 -10 -11
-3 -2 -2 -5 -6 -6 -6 -5 -6 -7 -7 -7 -7 -7 -8 -11 -16 -17 -17 -16 -14 -14 -19 -20 -20 -21 -20 -16 -13 -17 -13 -10 -11 -10 -11 -10 -11 -12 -12 -12 -12 -11 -11
-4 -5 -4 -5 -6 -7 -6 -6 -7 -7 -7 -7 -7 -8 -12 -17 -18 -17 -16 -13 -13 -20 -25 -25 -24 -25 -23 -20 -21 -15 -11 -10 -10 -10 -12 -13 -13 -13 -12 -12 -12 -11 -11
-4 -4 -5 -6 -7 -7 -7 -7 -8 -8 -7 -6 -8 -13 -18 -18 -18 -16 -13 -13 -20 -25 -24 -24 -25 -27 -25 -22 -20 -13 -10 -10 -10 -12 -13 -13 -12 -12 -12 -12 -11 -11 -10

GFSMW_850_dewp_036.txt.gz
Dewpoint
0 0 0 1 -1 -1 1 4 4 4 4 10 12 13 13 13 12 12 11 12 11 10 9 9 9 10 9 6 -4 -2 -1 -1 -1 -2 -4 -9 -10 -11 -12 -15 -12 -13 -12
-1 -1 -1 0 1 1 0 -0 4 4 4 4 8 12 13 12 12 12 13 12 12 10 10 10 10 10 9 1 -4 -1 -1 -1 -1 -2 -5 -9 -9 -10 -10 -12 -12 -12 -14
-3 -2 -2 -2 -1 1 2 1 1 3 4 4 7 11 13 12 12 12 12 12 12 11 10 10 11 10 8 -2 -2 -1 -1 -1 -1 -2 -5 -11 -10 -11 -14 -13 -13 -13 -13
-4 -4 -4 -4 -3 -1 0 1 2 3 3 4 8 11 12 11 12 12 13 12 12 11 11 11 11 10 5 -3 -2 -1 -1 -1 -1 -2 -5 -11 -14 -16 -16 -14 -13 -14 -13
-6 -6 -5 -5 -5 -4 -2 -0 1 3 3 5 8 11 12 11 10 11 12 11 11 11 10 11 11 8 -0 -2 -1 -1 -1 -1 -1 -2 -7 -12 -15 -15 -13 -13 -15 -15 -15
-7 -6 -6 -5 -4 -4 -4 -2 2 2 4 7 9 11 10 9 10 11 12 12 11 10 10 10 9 4 3 -2 -1 -1 -1 -1 -1 -3 -8 -13 -15 -15 -14 -14 -15 -16 -16
-6 -3 -1 -0 -0 -4 -4 -4 -3 4 3 8 10 12 11 10 8 8 8 10 10 10 10 9 6 4 -2 -2 -2 -2 -2 -1 -2 -5 -10 -14 -16 -15 -15 -15 -15 -14 -16
-5 -0 1 2 2 1 -4 -3 -3 5 5 8 11 11 11 9 7 6 8 11 10 10 8 8 4 -2 -2 -2 -2 -2 -2 -2 -3 -7 -12 -14 -15 -15 -15 -15 -13 -13 -15
-1 1 1 2 2 2 -3 -2 -2 5 7 10 10 11 9 8 8 7 10 11 10 9 8 5 -2 -3 -2 -2 -2 -2 -2 -3 -6 -10 -13 -14 -14 -15 -15 -15 -14 -12 -10
1 1 1 1 0 2 -1 -0 1 4 8 10 10 9 9 9 9 9 11 10 9 7 6 1 -3 -3 -3 -3 -3 -3 -3 -5 -10 -13 -14 -14 -14 -15 -16 -17 -17 -15 -12
1 1 2 1 1 2 0 0 3 6 8 9 9 10 10 10 9 9 9 9 8 6 0 -3 -3 -3 -3 -3 -3 -3 -5 -8 -12 -13 -13 -14 -14 -16 -17 -18 -18 -17 -13
-1 1 2 3 2 4 3 3 4 7 8 9 9 10 9 8 9 8 7 6 4 -0 -3 -4 -4 -3 -4 -4 -4 -5 -7 -11 -13 -13 -13 -14 -15 -17 -18 -18 -16 -12 -11
-2 1 3 3 4 6 6 6 7 7 8 8 9 9 7 7 6 6 3 -0 1 1 -4 -4 -4 -4 -4 -4 -5 -8 -12 -13 -13 -13 -14 -16 -17 -18 -17 -14 -12 -12 -12
-3 2 3 4 5 6 7 7 7 7 7 8 7 6 6 5 5 2 0 3 2 -4 -4 -4 -4 -4 -5 -5 -8 -12 -13 -13 -14 -15 -17 -17 -16 -14 -12 -11 -10 -9 -9
-3 2 4 4 5 6 7 7 6 5 5 3 3 4 4 4 2 2 -2 -3 -5 -4 -4 -4 -4 -4 -4 -8 -12 -13 -13 -14 -16 -20 -22 -17 -14 -12 -10 -9 -9 -8 -8
-1 2 4 4 4 6 5 4 4 3 2 1 1 -0 1 1 -1 -3 -3 -1 -3 -4 -4 -4 -4 -4 -7 -12 -13 -13 -14 -17 -22 -24 -20 -17 -15 -13 -10 -9 -8 -8 -8
3 4 3 3 5 2 1 1 0 -1 -1 -2 -4 -3 -1 -2 -2 -1 -2 -5 -6 -3 -4 -6 -6 -8 -12 -13 -13 -14 -17 -23 -24 -22 -18 -14 -12 -12 -11 -10 -9 -9 -9
3 4 3 3 3 1 1 -0 -3 -5 -5 -6 -5 -3 -3 -3 -1 -4 -3 0 -3 -6 -6 -6 -11 -12 -13 -14 -14 -18 -23 -24 -24 -20 -14 -11 -11 -10 -9 -9 -9 -9 -10
4 3 3 2 1 -1 -4 -4 -6 -7 -6 -7 -6 -4 0 1 2 0 -5 -7 -6 -6 -8 -6 -13 -14 -14 -14 -17 -24 -24 -24 -25 -20 -15 -13 -11 -10 -9 -8 -10 -10 -9
3 1 0 -2 -4 -5 -5 -4 -5 -4 -1 1 2 1 1 1 -6 -8 -6 -7 -8 -3 -9 -14 -14 -14 -14 -18 -22 -22 -23 -24 -24 -22 -17 -14 -9 -9 -9 -9 -8 -8 -10
-4 -5 -5 -5 -4 -4 -3 -3 -1 1 2 2 2 -0 -5 -9 -7 -7 -7 -3 -7 -14 -15 -15 -14 -14 -18 -20 -20 -21 -21 -17 -12 -11 -11 -11 -9 -9 -9 -9 -9 -9 -10
-2 -3 -2 -2 -2 -1 1 2 2 1 2 2 -2 -7 -8 -7 -8 -6 -7 -13 -15 -16 -15 -14 -15 -18 -18 -17 -18 -14 -11 -9 -10 -10 -10 -10 -9 -9 -9 -9 -10 -10 -9
-1 0 0 0 1 1 3 3 2 -3 -8 -8 -8 -7 -9 -10 -8 -10 -15 -16 -16 -15 -13 -15 -19 -20 -20 -20 -18 -17 -17 -20 -13 -11 -10 -9 -10 -10 -11 -13 -11 -11 -12
-8 -9 -9 -8 -8 -7 -7 -8 -10 -9 -9 -9 -10 -9 -7 -8 -13 -17 -17 -17 -15 -13 -17 -22 -24 -24 -24 -24 -25 -25 -22 -18 -14 -11 -10 -11 -13 -14 -13 -14 -14 -12 -11
-8 -8 -7 -8 -8 -9 -9 -9 -9 -8 -8 -7 -7 -8 -9 -15 -18 -18 -17 -14 -13 -18 -24 -24 -23 -24 -27 -28 -22 -14 -12 -11 -10 -9 -11 -15 -15 -15 -15 -14 -12 -11 -11
-6 -6 -7 -8 -8 -8 -10 -10 -9 -8 -7 -6 -7 -11 -16 -19 -18 -17 -13 -13 -20 -23 -23 -23 -25 -29 -26 -22 -17 -15 -10 -10 -10 -11 -13 -14 -14 -14 -14 -12 -11 -11 -10

GFSMW_850_dewp_039.txt.gz
Dewpoint
0 0 -0 -0 -1 -2 -2 -1 2 6 9 10 11 12 13 12 12 11 12 11 11 11 10 10 9 9 9 9 8 -3 -3 -1 -1 -1 -2 -5 -7 -10 -11 -12 -13 -13 -13
-2 -1 -1 -0 0 0 -1 -2 -0 4 6 10 10 9 10 11 12 11 11 11 11 11 11 10 9 9 9 9 8 -3 -2 -1 -1 -1 -1 -5 -6 -8 -10 -12 -13 -13 -13
-3 -3 -2 -2 -1 -1 -0 1 0 1 5 6 9 9 9 11 12 12 11 11 11 11 11 11 9 9 10 9 6 -3 -1 -1 -1 -1 -1 -5 -8 -10 -12 -13 -12 -12 -13
-4 -4 -4 -3 -3 -2 -2 -1 -0 1 1 4 6 7 9 10 11 9 11 11 11 11 12 11 10 10 10 8 4 -3 -1 -1 -1 -1 -1 -2 -6 -10 -14 -14 -14 -13 -13
-5 -5 -6 -5 -5 -5 -3 -3 -2 -1 0 3 4 4 5 9 10 10 10 11 10 10 11 11 10 10 10 9 -1 -2 -1 -1 -1 -1 -1 -3 -7 -11 -14 -14 -15 -15 -16
-6 -5 -5 -4 -4 -4 -4 -4 -4 -0 -1 0 4 4 4 5 9 10 9 9 10 10 11 11 10 10 10 7 -2 -1 -1 -1 -1 -1 -2 -4 -8 -13 -15 -15 -15 -15 -16
-6 -6 -4 -3 -2 -1 0 -1 -5 -5 -1 1 2 5 5 6 7 7 8 8 10 11 11 10 10 10 6 3 1 -1 -2 -2 -2 -2 -3 -6 -11 -14 -15 -15 -15 -15 -15
-6 -5 -2 -0 -0 -2 -2 -0 1 -4 -5 2 3 4 6 8 8 8 8 10 10 10 10 10 10 7 5 2 -2 -2 -2 -2 -2 -3 -5 -9 -13 -14 -14 -14 -14 -14 -16
-0 -0 0 -1 -8 -9 -8 0 1 -2 -4 -3 5 5 7 10 9 9 10 11 11 11 10 9 9 5 2 -3 -2 -2 -2 -2 -3 -4 -7 -11 -14 -14 -14 -14 -15 -14 -12
1 1 1 -0 -3 -5 -6 1 1 -2 -3 -1 6 8 8 9 9 10 10 8 9 10 10 9 6 3 -2 -3 -3 -2 -2 -3 -3 -6 -10 -13 -13 -14 -14 -15 -16 -16 -14
1 1 -0 -1 -3 -6 -4 1 -0 -0 -0 4 7 8 9 8 9 10 8 7 9 10 9 7 6 -0 -2 -3 -3 -3 -3 -4 -7 -10 -13 -13 -13 -14 -15 -17 -18 -18 -16
-1 -0 1 -0 -3 -3 -3 4 2 2 2 5 8 9 10 10 10 9 8 9 9 8 7 4 -1 -4 -4 -4 -4 -4 -4 -6 -10 -13 -13 -13 -14 -15 -17 -18 -17 -16 -15
-4 -0 1 -1 -1 -1 -1 6 5 4 5 6 8 9 9 9 9 9 8 8 7 6 2 0 -4 -3 -3 -4 -4 -4 -5 -9 -12 -13 -14 -15 -16 -18 -18 -17 -16 -14 -12
-0 -0 1 1 1 2 3 7 6 5 5 8 7 8 8 8 8 8 6 4 4 2 -3 -6 -6 -5 -3 -3 -6 -6 -7 -13 -13 -14 -16 -18 -20 -17 -16 -14 -12 -9 -9
-1 0 2 2 3 3 6 7 7 7 7 8 8 8 7 6 5 3 2 -0 -3 -4 -6 -2 1 -1 -4 -2 -7 -8 -13 -14 -14 -16 -21 -22 -20 -16 -14 -11 -9 -8 -8
3 4 3 4 3 4 6 6 5 7 7 7 7 6 4 1 0 -3 -3 -2 -2 -2 -3 -3 -2 -3 -7 -10 -13 -13 -12 -12 -17 -21 -22 -21 -19 -17 -15 -11 -9 -8 -8
4 3 4 4 3 3 5 3 2 2 3 4 3 1 0 -1 -2 -3 -3 -1 -2 1 1 -1 -4 -2 -10 -13 -9 -13 -14 -17 -21 -22 -22 -22 -19 -14 -11 -12 -9 -9 -8
3 3 4 3 3 3 2 2 1 1 1 -1 -2 -3 -3 -4 -5 -3 0 1 0 -1 -1 -3 -7 -9 -4 -13 -14 -14 -18 -21 -22 -23 -24 -22 -17 -14 -13 -9 -8 -8 -9
4 4 3 2 1 1 1 1 -1 -2 -4 -5 -6 -5 -5 -1 1 1 1 1 1 -1 -7 -11 -8 -13 -14 -14 -15 -18 -22 -22 -22 -25 -24 -19 -17 -15 -8 -8 -8 -9 -9
1 1 -0 -1 -0 -1 -2 -2 -4 -6 -4 -3 -2 -1 0 1 2 2 1 -4 -9 -11 -9 -13 -14 -14 -14 -15 -19 -21 -21 -22 -22 -22 -22 -20 -14 -9 -8 -8 -8 -8 -9
-0 -1 -1 -2 -3 -4 -3 -5 -5 -1 -2 -1 0 1 1 0 -2 -7 -9 -10 -9 -11 -14 -15 -14 -14 -16 -20 -21 -21 -19 -15 -14 -15 -20 -18 -14 -9 -9 -9 -9 -10 -10
-3 -4 -3 -3 -2 -2 -1 -2 -0 -0 1 1 2 -0 -2 -3 -7 -9 -3 -4 -14 -15 -16 -14 -14 -17 -20 -20 -20 -19 -15 -11 -13 -19 -17 -13 -9 -9 -10 -10 -10 -10 -10
0 -1 -1 -2 -1 -0 0 0 1 1 1 0 -2 -7 -10 -11 -7 -7 -13 -16 -16 -15 -14 -14 -19 -22 -22 -23 -24 -25 -23 -21 -18 -16 -10 -9 -10 -12 -16 -16 -12 -13 -12
1 1 1 1 0 0 1 2 1 1 -5 -9 -10 -7 -4 -7 -12 -15 -17 -17 -16 -13 -16 -22 -23 -23 -23 -26 -27 -22 -21 -18 -13 -10 -9 -10 -13 -17 -17 -16 -13 -12 -11
-1 1 1 1 0 0 -1 -5 -8 -9 -9 -9 -8 -8 -9 -13 -17 -18 -18 -14 -14 -19 -23 -22 -23 -26 -28 -25 -20 -15 -12 -10 -10 -9 -13 -16 -17 -17 -15 -12 -11 -11 -11
-6 -7 -7 -7 -8 -9 -9 -10 -10 -9 -8 -7 -7 -9 -15 -18 -18 -16 -13 -16 -21 -22 -22 -25 -29 -22 -19 -15 -13 -10 -10 -10 -11 -15 -16 -16 -16 -15 -12 -11 -11 -11 -10

GFSMW_850_dewp_042.txt.gz
Dewpoint
-0 -0 0 -0 -1 -1 -2 -1 -2 -0 8 11 10 11 11 12 12 12 12 12 12 12 10 9 10 10 10 9 8 8 5 -4 -1 -1 -2 -3 -6 -7 -10 -11 -12 -12 -12
-2 -2 -1 -1 -0 -0 -1 -1 -2 -2 -1 7 9 10 9 9 10 11 12 11 11 12 10 10 10 10 10 9 9 8 4 -3 -1 -1 -1 -3 -5 -7 -8 -10 -12 -12 -12
-4 -6 -5 -3 -2 -2 -1 0 -0 -1 -2 2 7 9 10 9 10 10 11 12 11 11 9 9 10 10 10 9 9 8 4 -3 -1 -1 -1 -2 -4 -5 -7 -11 -12 -11 -11
-4 -5 -5 -4 -4 -3 -2 -1 -1 -0 1 1 8 8 9 9 9 8 9 11 11 11 8 9 11 11 10 9 9 8 0 -2 -1 -1 -1 -1 -2 -5 -9 -11 -12 -12 -12
-6 -6 -5 -5 -4 -4 -4 -4 -3 -2 -2 1 1 7 9 8 8 7 8 9 10 10 9 8 9 11 11 9 10 9 1 -2 -1 -1 -1 -1 -2 -3 -7 -11 -12 -13 -14
-7 -6 -5 -4 -4 -5 -5 -5 -4 -4 -3 -3 0 1 3 10 8 8 8 8 9 9 9 9 9 11 11 10 9 8 2 -1 -1 -1 -1 -2 -2 -4 -8 -12 -13 -14 -15
-6 -5 -4 -4 -4 -4 -3 -4 -4 -4 -4 -4 -4 -0 2 2 8 8 7 7 8 9 9 9 10 11 10 9 9 8 -1 -0 -1 -1 -2 -2 -4 -7 -10 -13 -14 -14 -15
-6 -3 -3 -3 -3 -3 -4 -4 -5 -5 -5 -5 -5 -3 -0 2 4 7 6 7 6 7 7 8 10 10 10 8 8 3 1 0 -1 -2 -3 -3 -6 -9 -13 -14 -14 -14 -15
-6 -2 0 0 -1 -6 -8 -9 -9 -8 -5 -3 -4 -4 -3 1 2 5 6 7 7 7 8 10 10 9 8 8 6 2 2 -3 -2 -2 -3 -5 -7 -11 -13 -14 -14 -14 -13
-1 -0 1 -0 -1 -1 -3 -5 -7 -8 -6 -0 -1 -4 -3 2 3 5 7 7 7 8 10 10 10 8 7 7 3 2 -3 -1 -4 -4 -5 -7 -10 -13 -13 -14 -14 -15 -15
-0 -0 -1 1 0 -3 -5 -5 -8 -7 -1 -1 -3 -3 -2 3 8 7 7 8 8 9 10 10 9 7 6 2 -0 -1 -4 -3 -4 -4 -6 -10 -12 -13 -14 -14 -16 -17 -16
3 3 2 0 0 -2 -3 -4 -4 -5 -1 1 -2 -0 3 7 9 8 8 9 10 10 9 8 7 5 1 -0 -1 -1 -1 -7 -8 -8 -11 -12 -13 -14 -15 -17 -18 -17 -17
4 3 2 1 1 -2 -3 -3 -4 -2 4 3 3 5 7 9 9 9 9 9 8 7 8 6 3 0 1 -3 -5 -5 -4 -7 -10 -10 -11 -12 -14 -16 -18 -19 -17 -17 -15
3 2 2 2 3 0 -1 -2 -3 2 6 6 5 6 7 9 9 9 8 8 7 6 4 1 1 -2 -4 -2 0 -3 -2 0 -1 -9 -13 -14 -18 -20 -19 -17 -16 -13 -11
3 4 1 4 3 2 1 1 4 6 7 7 7 8 8 8 7 7 6 5 5 3 2 -1 -1 -2 -3 -2 0 1 0 -4 -14 -10 -10 -20 -21 -20 -17 -14 -12 -10 -10
4 3 4 4 3 3 2 5 5 4 4 4 5 6 6 6 4 5 4 2 1 -1 -1 -1 -2 -0 0 1 1 -4 -13 -8 -6 -18 -21 -22 -21 -20 -18 -15 -12 -9 -8
2 4 3 4 3 4 3 3 3 3 3 3 4 5 3 4 3 1 -1 -2 -2 -5 -4 -1 1 1 1 1 -1 -7 -3 -15 -19 -22 -22 -22 -23 -21 -18 -17 -17 -12 -9
3 3 3 3 2 2 2 3 2 2 3 3 2 1 0 1 -3 -3 -2 -1 -1 0 1 0 0 -1 -3 -5 -4 -14 -16 -20 -22 -21 -22 -23 -22 -23 -21 -14 -9 -8 -9
2 3 2 1 1 1 1 1 1 2 2 -0 -3 -4 -4 -4 -2 -1 0 0 1 0 -0 0 -0 -2 -8 -14 -14 -16 -20 -20 -20 -21 -21 -20 -25 -23 -9 -8 -8 -8 -9
-3 -2 -2 -2 -1 -0 -0 -0 -2 -3 -4 -5 -4 -1 0 0 1 0 0 -0 -0 -1 -7 -10 -12 -14 -14 -15 -17 -19 -20 -20 -20 -20 -24 -26 -23 -16 -9 -8 -8 -9 -10
-3 -2 -3 -2 -2 -2 -4 -3 -4 -3 -2 -1 -0 -0 -0 0 0 0 -0 -2 -8 -11 -11 -14 -15 -14 -15 -17 -18 -20 -15 -13 -18 -24 -27 -24 -18 -9 -8 -9 -9 -11 -10
-3 -3 -3 -4 -3 -3 -4 -3 -1 -0 -0 -0 -0 -0 -0 -0 -2 -9 -10 -8 -11 -14 -15 -15 -14 -15 -18 -20 -20 -21 -22 -23 -24 -24 -20 -14 -9 -9 -10 -15 -17 -10 -10
-1 -1 -1 -1 -1 -1 -0 0 0 0 -0 -1 -0 -0 -1 -7 -10 -3 -7 -14 -15 -15 -15 -14 -17 -20 -21 -22 -23 -26 -27 -24 -20 -14 -10 -9 -11 -14 -17 -18 -17 -14 -12
1 1 1 1 0 0 1 1 0 0 0 -1 -6 -9 -9 -9 -10 -14 -15 -16 -15 -14 -15 -20 -23 -22 -23 -26 -28 -25 -22 -17 -12 -10 -11 -12 -15 -17 -17 -16 -12 -11 -11
1 1 1 1 1 1 1 1 1 -2 -7 -7 -6 -8 -11 -13 -15 -16 -16 -15 -14 -17 -22 -22 -23 -26 -27 -24 -21 -16 -13 -10 -10 -10 -15 -18 -19 -19 -15 -12 -11 -11 -11
1 1 1 1 1 1 -3 -7 -8 -9 -8 -9 -11 -12 -14 -17 -17 -17 -14 -14 -19 -21 -22 -25 -29 -26 -22 -16 -18 -17 -11 -13 -13 -16 -17 -18 -18 -14 -12 -11 -11 -11 -10

GFSMW_850_dewp_045.txt.gz
Dewpoint
-0 -0 -0 -0 -0 -0 -2 -2 -1 -1 -1 1 10 11 11 11 11 12 11 10 10 11 11 10 8 9 9 9 10 9 8 8 1 -3 -1 -2 -4 -6 -7 -9 -11 -11 -11
-1 -1 -1 -1 -1 -0 0 -0 -2 -2 -1 -1 1 8 10 10 10 10 10 10 11 11 9 11 9 9 9 10 10 10 8 8 -0 -2 -1 -2 -4 -5 -6 -7 -9 -10 -11
-4 -5 -5 -5 -5 -3 -1 -1 -0 -0 -1 -1 -0 5 10 11 10 10 10 11 11 11 9 9 10 9 9 10 10 10 9 8 3 -2 -1 -2 -2 -5 -6 -6 -9 -11 -11
-6 -5 -5 -5 -5 -5 -5 -3 -2 -2 -1 0 0 -0 1 7 10 9 9 9 10 9 9 9 8 10 10 10 10 10 9 9 3 -2 -1 -1 -1 -3 -4 -6 -9 -11 -10
-7 -7 -7 -6 -5 -5 -4 -4 -4 -3 -2 -2 -1 1 4 5 7 8 9 9 8 9 9 8 8 9 10 10 11 10 9 9 5 -2 -1 -1 -1 -2 -3 -6 -8 -10 -11
-7 -7 -6 -6 -6 -6 -6 -5 -5 -4 -4 -3 -3 -2 1 6 8 10 9 9 8 8 8 9 9 8 9 10 11 10 9 9 7 -1 -1 -1 -2 -2 -3 -5 -8 -10 -12
-6 -5 -4 -3 -3 -4 -5 -5 -5 -5 -5 -5 -4 -4 -3 1 3 4 7 9 8 8 7 7 8 8 8 10 11 9 8 6 4 3 -1 -1 0 -1 -4 -6 -9 -11 -12
-2 -3 -2 -0 -0 -1 -2 -3 -4 -4 -4 -4 -4 -4 -4 -4 -2 1 2 5 8 8 7 7 8 8 7 10 10 8 7 4 5 -2 1 1 -0 -3 -5 -7 -10 -13 -14
-1 -1 -0 -1 -1 -0 -4 -3 -4 -7 -8 -7 -7 -6 -5 -3 -4 -4 0 2 5 7 8 8 7 7 9 10 9 7 3 2 0 2 -2 -2 -5 -6 -9 -11 -12 -14 -14
3 3 3 2 2 -1 0 -2 -4 -5 -6 -7 -7 -7 -6 -3 -2 -4 -3 2 3 6 8 8 7 9 10 9 8 4 1 1 -0 -1 -2 -2 -6 -8 -11 -13 -13 -14 -14
3 4 4 4 3 2 1 -1 -4 -5 -5 -6 -8 -6 -2 -1 -2 -3 -0 3 7 8 7 9 9 9 9 7 4 1 2 -0 -2 -2 -5 -6 -8 -11 -13 -13 -14 -15 -16
4 4 3 2 2 2 1 0 -2 -3 -4 -4 -5 -2 -0 -1 1 0 5 8 8 10 10 9 9 9 7 2 2 1 -2 -2 -1 0 1 -6 -12 -13 -10 -4 -9 -16 -17
4 3 3 2 2 2 2 1 -1 -3 -3 -4 1 5 3 2 5 6 9 9 9 9 9 9 9 6 1 1 -2 -2 -1 -0 -2 -5 -8 -6 -3 -0 -3 -13 -17 -17 -16
4 4 4 2 2 3 2 2 0 -0 -0 1 6 7 8 7 8 8 8 8 8 8 8 7 6 2 1 -1 -2 -1 -0 -1 -2 -1 0 1 -0 -5 -17 -19 -18 -17 -14
3 3 4 4 3 3 3 2 2 4 5 6 7 6 7 7 8 7 7 7 7 7 6 5 -0 -1 -1 -0 -1 -1 1 1 0 1 -0 -2 -12 -20 -20 -18 -14 -12 -10
-0 3 4 4 4 3 3 3 3 4 3 4 5 5 5 6 6 6 5 4 4 4 1 -2 -2 -1 -1 -0 0 1 1 1 0 -1 -12 -20 -21 -21 -20 -19 -16 -13 -9
-2 2 3 4 3 3 3 2 2 2 2 3 1 1 1 2 2 2 0 -1 -1 -1 -1 -0 0 0 0 0 -0 0 0 -3 -15 -19 -21 -22 -21 -21 -22 -22 -21 -16 -12
-1 3 3 3 3 2 2 2 2 2 2 2 2 1 1 2 -0 0 0 -1 -1 -1 -1 -0 0 0 0 0 -1 -6 -15 -17 -19 -20 -20 -20 -21 -22 -25 -19 -12 -10 -10
-2 0 1 1 0 0 1 1 2 2 2 1 2 0 0 -1 -2 -2 -2 -1 -1 -0 -0 -1 -0 0 -1 -4 -13 -15 -17 -19 -19 -19 -19 -20 -22 -25 -24 -15 -9 -8 -10
-2 -1 -1 -1 -2 -1 -1 -1 -2 -3 -3 -3 -2 -3 -3 -2 -1 -1 -0 -0 -0 -0 -0 -0 -1 -9 -14 -15 -16 -18 -19 -19 -19 -19 -20 -23 -24 -21 -10 -8 -8 -9 -13
-3 -2 -2 -2 -2 -2 -4 -4 -4 -4 -5 -5 -4 -2 -1 -1 -0 -0 -0 -0 -0 -0 -3 -10 -14 -14 -15 -16 -17 -18 -17 -19 -21 -25 -26 -24 -19 -11 -8 -9 -11 -15 -10
-3 -3 -3 -3 -2 -2 -5 -2 -1 -2 -2 -1 -1 -1 -0 -0 -1 -1 -2 -2 -7 -12 -14 -14 -15 -15 -16 -18 -19 -20 -22 -23 -24 -23 -20 -15 -10 -10 -14 -18 -19 -14 -12
-1 -1 -1 -1 -4 -3 -0 -0 -1 -1 -0 -0 -0 -0 -1 -2 -3 -3 -7 -13 -14 -15 -15 -14 -15 -18 -21 -21 -22 -24 -26 -24 -20 -16 -13 -13 -14 -19 -20 -20 -19 -15 -12
1 1 0 0 0 -0 0 1 0 0 0 -0 -3 -7 -8 -6 -8 -12 -15 -15 -15 -14 -15 -19 -22 -22 -22 -25 -26 -23 -20 -18 -16 -15 -17 -17 -19 -19 -19 -17 -12 -11 -11
1 1 1 1 1 1 1 1 0 -1 -6 -7 -7 -8 -9 -12 -15 -16 -16 -15 -14 -16 -21 -21 -22 -25 -26 -23 -21 -20 -17 -13 -16 -15 -19 -20 -19 -19 -15 -12 -11 -11 -10
1 1 1 2 1 1 0 -1 -5 -7 -5 -6 -9 -10 -13 -16 -17 -16 -14 -14 -18 -21 -22 -24 -29 -27 -24 -21 -21 -21 -19 -20 -19 -20 -20 -19 -18 -15 -12 -11 -11 -10 -10

GFSMW_850_dewp_048.txt.gz
Dewpoint
-0 -0 -0 -1 -1 -0 -1 -2 -2 -1 -0 0 1 6 11 10 10 10 10 11 12 11 9 9 7 8 8 6 9 10 10 8 8 7 -3 -3 -2 -3 -5 -7 -9 -10 -11
-1 -2 -3 -2 -2 -1 -1 -1 -0 -1 -1 -1 -0 0 1 3 8 10 10 9 11 11 11 10 10 9 8 7 9 10 10 9 7 7 -2 -2 -3 -2 -4 -6 -8 -8 -9
-6 -6 -5 -5 -5 -5 -4 -2 -1 -0 -0 -0 -1 -1 1 1 5 8 9 9 9 10 10 10 9 9 9 8 9 9 10 10 8 7 -1 -2 -2 -3 -4 -5 -7 -6 -8
-6 -7 -7 -7 -6 -6 -5 -6 -6 -2 -2 -1 -0 -0 -0 1 0 2 5 8 9 9 9 10 9 8 9 9 9 9 10 9 8 8 4 -2 -2 -3 -3 -4 -5 -6 -8
-6 -4 -5 -6 -6 -5 -5 -5 -5 -5 -4 -2 -2 -1 0 1 2 3 4 7 9 9 9 8 9 8 8 9 9 10 8 9 10 9 8 0 -2 -1 -2 -3 -3 -5 -7
-3 -4 -3 -1 -1 -2 -4 -5 -5 -4 -4 -3 -3 -2 -2 -2 0 4 6 6 8 9 9 9 8 7 8 9 9 10 10 10 10 9 6 0 -1 -1 -1 -3 -2 -4 -6
-1 -1 -2 -1 -0 -0 -0 -1 -1 -2 -4 -4 -4 -4 -4 -3 -2 -0 1 4 6 7 9 9 9 8 7 8 8 10 10 10 9 8 1 1 0 1 1 -2 -3 -5 -7
2 2 2 1 -1 -1 -1 -1 -3 -3 -4 -4 -3 -3 -3 -3 -3 -2 -0 1 3 4 7 8 8 8 8 7 8 10 10 9 8 4 1 -1 2 1 -1 -2 -6 -8 -9
2 4 4 3 2 1 0 0 -1 -2 -5 -7 -8 -8 -7 -6 -5 -4 -3 -2 0 1 2 6 8 9 9 8 9 10 10 8 6 2 0 1 -1 1 -0 -3 -5 -9 -11
3 4 4 3 3 2 1 2 0 0 -3 -5 -5 -6 -7 -7 -7 -4 -2 -2 -3 -0 4 4 7 9 10 10 10 10 9 6 2 -0 0 -0 0 -1 -5 -4 -4 -12 -13
5 5 4 3 2 1 1 2 2 1 -1 -2 -3 -4 -5 -6 -8 -3 -2 0 -1 -0 5 9 9 10 10 10 10 8 6 3 -0 -1 -1 0 0 -1 -5 -8 -6 -8 -5
4 4 4 3 2 2 2 2 2 2 0 -1 -2 -3 -4 -4 -0 0 -1 1 4 5 7 9 9 9 9 9 8 7 3 -0 -2 -1 0 -2 -3 -1 -1 -2 -2 -0 -4
3 3 3 3 4 4 4 3 2 2 1 -1 -2 -0 -2 3 5 5 4 5 6 8 8 9 8 8 8 7 4 1 -1 -2 -1 -1 -0 -0 -2 -1 0 -0 -0 -7 -16
1 2 3 4 4 4 3 3 1 1 2 3 5 3 5 7 7 7 7 7 7 7 7 7 7 7 6 3 1 -2 -2 -1 -1 -1 -1 0 1 0 -0 -3 -16 -17 -16
1 2 2 3 4 3 3 3 2 2 3 3 4 5 5 6 6 6 6 7 6 6 6 7 5 4 1 -1 -1 0 -0 -0 -1 1 1 -0 -0 -3 -16 -19 -18 -16 -16
-0 1 2 3 3 3 3 3 2 3 3 3 3 4 4 5 5 5 5 5 5 4 3 2 1 -0 -0 -0 -0 -0 0 1 0 0 -0 -3 -17 -20 -20 -20 -19 -19 -20
-1 2 2 3 3 2 2 2 2 3 2 2 2 2 3 3 3 3 2 1 2 1 1 -1 -1 -1 -1 0 0 0 0 -0 -0 -5 -18 -20 -21 -21 -21 -21 -24 -26 -23
-1 -1 -0 -0 1 1 1 2 2 2 1 1 0 -0 -0 1 0 -0 -1 -1 -3 -3 -3 -2 -1 -0 -0 -0 -0 -0 -2 -10 -16 -18 -19 -20 -20 -20 -23 -27 -22 -17 -14
-2 -2 -2 -2 -1 -0 1 1 1 1 0 0 -0 -0 -0 1 -0 0 -0 -1 -1 -0 -1 -1 -1 -0 -1 -1 -3 -11 -16 -16 -18 -19 -18 -18 -22 -26 -26 -15 -9 -9 -10
-2 -2 -2 -2 -1 -0 -1 -2 -2 -2 -2 -1 -1 -1 -1 -1 -1 -1 -1 -1 -1 -1 -1 -1 -1 -1 -5 -15 -15 -16 -17 -18 -18 -19 -21 -24 -25 -21 -9 -8 -9 -10 -13
-2 -2 -2 -2 -2 -2 -4 -3 -4 -4 -4 -3 -3 -2 -1 -1 -1 -1 -1 -1 -1 -1 -1 -6 -14 -15 -15 -14 -16 -19 -20 -20 -22 -25 -24 -20 -16 -10 -8 -9 -11 -15 -11
-1 -2 -3 -3 -2 -3 -4 -1 -2 -2 -2 -1 -1 -1 -1 -1 -1 -1 -1 -2 -9 -14 -15 -15 -15 -15 -15 -17 -18 -18 -21 -23 -23 -20 -19 -16 -11 -11 -16 -19 -19 -12 -13
1 -0 -1 -3 -2 -1 -0 -0 -1 -1 -1 -1 -1 -1 -1 -1 -4 -9 -13 -14 -15 -15 -15 -14 -15 -18 -20 -21 -22 -23 -21 -19 -19 -18 -15 -14 -16 -19 -20 -19 -18 -15 -12
2 1 1 1 0 0 0 0 -1 -1 -0 -1 -3 -5 -6 -8 -12 -14 -15 -15 -15 -14 -16 -20 -21 -21 -23 -25 -24 -22 -21 -19 -17 -18 -18 -19 -20 -19 -19 -18 -13 -11 -11
1 2 2 1 1 0 0 -0 -1 -1 -4 -6 -7 -8 -11 -14 -15 -16 -16 -15 -15 -18 -21 -21 -23 -25 -26 -21 -22 -22 -19 -16 -18 -18 -20 -21 -21 -20 -17 -12 -11 -11 -10
1 2 1 1 1 1 -0 -3 -5 -7 -6 -7 -9 -11 -14 -16 -17 -16 -14 -17 -20 -21 -22 -28 -30 -27 -25 -23 -22 -20 -19 -20 -20 -20 -21 -21 -20 -17 -12 -11 -11 -10 -10

GFSMW_850_dewp_051.txt.gz
Dewpoint
-1 -1 -1 -1 -1 -0 -0 -1 -1 -1 0 2 3 3 3 6 10 9 9 9 10 11 11 11 8 5 7 8 9 8 10 10 9 7 6 5 -3 -3 -3 -4 -7 -9 -10
-3 -5 -6 -6 -5 -4 -2 -1 -0 -1 -1 -1 -0 0 2 2 3 7 8 9 9 9 9 10 10 7 5 7 9 8 9 10 10 7 6 1 -1 -3 -2 -3 -6 -8 -9
-6 -6 -7 -7 -5 -5 -5 -4 -2 -1 -1 -0 -1 -1 -0 1 2 3 4 6 8 9 9 9 9 9 8 7 8 8 8 10 10 8 6 1 -0 -2 -2 -3 -4 -6 -7
-3 -2 -3 -4 -5 -5 -5 -5 -5 -5 -2 -1 -1 -0 -0 2 1 -1 -0 -0 2 7 9 9 9 8 9 10 9 9 8 9 10 9 8 8 6 -1 -2 -3 -4 -6 -7
-0 -1 -1 -0 0 -1 -2 -4 -5 -4 -5 -4 -2 -1 -1 -1 -0 -0 1 2 2 5 7 9 9 8 9 8 9 10 9 8 9 10 9 9 8 6 2 -2 -2 -4 -5
2 1 0 -2 -2 -1 -1 -1 -2 -2 -4 -4 -3 -1 -1 -0 1 1 2 2 2 3 7 8 8 9 8 8 8 9 10 9 9 10 10 9 9 8 1 -3 -3 -2 -5
3 3 3 1 -0 -2 -2 -1 -1 -3 -3 -2 -3 -3 -3 -2 -0 0 1 3 2 3 3 4 5 8 9 9 8 8 10 10 9 10 9 9 9 7 -0 -1 3 -1 -3
3 4 4 4 3 1 0 -0 -2 -1 -2 -3 -5 -3 -1 -1 -2 -3 -3 -3 -1 1 4 5 6 5 7 9 9 8 8 10 10 10 9 8 7 2 1 0 1 -0 -4
4 4 4 4 3 2 1 1 -0 -1 -1 -1 -3 -4 -5 -5 -5 -4 -3 -3 -3 -3 -2 4 7 8 8 8 8 8 9 11 10 9 8 7 4 0 -1 1 -2 -4 -2
5 3 3 3 2 2 1 0 1 1 1 -0 -0 -3 -4 -4 -5 -6 -7 -7 -5 -4 -2 1 5 9 9 10 11 10 10 9 9 8 8 6 2 -1 -0 1 2 -1 -4
4 3 3 3 3 3 3 2 2 2 2 1 -0 -2 -3 -3 -4 -5 -6 -6 -4 -3 -1 0 4 7 9 10 10 10 10 9 8 7 5 0 -1 -0 0 -1 -4 -2 -2
3 2 2 3 3 4 3 3 3 2 1 1 -0 -1 -2 -2 -3 -4 -4 -2 -1 1 4 4 6 8 9 9 9 9 9 9 8 3 -0 -2 -2 -1 -2 -3 -2 0 1
2 2 3 3 3 3 3 3 2 1 1 1 0 1 0 -1 -0 2 5 5 5 6 7 6 7 8 8 8 8 8 8 6 1 -0 -3 -3 -1 -2 -1 -0 -0 -0 -0
1 1 2 2 3 3 3 3 2 2 2 1 2 2 2 2 4 6 6 7 6 6 6 7 7 7 7 7 7 6 3 -3 -4 -4 -2 -1 0 1 0 -0 -0 -1 -9
0 1 2 2 3 2 2 2 2 3 3 3 3 3 3 4 5 5 5 6 5 5 6 6 6 5 5 4 2 -1 -1 -2 -2 -1 0 1 0 -0 -1 -1 -12 -19 -19
-1 0 2 2 2 1 2 2 3 3 3 2 2 2 2 3 3 3 4 4 3 3 3 2 2 2 -1 -2 -2 -2 -2 0 1 0 -0 -0 -0 -2 -18 -20 -20 -19 -19
-2 -1 -0 1 0 1 1 2 2 3 3 2 1 0 1 1 1 2 2 2 2 1 1 -1 -2 -3 -1 0 0 -0 -0 -0 -0 -1 -1 -7 -19 -20 -20 -19 -20 -23 -22
-2 -1 -1 -1 -1 0 1 1 1 2 2 2 1 0 0 -0 -0 -0 0 -0 0 -0 -0 -1 -1 -0 -1 -1 -0 -0 -1 -1 -6 -17 -18 -19 -18 -18 -20 -24 -26 -23 -18
-2 -2 -1 -1 -1 -0 -0 -1 -1 -1 0 0 -0 -0 -0 -1 -1 -1 -1 -2 -1 -1 -1 -1 -1 -1 -1 -1 -0 -2 -11 -16 -17 -18 -18 -19 -21 -25 -27 -19 -12 -11 -11
-2 -2 -2 -2 -1 -1 -3 -3 -3 -3 -2 -2 -1 -1 -1 -1 -1 -1 -1 -2 -1 -2 -1 -1 -1 -1 -1 -8 -15 -16 -17 -18 -18 -19 -22 -25 -24 -20 -10 -8 -9 -12 -16
-1 -2 -2 -2 -2 -4 -3 -3 -3 -2 -2 -2 -2 -2 -1 -1 -1 -1 -1 -1 -1 -1 -1 -3 -9 -15 -14 -14 -18 -19 -20 -21 -23 -25 -23 -21 -20 -13 -9 -11 -15 -18 -12
0 -1 -2 -2 -2 -2 -1 -2 -2 -2 -2 -1 -1 -1 -1 -1 -1 -1 -1 -5 -10 -14 -15 -15 -15 -15 -16 -17 -19 -20 -22 -25 -24 -20 -19 -18 -20 -20 -21 -21 -21 -17 -16
1 -0 -1 -0 -0 -0 -1 -1 -1 -1 -1 -1 -1 -1 -1 -3 -9 -14 -15 -16 -15 -15 -14 -15 -17 -19 -21 -22 -23 -22 -20 -20 -20 -19 -19 -17 -20 -21 -21 -20 -19 -14 -12
1 1 1 1 1 1 1 1 -0 -1 -1 -1 -3 -6 -11 -14 -15 -16 -16 -15 -14 -15 -19 -21 -21 -22 -24 -23 -20 -22 -22 -20 -19 -20 -20 -21 -21 -21 -20 -16 -12 -11 -11
2 1 1 2 1 1 0 -1 -1 -2 -6 -6 -8 -11 -14 -16 -17 -16 -15 -15 -18 -21 -21 -24 -26 -26 -24 -20 -23 -22 -20 -20 -20 -21 -20 -20 -20 -19 -14 -12 -11 -11 -11
1 2 2 2 1 0 -2 -3 -4 -6 -6 -8 -10 -14 -16 -17 -17 -14 -16 -20 -21 -23 -28 -30 -28 -25 -24 -22 -21 -20 -19 -19 -20 -20 -20 -21 -19 -16 -12 -12 -11 -11 -10

GFSMW_850_dewp_054.txt.gz
Dewpoint
-1 -1 -1 -1 -1 -0 -0 -1 -2 -3 1 11 5 9 11 8 9 9 7 10 10 10 11 10 11 9 9 9 9 9 9 7 9 9 7 7 6 4 -4 -4 -4 -5 -8
-3 -4 -5 -4 -4 -3 -2 -1 -1 -0 -1 4 8 1 7 9 9 7 6 8 8 8 8 9 10 10 10 9 8 9 10 9 9 10 4 2 4 6 0 -3 -3 -4 -6
-2 0 -0 -4 -6 -5 -5 -4 -3 -2 -1 -0 5 10 10 10 4 2 3 4 6 7 9 8 9 9 10 10 7 7 8 10 9 10 7 4 5 2 3 -1 -3 -4 -5
0 1 1 1 -1 -1 -3 -4 -4 -4 -3 -1 -1 6 10 11 6 0 -0 1 3 4 6 8 8 9 9 8 9 7 6 9 10 9 10 8 3 2 3 3 3 -3 -4
2 2 2 -1 -0 -1 -1 -1 -2 -4 -4 -4 -4 -0 9 10 10 10 7 5 3 1 3 3 7 7 8 9 8 8 8 7 10 8 9 9 8 6 7 3 1 3 6
3 4 3 2 1 -1 -1 -1 -1 -2 -2 -3 -4 -4 -3 7 10 10 10 9 8 3 2 3 5 7 7 8 9 9 10 9 9 10 9 9 9 8 7 3 3 3 -0
3 4 4 3 2 1 0 -1 -2 -2 -2 -3 -3 -1 -2 -0 8 10 11 11 10 6 2 2 4 5 5 6 8 9 8 10 10 10 9 9 9 9 9 7 7 3 -0
4 4 4 3 3 2 1 0 -0 -0 -1 -1 -2 -4 -4 -1 -1 -2 5 9 10 9 1 2 4 5 7 8 7 7 8 9 9 11 10 10 9 9 9 8 7 0 -2
5 4 4 4 3 1 1 -0 -0 -0 -0 -0 -0 -1 -2 -4 -5 -4 -4 -3 -3 -2 1 -0 -1 3 8 9 9 9 8 9 10 10 10 10 9 8 8 7 -0 -1 -1
5 4 3 3 4 3 3 2 2 2 1 1 1 1 0 -2 -3 -4 -4 -4 -5 -4 -3 -4 -2 -0 2 8 10 10 10 10 10 10 10 9 9 6 5 2 0 -0 -0
4 3 3 2 4 3 3 3 3 2 1 1 1 0 -1 -1 -2 -2 -3 -3 -3 -3 -3 -3 -2 0 3 6 8 9 10 10 10 10 9 8 7 7 4 1 1 -3 -0
3 1 1 2 3 3 3 3 2 2 1 1 1 0 0 -0 -0 -0 -1 -2 -3 -2 -1 1 1 3 8 9 9 9 8 9 9 8 8 7 4 2 2 -2 -1 -0 -1
1 1 1 1 2 2 3 2 2 2 2 1 1 1 2 1 0 0 1 0 1 3 5 6 7 7 7 7 7 7 8 8 7 7 5 4 2 -3 -2 -1 0 0 1
-0 -0 1 1 2 2 2 2 2 2 2 2 2 2 3 3 3 3 3 5 6 6 6 6 6 6 6 6 7 7 6 6 4 2 -1 -3 -3 -1 -0 0 0 -0 -1
-1 -1 1 0 2 1 1 2 2 3 3 2 2 2 3 3 3 4 4 5 5 5 5 5 5 5 5 4 4 3 2 1 -1 -2 -2 -1 -0 0 -0 -1 -1 -1 -5
-1 -2 -0 -1 1 1 1 2 2 2 3 2 2 2 2 3 3 2 3 3 3 2 2 2 2 1 1 0 -0 -1 -1 -1 -1 -0 -0 -0 -0 -1 -1 -1 -10 -19 -19
-2 -2 -1 -2 -0 0 1 1 2 2 2 2 1 2 1 1 1 1 1 1 -0 -0 -0 -0 -1 -1 -1 -2 -1 -1 -1 -0 -0 -1 -1 -1 -3 -12 -18 -19 -19 -20 -21
-2 -1 -0 -1 -1 -0 0 0 0 0 1 1 1 1 1 0 -0 0 -0 -0 -1 -1 -2 -1 -1 -1 -1 -1 -1 -1 -1 -1 -0 -1 -3 -7 -15 -18 -19 -20 -24 -25 -21
-1 -1 -1 -1 -1 -1 -1 -2 -2 -1 -0 -0 -0 -0 -0 -1 -1 -1 -1 -1 -1 -1 -1 -1 -1 -1 -1 -1 -1 -1 -2 -6 -13 -17 -17 -18 -20 -24 -26 -18 -16 -13 -9
0 -1 -1 -2 -1 -2 -3 -3 -2 -2 -1 -1 -1 -1 -1 -1 -1 -1 -1 -2 -2 -2 -2 -2 -2 -1 -1 -6 -13 -16 -16 -17 -19 -20 -23 -24 -24 -23 -18 -9 -9 -10 -11
0 -1 -2 -2 -2 -3 -2 -3 -2 -2 -1 -1 -1 -1 -2 -2 -2 -2 -2 -1 -1 -2 -2 -6 -11 -13 -14 -17 -19 -19 -20 -22 -24 -25 -23 -22 -22 -18 -17 -18 -14 -19 -19
-0 -1 -1 -2 -2 -1 -2 -2 -1 -2 -1 -1 -1 -1 -2 -2 -2 -2 -3 -8 -13 -15 -15 -15 -16 -17 -17 -19 -21 -23 -26 -26 -23 -22 -21 -21 -22 -22 -22 -22 -22 -21 -21
0 -1 -1 -0 -1 -1 -1 -1 -1 -1 -1 -1 -1 -1 -1 -4 -12 -15 -15 -15 -15 -15 -17 -19 -20 -21 -22 -23 -24 -24 -23 -24 -22 -21 -21 -21 -22 -22 -22 -22 -21 -17 -13
1 0 0 0 0 0 0 -0 -0 -0 -1 -1 -3 -8 -14 -15 -16 -16 -15 -15 -16 -19 -21 -22 -23 -25 -26 -24 -21 -22 -22 -21 -20 -21 -21 -22 -22 -22 -20 -18 -14 -12 -11
1 1 1 1 1 0 -0 -0 -1 -1 -4 -7 -11 -14 -16 -17 -17 -15 -15 -17 -21 -21 -23 -27 -28 -26 -23 -21 -24 -22 -17 -18 -19 -21 -21 -21 -21 -20 -17 -13 -12 -11 -11
2 1 1 1 1 -1 -1 -2 -4 -6 -6 -9 -13 -16 -17 -17 -15 -15 -19 -21 -22 -26 -30 -29 -27 -26 -24 -23 -22 -21 -20 -21 -21 -20 -21 -21 -21 -18 -13 -12 -11 -11 -10

GFSMW_850_dewp_060.txt.gz
Dewpoint
-3 -4 -3 -2 -1 -1 -0 0 1 1 1 3 8 12 12 9 9 6 8 12 13 12 10 10 11 11 11 11 10 11 10 11 10 8 6 4 3 4 6 6 5 -0 -3
-4 -3 -2 -2 -2 -2 -2 -1 -1 0 1 1 1 5 9 10 9 8 5 4 9 14 12 11 11 11 11 11 11 10 11 11 10 8 6 3 2 4 6 6 6 4 1
-4 -3 -0 -0 -1 -2 -3 -2 -2 -1 -0 0 1 1 4 8 11 9 6 2 4 10 12 12 13 11 12 12 11 11 10 10 11 10 7 4 5 5 5 6 6 5 4
-0 1 2 2 2 0 -2 -3 -4 -4 -4 -1 1 1 2 3 10 11 9 9 9 9 9 10 12 12 12 12 12 12 11 11 11 10 9 7 6 6 4 4 4 4 4
1 2 3 3 4 1 -0 -1 -1 -0 -2 -3 -4 -4 -2 1 3 7 10 11 11 11 10 9 8 11 12 12 12 11 11 11 11 11 10 8 7 6 5 5 4 3 3
3 4 4 4 4 3 2 0 -0 -0 2 2 -1 -2 -3 -3 -3 -1 4 9 10 10 11 10 11 12 12 11 11 11 11 11 11 11 11 10 9 8 6 5 5 5 4
3 4 4 4 4 3 2 1 1 1 2 2 3 2 2 -0 -1 -2 0 6 8 10 10 9 9 9 10 11 11 10 10 10 11 10 10 10 10 9 8 7 6 5 4
4 4 4 4 3 4 3 1 1 2 2 2 2 3 3 4 3 3 2 2 5 8 9 9 9 9 9 9 11 10 9 10 10 10 10 10 9 9 8 8 7 6 5
4 4 3 3 3 4 3 2 2 3 2 2 3 3 4 4 4 3 2 1 -0 -0 3 7 8 8 9 10 10 9 8 9 9 9 10 9 9 9 8 8 7 7 5
4 3 3 3 3 4 3 3 2 2 2 2 2 3 3 3 2 2 1 -1 -1 -0 -0 0 0 4 7 8 9 9 8 8 8 8 8 9 9 8 8 8 8 7 6
4 3 2 2 3 3 3 3 2 2 2 1 1 1 1 1 1 1 1 0 -0 -0 -1 -1 -1 0 2 2 2 7 7 7 7 8 8 8 8 8 8 7 6 5 4
4 2 1 1 3 2 2 2 2 2 1 1 1 1 1 1 1 2 2 2 2 1 1 1 1 1 3 4 4 5 6 6 6 6 6 7 7 7 6 5 4 4 3
3 1 1 1 2 1 1 1 1 1 2 2 2 2 2 2 2 3 3 3 3 3 3 3 4 4 5 5 5 5 5 6 6 6 6 6 5 5 4 3 2 1 1
1 0 1 2 2 1 1 1 1 2 2 2 2 2 2 2 2 3 3 3 3 3 3 4 4 4 4 4 4 4 4 5 5 4 4 4 4 3 2 1 1 0 1
1 -0 0 0 1 0 0 1 1 2 2 2 2 2 1 2 2 3 3 3 3 3 3 3 3 3 3 3 3 3 2 2 1 1 2 -0 1 -0 -1 -0 0 0 -0
0 -0 -0 -0 0 0 1 1 1 2 2 2 1 1 1 1 1 2 2 2 2 2 2 2 1 1 0 -1 -0 0 0 -0 -1 -1 -1 -1 -1 -1 -1 -1 -2 -1 -1
0 -1 -1 -1 -1 -0 0 1 1 1 1 1 1 1 1 1 1 0 0 0 0 -0 -0 -0 -0 -1 -1 -1 -1 -1 -1 -1 -1 -1 -2 -2 -2 -2 -2 -2 -4 -14 -19
0 -1 -1 -1 -1 -1 -0 0 0 -0 -0 0 0 -0 -0 -0 -1 -1 -1 -1 -1 -1 -1 -1 -1 -2 -2 -2 -1 -1 -1 -1 -1 -1 -2 -2 -4 -7 -14 -19 -20 -22 -20
0 -1 -1 -1 -1 -0 -0 -1 -1 -1 -0 -0 -1 -1 -1 -1 -2 -1 -2 -2 -2 -1 -2 -2 -2 -2 -2 -2 -2 -4 -10 -15 -17 -18 -20 -21 -22 -23 -25 -23 -18 -13 -11
1 -0 -0 -1 -1 -1 -1 -1 -1 -1 -1 -1 -1 -1 -2 -2 -2 -2 -2 -2 -2 -2 -2 -2 -6 -14 -18 -20 -21 -21 -22 -24 -25 -25 -23 -22 -22 -22 -23 -21 -16 -14 -14
1 0 -0 -1 -1 -1 -1 -1 -1 -1 -1 -1 -1 -2 -2 -2 -2 -2 -2 -4 -12 -15 -15 -16 -18 -20 -21 -23 -26 -28 -26 -25 -23 -21 -20 -21 -21 -22 -22 -23 -23 -22 -22
1 -0 -1 -1 -1 -1 -1 -1 -1 -1 -1 -1 -2 -2 -2 -2 -3 -7 -14 -15 -15 -16 -19 -20 -21 -24 -27 -28 -28 -27 -27 -26 -25 -23 -22 -22 -23 -24 -24 -24 -24 -24 -24
1 0 -0 -1 -1 -1 -1 -1 -1 -1 -1 -1 -2 -1 -3 -10 -15 -16 -15 -15 -16 -18 -20 -22 -25 -27 -27 -26 -25 -25 -25 -22 -22 -20 -21 -22 -23 -23 -24 -24 -23 -22 -17
1 0 -0 -1 -1 -1 -1 -1 -1 -1 -1 -1 -2 -6 -14 -16 -16 -15 -15 -17 -19 -20 -22 -25 -28 -28 -26 -26 -24 -25 -23 -23 -22 -22 -23 -23 -22 -23 -23 -21 -19 -14 -12
2 1 0 -0 -0 -1 -1 -1 -1 -1 -2 -3 -8 -14 -16 -17 -17 -15 -16 -19 -21 -23 -26 -30 -30 -29 -28 -27 -26 -25 -24 -23 -23 -23 -23 -22 -22 -22 -21 -17 -13 -12 -12
2 2 0 0 0 -0 -0 -1 -1 -2 -3 -6 -12 -15 -17 -18 -16 -15 -18 -21 -22 -25 -31 -31 -30 -29 -28 -26 -25 -24 -23 -23 -23 -23 -22 -22 -22 -22 -20 -16 -13 -12 -12

GFSMW_850_dewp_066.txt.gz
Dewpoint
-3 -3 -3 -3 -3 -3 -3 -1 2 3 3 4 6 7 10 11 12 12 12 12 12 12 12 11 11 11 11 10 11 11 11 11 11 11 10 10 10 10 9 9 6 4 4
-3 -3 -3 -3 -3 -3 -3 -3 -2 -0 1 1 3 4 3 4 5 7 10 11 11 10 10 10 10 10 10 11 11 12 12 11 11 11 11 10 9 10 10 10 8 6 5
-3 -3 -2 -2 -2 -2 -2 -1 -1 -1 -0 0 1 1 1 2 2 3 4 7 9 11 11 10 8 8 9 11 11 12 12 11 11 10 11 10 9 9 8 8 8 7 5
-3 -2 -2 -2 -2 -2 -3 -3 -3 -3 -3 -2 -2 -1 0 1 2 2 2 2 3 6 7 8 9 9 10 10 10 10 11 11 11 11 11 11 11 9 7 7 7 6 5
-1 -0 0 0 -1 -1 -2 -2 -2 -2 -2 -3 -3 -3 -2 -1 0 1 1 2 4 8 10 9 10 10 8 8 9 9 9 10 10 10 10 9 11 10 10 8 8 7 7
2 2 2 1 1 1 0 -1 -1 -1 -1 -1 -1 -1 -2 -3 -3 -4 -4 -3 -2 1 3 9 10 10 9 10 9 9 9 9 9 9 9 10 10 10 9 9 8 8 8
3 3 3 3 2 2 2 1 1 1 1 1 1 1 0 -0 -0 -1 -1 -3 -2 -2 2 6 9 8 8 9 8 10 9 9 9 8 8 9 9 9 9 9 8 8 8
3 3 3 3 3 2 2 2 1 1 1 1 1 2 2 2 2 2 2 1 0 -0 0 1 4 7 9 8 6 8 8 8 7 8 8 8 7 8 8 8 8 7 7
3 4 4 3 3 2 2 2 1 1 1 1 1 2 2 3 3 4 4 4 3 3 2 1 0 1 3 5 7 7 8 8 7 5 6 7 7 8 7 6 8 7 6
4 4 4 3 3 2 2 2 2 2 2 2 1 1 1 1 1 1 2 2 1 1 1 0 -0 -1 -0 0 1 2 5 7 7 5 5 4 6 6 7 7 7 7 6
4 4 3 3 2 2 2 2 2 2 2 2 1 1 1 1 1 1 1 1 1 1 1 1 1 0 0 0 0 1 2 3 2 2 2 5 5 5 6 6 6 6 6
4 4 3 2 2 2 2 2 1 1 2 2 1 1 1 1 1 1 1 1 2 1 1 1 1 1 1 1 1 1 2 2 3 3 4 4 4 5 5 5 5 5 4
4 3 3 2 1 2 2 2 1 2 1 1 1 1 2 2 2 2 2 2 2 2 2 2 3 2 2 2 2 2 3 3 3 4 4 4 4 5 5 4 4 3 3
3 3 3 1 1 1 2 2 1 1 1 1 2 2 2 2 1 1 2 2 2 2 2 2 2 2 3 3 3 3 3 3 3 3 3 3 3 3 2 2 2 1 1
3 3 2 1 1 1 1 1 1 1 1 1 2 1 1 1 1 2 2 2 2 2 2 2 1 2 1 1 1 2 2 2 2 2 2 2 1 0 -0 -0 -0 -0 -0
3 2 1 0 0 1 1 0 1 1 1 1 1 1 1 1 1 2 2 2 2 2 1 1 0 -0 -1 -1 -1 -1 -1 -1 -1 -1 -1 -1 -1 -1 -1 -1 -1 -1 -1
2 1 1 0 0 0 0 0 1 1 1 1 1 1 1 1 1 0 1 1 0 -0 -1 -1 -2 -1 -1 -1 -1 -1 -1 -1 -1 -1 -1 -1 -2 -2 -2 -3 -3 -3 -7
2 1 1 0 -0 -1 -1 -0 0 0 1 0 0 1 0 -0 -0 -0 -0 -0 -1 -1 -2 -2 -2 -2 -6 -13 -16 -17 -18 -19 -20 -20 -21 -21 -21 -22 -23 -23 -23 -22 -20
2 1 1 -0 -1 -1 -0 -0 -0 -0 -0 -0 0 0 -1 -1 -1 -1 -1 -2 -2 -2 -2 -5 -14 -20 -22 -23 -27 -28 -29 -28 -29 -28 -27 -26 -25 -24 -26 -25 -23 -20 -17
1 1 1 -0 -1 -1 -1 -0 -1 -1 -0 -0 -0 -1 -1 -1 -1 -2 -2 -2 -3 -8 -17 -19 -22 -24 -27 -30 -30 -30 -29 -28 -28 -26 -24 -23 -23 -23 -22 -24 -24 -23 -21
2 2 1 0 -0 -0 -1 -1 -1 -1 -1 -1 -1 -1 -1 -2 -2 -2 -6 -15 -16 -17 -20 -22 -25 -27 -28 -28 -28 -27 -27 -26 -25 -24 -23 -22 -22 -24 -24 -24 -24 -24 -23
2 2 1 -0 -0 -1 -1 -1 -1 -0 -0 -1 -1 -1 -2 -2 -2 -11 -16 -16 -18 -20 -22 -24 -26 -28 -28 -27 -27 -27 -26 -26 -24 -23 -23 -23 -24 -23 -23 -23 -23 -23 -23
1 2 1 -0 -0 -1 -1 -1 -1 -0 -1 -1 -2 -2 -2 -4 -12 -16 -16 -17 -19 -21 -22 -25 -28 -29 -28 -27 -27 -26 -25 -24 -24 -24 -23 -23 -23 -23 -22 -22 -21 -21 -18
1 2 2 1 -0 -1 -1 -1 -1 -1 -1 -2 -2 -2 -3 -11 -16 -16 -16 -17 -19 -21 -23 -26 -29 -30 -30 -29 -28 -27 -26 -25 -24 -24 -24 -24 -23 -22 -22 -21 -19 -17 -14
2 1 2 2 0 -0 -1 -1 -1 -1 -1 -2 -2 -2 -11 -16 -16 -16 -16 -16 -18 -21 -23 -29 -31 -30 -30 -29 -28 -27 -26 -25 -24 -24 -23 -23 -22 -23 -23 -21 -18 -15 -13
2 2 1 2 1 -0 -0 -1 -1 -1 -1 -1 -2 -6 -13 -16 -17 -17 -16 -17 -19 -22 -23 -28 -31 -30 -30 -30 -28 -26 -25 -24 -24 -24 -22 -22 -22 -23 -23 -22 -19 -18 -14

GFSMW_850_dewp_072.txt.gz
Dewpoint
-1 -2 -2 -2 -1 0 2 5 7 10 12 13 12 13 13 13 13 13 13 12 12 13 13 12 13 12 12 12 11 11 11 11 11 12 11 10 11 11 11 10 10 10 9
-1 -1 -2 -2 -3 -3 -3 -2 -1 0 4 10 10 12 12 11 10 10 11 12 12 12 13 13 13 12 11 10 10 10 11 10 11 11 10 10 9 9 9 9 9 9 9
-1 -2 -3 -3 -3 -3 -3 -3 -2 -2 0 2 2 3 3 4 6 8 9 10 10 9 9 9 10 11 12 11 11 11 10 9 10 10 10 11 9 9 9 9 9 9 8
-2 -2 -3 -3 -3 -2 -2 -2 -2 -2 -2 -1 -1 -1 -1 0 1 2 3 3 3 3 3 2 2 3 6 9 10 9 10 9 10 10 10 10 10 10 9 9 9 8 8
-2 -2 -2 -3 -3 -2 -2 -2 -2 -2 -2 -2 -2 -2 -2 -2 -2 -1 -1 -1 -0 0 1 1 2 4 6 8 10 10 10 9 9 10 9 9 9 9 9 9 8 9 8
-2 -2 -1 -1 -2 -1 -1 -1 -2 -2 -2 -2 -2 -2 -1 -1 -1 -2 -2 -3 -3 -3 -3 -3 -3 -2 1 5 10 10 10 9 9 10 9 9 10 9 9 8 8 7 7
-2 -2 -1 -0 -0 0 0 -0 -0 -0 -0 -0 -0 -0 -0 -0 0 0 0 -0 -0 -0 -1 -1 -0 0 3 5 7 10 10 9 9 9 9 9 9 9 9 7 7 6 6
-2 -1 0 1 1 1 1 1 1 1 0 0 0 1 1 1 1 2 2 2 2 2 2 2 2 1 1 2 6 8 9 9 9 8 8 8 8 7 7 6 7 6 6
-1 1 2 2 2 2 2 1 1 1 1 1 0 0 1 1 1 2 2 2 2 2 2 2 2 2 1 1 1 2 4 6 8 8 8 8 7 8 7 5 4 6 6
3 3 3 3 3 2 2 2 1 1 1 1 1 1 1 1 1 1 1 1 1 1 1 1 1 1 1 1 0 1 2 3 3 4 6 7 6 4 2 2 4 4 5
3 3 3 3 3 3 2 2 2 2 2 1 1 1 1 1 1 1 0 0 0 1 1 1 1 1 0 0 1 1 1 1 2 2 2 2 2 3 3 3 4 4 4
3 3 4 3 3 3 2 2 2 2 2 1 1 1 1 1 1 1 1 1 1 2 2 2 1 1 1 1 1 2 2 2 2 2 2 2 3 3 3 3 3 3 3
4 4 4 3 3 3 2 2 2 2 2 1 2 1 1 1 1 1 1 1 2 2 2 2 2 2 2 2 2 2 2 3 2 2 2 3 2 2 2 2 2 1 1
4 3 3 3 3 3 2 2 2 1 1 1 1 1 1 1 1 1 1 1 1 2 2 2 2 2 1 2 2 3 3 3 2 2 2 2 2 1 1 0 -0 -0 0
3 3 3 3 3 2 2 1 1 1 1 1 1 1 1 1 1 1 1 1 2 2 2 1 1 1 0 1 1 1 1 1 1 0 -0 -0 -1 -1 -1 -1 -1 -1 -1
1 2 3 3 2 2 1 1 1 1 1 1 1 1 1 1 1 1 1 2 2 2 1 1 -0 -1 -1 -1 -1 -1 -1 -1 -2 -3 -4 -5 -6 -9 -9 -9 -8 -7 -6
1 1 2 2 2 2 1 1 1 1 0 1 1 1 1 1 1 1 0 0 1 1 -0 -1 -1 -1 -2 -6 -12 -19 -24 -28 -30 -30 -30 -29 -29 -28 -27 -27 -27 -27 -26
-0 0 2 2 2 1 1 0 0 0 0 0 0 0 1 1 1 -0 -0 -0 -0 -1 -1 -2 -6 -18 -25 -30 -32 -32 -32 -31 -31 -31 -30 -29 -28 -28 -28 -28 -27 -26 -24
-1 1 2 2 1 1 0 -0 -0 -0 -0 -0 0 0 0 0 -0 -1 -0 -0 -1 -2 -3 -14 -23 -28 -32 -32 -32 -31 -30 -30 -30 -29 -29 -29 -27 -27 -28 -28 -27 -27 -26
1 2 2 1 1 0 -0 -1 -1 -0 -0 -0 -0 -0 -0 -1 -1 -1 -1 -1 -2 -6 -20 -24 -28 -30 -30 -31 -31 -30 -29 -29 -29 -29 -28 -28 -28 -29 -29 -29 -27 -27 -25
2 2 1 1 1 0 -0 -0 -0 -0 -1 -1 -1 -1 -1 -1 -1 -1 -2 -2 -8 -18 -22 -26 -28 -28 -29 -28 -30 -30 -29 -29 -28 -28 -27 -28 -28 -28 -27 -26 -26 -25 -26
2 1 1 1 1 0 -0 -0 -0 -1 -1 -1 -1 -2 -2 -2 -2 -2 -2 -11 -16 -20 -22 -25 -27 -28 -28 -29 -29 -30 -29 -28 -27 -27 -27 -28 -28 -28 -27 -26 -25 -24 -24
1 1 1 1 1 0 -0 -1 -1 -1 -1 -0 -1 -1 -2 -2 -2 -2 -12 -16 -18 -20 -22 -24 -26 -28 -29 -28 -29 -29 -28 -27 -27 -27 -27 -27 -27 -27 -26 -26 -26 -25 -23
2 2 1 1 1 1 -0 -1 -1 -1 -1 -0 -0 -1 -2 -2 -2 -6 -16 -16 -18 -19 -21 -22 -25 -28 -29 -29 -29 -29 -28 -27 -27 -27 -26 -26 -27 -27 -27 -26 -26 -24 -22
4 4 3 2 1 1 1 -0 -1 -1 -1 -1 -1 -1 -1 -2 -2 -12 -16 -16 -16 -18 -19 -21 -24 -27 -30 -30 -30 -30 -29 -28 -27 -27 -25 -25 -27 -27 -27 -26 -25 -24 -23
2 2 2 2 2 1 1 1 0 -0 -1 -1 -1 -1 -2 -2 -4 -12 -16 -16 -16 -17 -18 -21 -23 -25 -29 -30 -30 -30 -29 -28 -27 -26 -25 -26 -27 -27 -27 -26 -25 -24 -23

GFSMW_850_dewp_075.txt.gz
Dewpoint
-0 -1 -1 7 9 7 7 10 10 11 12 12 12 12 12 12 13 13 13 13 13 13 12 12 12 12 12 11 12 11 10 10 10 11 10 9 9 9 10 8 8 8 9
1 -1 -2 -2 -1 1 -1 0 2 4 6 7 9 11 11 10 11 12 12 12 12 12 12 12 11 12 11 12 12 12 11 11 11 11 11 11 9 8 8 8 8 8 9
-1 -1 -1 -2 -3 -3 -3 -3 -2 -2 -2 0 3 8 7 7 9 8 9 9 10 10 11 10 8 7 7 7 10 12 12 11 11 10 11 11 9 9 8 8 8 8 8
-1 -2 -1 -2 -2 -2 -3 -2 -2 -2 -2 -1 1 1 1 0 0 1 2 4 5 5 5 4 3 3 2 3 4 8 11 11 10 10 9 10 11 10 9 8 9 8 7
0 -1 -2 -2 -2 -2 -2 -2 -2 -2 -2 -2 -2 -2 -2 -2 -2 -2 -2 -1 -0 -0 0 0 0 1 1 2 3 6 10 11 11 10 9 10 10 10 9 9 8 8 4
-0 -1 -2 -2 -2 -2 -2 -2 -2 -2 -2 -2 -2 -3 -3 -2 -2 -2 -2 -2 -2 -2 -3 -3 -3 -3 -2 -2 0 4 10 11 11 10 9 9 10 9 9 8 7 7 5
-1 -1 -2 -2 -2 -1 -1 -1 -1 -1 -1 -1 -1 -1 -1 -1 -1 -1 -1 -0 -0 -0 -0 -0 -1 -1 -0 0 2 4 6 10 10 10 9 9 9 8 8 8 7 7 6
-2 -1 -2 -2 -1 0 0 -0 -0 -0 -0 -0 0 0 0 0 1 1 1 1 1 1 2 2 2 2 2 1 1 1 6 9 10 10 10 9 9 8 9 8 8 7 6
-2 -2 -1 0 1 1 1 1 1 0 0 0 0 0 0 0 1 1 1 1 1 1 1 1 1 1 1 1 1 2 2 3 6 8 7 7 7 6 6 7 7 6 5
-2 -1 2 2 2 2 2 1 1 1 1 1 1 1 1 1 1 1 1 1 1 1 0 0 0 0 0 0 0 0 1 2 3 4 5 5 5 5 6 5 3 4 4
-0 3 3 3 3 3 2 2 1 1 1 1 1 1 1 1 1 1 1 0 -0 -0 -0 0 0 0 0 0 -0 0 1 1 2 2 2 3 3 3 3 3 3 3 3
2 3 4 3 3 3 2 2 2 2 2 2 1 1 1 1 1 1 1 1 1 1 1 1 2 1 1 1 1 1 1 2 2 2 2 2 2 3 3 2 3 2 3
3 3 3 3 3 3 3 3 2 2 2 1 1 1 1 1 1 1 1 1 1 1 1 2 2 2 2 2 2 2 2 2 2 2 2 2 2 2 2 2 2 2 1
3 3 3 3 3 3 3 2 2 2 1 1 1 1 1 1 1 1 1 1 1 1 1 2 2 2 1 1 2 3 3 3 2 2 2 2 2 2 1 0 -0 -0 -0
3 3 3 3 3 3 3 2 2 2 1 1 1 1 1 1 1 1 1 1 1 1 2 2 1 1 0 1 2 2 2 2 1 0 -0 -0 -1 -1 -2 -3 -3 -3 -3
3 3 3 3 3 3 2 2 2 1 1 1 1 1 1 1 1 1 1 1 1 2 2 1 0 -1 -0 -0 -0 -1 -1 -2 -5 -11 -19 -26 -29 -30 -29 -29 -30 -29 -27
1 1 2 2 2 2 2 2 1 1 1 1 1 1 1 1 1 1 1 0 0 0 1 -0 -1 -1 -1 -5 -12 -22 -28 -31 -32 -32 -32 -31 -30 -29 -28 -29 -29 -27 -28
1 0 1 2 2 2 2 1 1 1 1 0 0 1 0 0 1 -0 -1 -1 -1 -0 -1 -2 -5 -14 -26 -31 -32 -32 -32 -31 -31 -30 -29 -28 -28 -28 -29 -28 -28 -27 -26
-0 1 0 1 2 2 1 1 0 0 0 0 -0 0 0 0 -0 -1 -1 -1 -1 -1 -2 -11 -21 -28 -32 -31 -32 -30 -29 -29 -29 -28 -27 -28 -27 -30 -31 -29 -28 -28 -28
-2 -2 0 2 2 1 1 0 -0 -0 -0 -0 -0 -0 -0 -1 -1 -1 -1 -1 -1 -2 -12 -21 -27 -30 -30 -32 -31 -30 -28 -28 -28 -27 -27 -29 -30 -30 -29 -28 -27 -27 -25
1 1 2 2 1 1 0 -0 -0 -0 -0 -0 -0 -1 -1 -1 -2 -2 -1 -1 -2 -12 -21 -24 -26 -28 -28 -29 -30 -30 -28 -28 -27 -27 -28 -28 -29 -28 -28 -27 -27 -28 -28
2 2 2 1 1 1 0 -0 -0 -1 -1 -1 -1 -1 -1 -1 -2 -1 -2 -2 -6 -18 -21 -24 -27 -28 -28 -29 -29 -30 -29 -29 -27 -27 -27 -27 -28 -28 -27 -27 -28 -27 -26
2 1 1 1 1 2 1 -0 -1 -1 -1 -1 -0 -1 -1 -2 -2 -2 -2 -4 -14 -17 -21 -23 -25 -27 -28 -29 -29 -29 -30 -29 -28 -27 -27 -26 -26 -27 -27 -27 -27 -27 -25
2 2 2 1 1 1 1 -0 -1 -1 -1 -1 -0 -1 -1 -2 -2 -2 -2 -12 -15 -18 -20 -22 -23 -26 -28 -29 -29 -29 -29 -29 -28 -27 -26 -25 -26 -27 -27 -26 -26 -26 -25
4 4 4 3 3 2 1 1 0 -1 -1 -1 -1 -1 -1 -2 -2 -2 -4 -15 -15 -17 -18 -20 -21 -23 -27 -29 -30 -30 -30 -29 -29 -28 -25 -25 -26 -26 -26 -26 -26 -26 -26
2 2 2 2 3 3 2 1 1 1 -0 -1 -1 -1 -1 -1 -2 -2 -7 -16 -15 -16 -17 -18 -20 -22 -23 -28 -30 -30 -30 -30 -30 -28 -26 -25 -26 -25 -25 -25 -26 -26 -25

GFSMW_850_dewp_078.txt.gz
Dewpoint
3 0 3 10 11 10 10 10 10 11 12 13 13 13 12 12 12 12 13 13 13 13 13 13 12 12 12 12 13 12 12 11 11 11 11 12 11 9 10 8 9 9 9
3 1 1 -2 10 10 7 8 10 10 10 11 12 11 11 12 12 11 12 13 12 12 12 12 12 12 12 12 11 11 12 12 12 12 12 11 8 8 9 8 8 8 8
4 2 -0 -0 -2 3 5 2 4 5 6 6 5 7 7 8 10 9 10 10 9 8 9 9 10 10 11 9 8 9 11 12 12 12 12 11 8 9 9 9 8 8 7
4 1 -2 -1 -1 -3 -2 -1 -1 -0 1 1 2 3 5 6 4 3 2 2 2 3 5 6 7 7 6 4 3 4 5 12 12 12 11 10 10 10 9 8 8 8 8
4 1 0 -0 -1 -2 -2 -2 -2 -2 -1 -1 -1 -1 -0 -1 -1 -1 -1 -1 -1 -1 0 1 1 1 1 0 0 1 2 9 10 11 11 10 11 10 9 9 9 7 7
3 2 1 -0 -1 -2 -2 -2 -2 -2 -2 -2 -2 -2 -2 -2 -2 -3 -2 -2 -2 -2 -2 -2 -2 -3 -3 -3 -3 -2 -1 3 8 9 10 10 10 9 9 9 8 7 6
3 1 -0 -1 -1 -2 -2 -1 -1 -1 -1 -2 -2 -2 -2 -3 -2 -2 -1 -1 -1 -1 -1 -1 -1 -1 -1 -1 -1 -0 0 3 8 8 9 9 10 9 8 8 7 7 7
2 1 0 -1 -1 -2 -1 -1 -1 -1 -1 -1 -1 -1 -1 -1 -0 -0 0 1 1 1 1 1 1 1 2 2 2 2 2 4 9 9 10 8 9 8 8 7 7 7 6
-3 -1 -0 1 -1 -1 0 1 0 -0 -1 -1 -0 -0 -0 -0 -0 0 0 0 1 1 1 1 0 0 0 0 0 1 1 2 4 7 8 7 8 7 6 6 6 6 5
-3 -3 1 3 2 2 2 1 1 1 0 0 0 0 0 0 0 0 0 0 0 0 0 0 0 0 -0 -0 -0 0 1 1 3 5 7 7 7 6 6 5 4 5 4
0 2 3 3 3 2 2 2 1 1 1 1 1 1 1 1 1 1 1 1 1 0 -0 -0 -0 0 0 1 0 0 0 1 2 3 4 3 3 3 3 3 3 3 2
2 3 3 3 3 3 2 2 2 1 1 1 2 1 1 1 1 1 1 1 1 1 1 1 1 1 1 1 1 0 1 1 2 2 2 2 2 2 2 2 2 2 2
3 4 4 3 3 3 2 2 2 2 2 2 2 1 1 1 1 1 1 1 1 1 1 1 1 1 1 1 2 2 1 2 2 2 2 2 2 2 2 2 2 2 1
3 4 4 3 3 3 3 3 2 2 2 2 1 1 1 1 1 1 1 1 1 1 1 1 1 2 1 1 1 2 3 3 2 2 2 2 2 2 1 1 0 -0 -0
3 4 4 4 3 3 3 3 3 2 2 1 1 1 1 1 1 1 1 1 1 1 1 1 2 1 1 1 1 2 3 3 2 1 0 0 -1 -1 -2 -3 -6 -8 -7
3 3 3 3 3 3 3 3 2 2 2 1 1 1 1 1 1 1 0 1 1 1 1 2 1 0 -0 0 0 0 -0 -0 -2 -8 -17 -24 -30 -31 -32 -32 -31 -32 -30
1 3 3 2 3 3 3 2 2 2 1 1 1 1 1 1 1 1 1 1 1 1 1 1 -0 -1 -1 -1 -1 -5 -15 -26 -30 -31 -31 -30 -30 -30 -30 -30 -31 -30 -30
-1 1 3 2 2 3 2 2 2 1 1 1 1 1 0 1 0 1 0 0 -0 0 0 -0 -1 -1 -6 -21 -29 -31 -31 -31 -30 -30 -29 -29 -29 -30 -32 -31 -30 -29 -28
-0 1 1 1 2 2 2 2 2 1 1 1 0 0 0 0 0 -0 -0 -1 -1 -1 -0 -2 -8 -21 -30 -32 -32 -30 -29 -29 -29 -28 -28 -29 -29 -32 -32 -30 -29 -29 -28
-2 -0 0 1 1 2 2 2 1 0 0 0 0 -0 0 -0 -0 -0 -1 -1 -1 -1 -2 -10 -21 -28 -30 -32 -31 -29 -28 -28 -27 -27 -27 -28 -31 -31 -31 -28 -28 -28 -25
-1 -0 -0 0 1 2 2 1 0 -0 -0 -0 -0 -0 -0 -1 -1 -1 -1 -2 -2 -1 -5 -18 -25 -28 -27 -29 -31 -30 -27 -27 -26 -26 -26 -26 -29 -30 -30 -29 -29 -29 -28
1 1 2 2 2 1 1 1 -0 -0 -0 -0 -1 -1 -0 -1 -1 -1 -2 -2 -2 -3 -16 -21 -24 -26 -27 -28 -29 -30 -29 -28 -26 -26 -26 -26 -28 -29 -29 -28 -29 -29 -28
2 2 1 1 1 1 1 1 -0 -0 -1 -1 -1 -1 -0 -1 -1 -2 -2 -1 -2 -8 -18 -21 -23 -25 -27 -27 -29 -29 -29 -29 -27 -26 -26 -26 -27 -27 -27 -27 -27 -27 -26
1 1 1 1 1 1 1 1 0 -0 -1 -1 -1 -1 -1 -1 -1 -2 -2 -2 -3 -13 -17 -20 -22 -23 -25 -27 -28 -28 -29 -29 -28 -26 -26 -25 -25 -27 -26 -24 -24 -25 -25
4 4 4 3 3 2 1 2 2 1 -0 -1 -1 -1 -1 -1 -1 -1 -2 -2 -5 -14 -17 -19 -20 -21 -23 -25 -27 -29 -29 -29 -28 -28 -27 -25 -25 -26 -25 -24 -24 -25 -25
3 3 3 3 4 4 4 4 3 2 1 -0 -1 -1 -1 -1 -2 -2 -2 -2 -9 -14 -16 -17 -18 -19 -21 -22 -25 -29 -30 -30 -29 -29 -28 -26 -26 -26 -24 -23 -23 -23 -24

GFSMW_850_dewp_081.txt.gz
Dewpoint
4 2 3 8 10 14 14 15 14 14 15 14 14 15 14 15 14 14 14 14 14 14 13 13 14 14 13 14 13 13 12 12 12 12 12 11 11 11 10 10 10 9 9
3 2 1 3 7 10 10 13 14 13 14 14 14 14 14 14 14 14 13 14 13 13 13 13 13 14 13 13 13 13 13 12 11 12 12 11 10 8 7 9 9 9 8
2 3 1 1 -0 7 9 10 12 14 12 13 13 12 11 11 11 12 12 11 9 11 11 10 10 10 11 12 12 12 13 11 12 11 11 10 9 8 8 9 9 9 8
2 4 3 -0 1 -0 6 8 6 8 8 8 9 9 10 11 12 10 9 4 5 4 3 3 4 5 7 7 7 6 6 7 9 9 9 10 10 10 9 8 8 8 8
2 4 3 -1 -1 0 -2 -2 1 0 1 3 5 6 6 4 2 1 -0 -1 -1 -1 -1 -1 -0 0 1 1 1 0 0 1 7 8 9 9 9 9 10 9 7 7 7
2 3 2 0 0 -0 -1 -2 -2 -2 -1 -0 0 -0 -1 -1 -2 -2 -2 -2 -2 -3 -3 -2 -2 -2 -2 -2 -2 -2 -1 1 3 6 9 9 9 10 9 9 7 7 7
2 4 2 0 0 -1 -1 -2 -1 -1 -1 -1 -1 -2 -2 -2 -2 -2 -2 -1 -1 -1 -2 -1 -1 -1 -1 -1 -1 -0 0 1 4 9 10 8 8 9 9 8 9 8 8
2 4 2 1 1 -1 -1 -2 -1 -1 -0 -1 -1 -2 -2 -2 -2 -2 -1 -1 0 0 0 1 1 1 1 1 1 2 2 2 2 4 8 8 8 9 8 9 9 7 6
-0 1 3 1 3 1 -1 -1 -0 -1 -1 -1 -1 -2 -2 -2 -1 -1 -0 -0 0 0 1 1 0 0 0 0 -0 0 0 1 1 3 7 7 7 8 7 7 7 6 6
-2 -2 -1 1 3 2 2 1 1 1 0 -0 -1 -1 -1 -0 -0 0 0 0 0 0 0 0 0 -0 -0 -0 -0 -0 -0 0 1 4 6 6 6 6 7 6 6 5 5
-1 -1 1 3 4 3 2 2 1 1 0 -0 -0 0 0 1 1 1 1 1 1 1 1 0 -0 -0 -0 -0 0 1 0 1 1 2 5 5 6 5 4 3 4 4 3
1 1 3 4 4 3 2 2 1 1 0 1 1 1 1 1 1 1 1 1 1 1 0 0 1 1 1 1 1 1 1 1 1 2 2 2 2 2 2 2 3 2 2
2 2 3 4 3 3 2 2 1 1 1 1 1 1 1 1 1 1 1 1 1 1 0 0 1 1 1 1 1 2 2 2 2 2 2 2 2 2 2 2 2 2 2
3 3 3 4 3 3 3 2 2 2 2 2 2 2 1 1 1 1 1 1 1 1 0 1 1 1 1 1 1 1 2 2 2 2 2 2 2 2 2 1 1 0 -0
2 3 4 4 4 3 3 3 2 2 2 2 2 1 1 1 1 1 1 1 0 1 1 1 1 1 1 1 1 2 2 3 2 2 1 1 1 -0 -1 -2 -3 -5 -7
1 3 4 4 4 3 3 3 3 3 2 2 2 1 1 1 1 1 1 1 0 0 1 1 1 1 0 0 1 2 2 2 0 -1 -6 -15 -28 -31 -32 -31 -32 -32 -31
-1 2 3 3 4 4 3 3 3 3 2 2 2 1 1 1 1 1 1 1 1 1 1 1 1 0 -1 -0 -0 -0 -1 -6 -18 -28 -31 -31 -30 -30 -30 -31 -32 -31 -32
0 -0 1 3 3 4 3 3 3 2 2 2 1 1 1 1 1 1 0 0 0 0 0 0 0 -1 -1 -1 -8 -20 -29 -31 -31 -30 -29 -28 -27 -28 -33 -31 -30 -30 -30
-2 -2 -1 2 3 3 3 3 2 2 2 2 1 1 1 0 0 0 0 0 -0 -0 -0 -0 -1 -2 -9 -26 -32 -32 -30 -29 -28 -27 -27 -27 -27 -31 -32 -30 -29 -28 -29
-1 1 1 3 3 3 2 2 2 2 2 1 1 0 0 0 0 0 -0 -0 -0 -1 -1 -1 -5 -16 -28 -31 -32 -30 -28 -27 -26 -26 -26 -27 -30 -31 -31 -28 -27 -27 -27
-0 1 2 2 2 2 2 2 2 2 1 0 0 0 -0 -0 -0 -0 -1 -1 -1 -1 -1 -3 -13 -22 -29 -30 -31 -30 -26 -26 -26 -25 -25 -24 -28 -29 -30 -30 -27 -27 -29
-0 1 1 1 1 1 2 2 1 1 0 -0 -0 -0 -0 -1 -1 -1 -1 -1 -2 -2 -2 -3 -15 -24 -25 -27 -30 -30 -29 -27 -26 -25 -25 -25 -26 -27 -28 -27 -28 -29 -28
1 1 2 2 2 2 1 1 1 0 -0 -0 -1 -1 -1 -1 -0 -0 -1 -2 -2 -2 -2 -9 -20 -25 -26 -26 -28 -28 -29 -29 -28 -26 -25 -27 -26 -26 -26 -25 -25 -25 -23
1 1 1 1 1 1 1 1 1 1 0 1 0 -1 -1 -0 -0 -1 -1 -2 -2 -2 -2 -13 -21 -24 -26 -27 -27 -28 -28 -29 -28 -27 -26 -26 -25 -25 -26 -26 -22 -22 -22
3 3 3 2 2 2 1 1 1 1 1 1 -0 -1 -1 -1 -0 -1 -1 -2 -1 -2 -2 -14 -20 -22 -24 -25 -25 -26 -27 -28 -28 -28 -27 -28 -26 -24 -26 -25 -22 -22 -21
4 4 4 4 4 4 4 3 3 3 2 2 2 0 -1 -1 -1 -1 -1 -2 -2 -2 -4 -14 -17 -19 -20 -21 -22 -23 -26 -28 -29 -29 -29 -28 -26 -25 -25 -26 -22 -21 -20

GFSMW_850_dewp_084.txt.gz
Dewpoint
4 4 5 8 11 13 13 12 13 14 14 14 14 13 13 13 13 13 13 13 13 13 13 13 13 13 13 13 13 12 12 12 12 12 12 11 11 10 11 10 10 9 9
4 3 3 4 9 11 11 11 12 13 13 14 14 13 13 13 14 13 13 14 14 13 14 14 14 13 13 13 12 12 12 12 12 11 11 10 9 8 8 8 10 9 9
3 3 2 2 6 9 10 11 11 13 11 12 13 13 13 12 13 13 13 13 13 12 12 12 13 13 14 13 13 13 11 11 11 11 10 10 9 9 8 9 9 9 8
1 3 3 3 3 4 9 10 11 11 10 10 8 7 9 10 12 12 11 7 6 6 8 7 5 4 4 4 5 6 7 11 10 8 9 10 10 9 9 8 8 8 8
2 2 3 3 1 2 2 8 9 10 10 10 9 9 11 11 11 12 10 6 1 -1 -1 -1 -2 -2 -1 -1 -0 -0 -0 -0 1 7 8 8 9 9 8 8 7 7 7
1 1 2 3 3 1 -1 -1 2 4 3 4 5 7 7 6 5 1 -1 -2 -2 -2 -2 -3 -3 -3 -2 -2 -2 -2 -1 -1 -0 7 8 8 7 9 7 8 9 9 7
0 1 3 3 1 -0 -0 -1 -1 -2 -2 -1 0 1 1 -1 -2 -2 -2 -2 -2 -2 -3 -2 -2 -1 -1 -1 -0 0 1 1 2 6 8 8 8 8 9 8 8 8 9
-0 1 3 3 1 -0 -0 -1 -1 -1 -1 -1 -1 -1 -1 -2 -2 -2 -2 -2 -1 -1 -1 -0 0 0 0 1 1 1 1 2 1 2 4 8 7 8 9 9 7 8 8
-0 1 3 3 3 0 -0 -1 -1 -1 -0 -1 -1 -1 -1 -2 -2 -2 -2 -1 -0 -0 0 0 0 -0 -0 -0 -0 -0 -0 0 -0 1 2 6 8 6 7 7 8 7 7
-2 -1 3 2 2 1 1 -0 -0 0 0 0 -0 -1 -1 -2 -2 -1 -1 -0 -0 -0 0 0 0 -0 -0 -1 -1 -1 -1 -1 -0 1 3 6 5 6 5 6 6 6 6
-3 -1 -2 1 2 2 2 1 1 0 1 0 -0 -0 -1 -1 -0 -0 -0 0 0 0 0 0 0 0 -0 -0 -0 -0 0 1 0 1 4 5 5 5 5 5 5 4 4
-0 -0 0 2 3 3 3 3 2 1 0 0 -0 -0 0 0 0 0 1 0 1 1 1 0 0 -0 0 1 1 1 1 1 1 1 2 3 4 4 3 2 2 3 3
1 1 2 3 4 4 3 3 3 3 2 3 2 1 0 1 1 1 0 1 1 1 1 0 0 -0 0 1 1 1 1 1 2 1 2 2 2 2 2 2 2 2 2
1 2 3 3 3 3 3 3 3 2 1 1 1 1 1 1 1 1 1 1 1 1 1 1 0 0 0 1 1 1 1 2 2 2 2 2 1 1 2 2 1 1 1
1 2 3 3 3 3 3 3 2 2 1 2 2 2 2 1 1 1 1 1 1 1 0 0 0 1 1 1 1 1 1 2 2 2 2 1 2 1 0 -0 -1 -2 -3
-2 0 3 4 4 3 3 3 2 2 2 2 2 2 2 1 1 1 1 1 1 0 0 0 1 1 1 1 1 1 1 1 1 1 -0 -3 -10 -16 -24 -31 -32 -32 -31
-1 -0 1 3 4 4 3 3 2 2 2 2 2 2 2 1 1 1 1 1 1 1 0 1 1 1 1 -0 0 1 1 0 -1 -8 -22 -28 -28 -30 -29 -31 -32 -31 -32
0 0 0 2 3 4 4 3 3 2 2 2 2 2 2 1 1 1 1 0 0 0 0 0 -0 1 -0 -1 -1 -2 -7 -18 -27 -30 -29 -28 -26 -26 -31 -29 -29 -29 -29
-0 -1 -1 -1 2 3 4 4 3 2 2 2 2 2 1 1 1 0 0 0 0 -0 -0 -0 -1 -0 -1 -2 -13 -28 -29 -28 -28 -26 -25 -25 -24 -27 -32 -28 -27 -27 -27
-1 -1 -2 -2 1 3 4 4 3 2 2 2 2 1 1 0 0 0 0 0 -0 -1 -1 -1 -1 -1 -8 -21 -30 -30 -27 -26 -26 -25 -24 -27 -28 -30 -31 -27 -24 -24 -22
0 -0 2 2 3 3 3 3 3 2 2 2 1 1 0 0 0 -0 -0 -1 -1 -1 -1 -1 -1 -5 -18 -27 -30 -30 -27 -25 -24 -24 -24 -24 -25 -29 -30 -29 -24 -23 -24
-0 1 2 2 3 3 3 2 2 2 2 1 0 0 -0 -0 -0 -1 -1 -0 -1 -1 -1 -1 -2 -10 -20 -28 -28 -30 -30 -26 -25 -24 -23 -23 -24 -27 -27 -27 -25 -25 -23
1 1 1 1 2 2 2 2 2 1 1 0 -0 -0 -1 -1 -1 -1 -0 -0 -1 -1 -2 -2 -2 -9 -21 -25 -26 -26 -29 -29 -29 -27 -25 -25 -26 -26 -26 -26 -25 -23 -20
1 1 1 1 1 1 1 1 1 1 1 0 -0 -0 0 -0 -1 -1 -0 -1 -1 -2 -2 -1 -2 -12 -22 -25 -26 -26 -27 -29 -29 -29 -28 -27 -26 -26 -25 -26 -25 -21 -20
3 2 2 2 2 1 1 1 1 1 1 1 1 1 1 0 -1 -1 -1 -1 -2 -2 -2 -1 -3 -14 -21 -24 -24 -25 -26 -27 -27 -27 -28 -28 -27 -27 -25 -25 -26 -23 -21
4 4 4 4 4 4 4 4 3 3 2 2 2 2 2 1 0 -0 -1 -1 -2 -2 -2 -2 -2 -12 -18 -20 -21 -21 -22 -24 -26 -28 -29 -29 -29 -28 -26 -26 -26 -25 -21

GFSMW_850_dewp_087.txt.gz
Dewpoint
5 4 8 12 13 13 13 12 13 13 11 13 12 12 12 12 11 12 13 13 13 12 12 12 13 13 12 12 12 12 11 11 11 11 11 11 10 9 7 7 9 10 9
4 4 4 6 11 12 14 13 13 13 13 12 12 12 12 12 12 12 12 13 13 13 13 12 13 13 13 12 12 12 11 12 11 11 10 10 8 8 7 7 8 9 10
3 4 3 3 6 10 11 12 13 12 11 13 13 13 12 12 12 12 12 12 13 13 13 13 12 13 12 12 12 12 11 11 10 11 10 10 9 9 8 8 10 9 8
3 3 3 3 3 6 10 11 11 11 11 12 12 11 10 10 10 8 8 9 11 11 10 11 11 10 7 4 3 3 4 8 6 8 9 10 10 10 9 7 8 9 9
2 2 3 3 3 3 6 9 11 10 10 10 9 10 9 9 9 9 8 9 8 6 3 1 -0 -1 -2 -2 -2 -2 -1 -0 0 0 5 7 9 8 10 10 7 7 9
1 1 2 3 3 3 3 5 9 11 10 10 9 9 8 9 10 9 7 9 7 -0 -2 -2 -2 -3 -3 -2 -2 -2 -2 -1 -1 -1 -1 8 8 9 8 9 8 8 9
0 1 1 2 2 2 2 2 4 9 9 9 11 10 9 9 9 8 6 0 -2 -2 -2 -2 -3 -2 -2 -1 -1 -0 0 1 1 2 3 6 8 7 7 8 8 9 8
-0 1 1 2 3 2 1 0 0 -0 -0 1 1 2 3 3 1 -1 -2 -2 -2 -2 -2 -2 -1 -1 -0 -0 0 0 0 0 0 1 1 3 5 8 8 8 7 7 7
-1 0 1 1 3 3 1 -0 -1 -0 -0 -1 -1 -1 -1 -1 -1 -2 -2 -2 -2 -1 -1 -1 -1 -1 -1 -1 -1 -1 -0 -0 -0 0 0 1 5 7 7 7 6 8 7
-2 0 2 2 2 3 1 -0 -0 -1 0 0 0 -1 -0 -1 -1 -1 -2 -2 -1 -0 -0 -0 -0 -0 -0 -0 -0 -1 -1 -1 -1 -1 -0 1 4 5 5 5 5 6 6
-4 -2 -0 3 2 2 2 1 -0 -0 -0 -0 0 -0 -0 -0 -1 -1 -0 -0 0 0 0 0 0 0 0 -0 -0 -0 -0 0 0 -0 0 1 4 4 4 4 4 5 5
-3 -2 -1 -1 2 2 2 2 1 0 -0 -0 -0 -1 -1 -1 -1 0 0 1 0 0 0 0 0 0 0 -0 -0 0 0 1 1 1 1 2 3 3 4 4 4 3 3
-2 -2 -1 0 2 2 3 3 3 2 2 2 0 1 3 4 5 3 3 1 1 1 1 1 1 0 0 -0 0 1 1 1 1 2 1 1 2 2 3 2 2 2 2
-1 -1 1 1 2 3 3 4 4 4 3 2 3 5 5 3 2 1 1 0 1 1 1 0 0 0 0 0 0 1 1 1 1 2 2 1 1 1 1 1 1 1 1
1 0 0 0 1 3 3 4 3 3 3 2 2 1 1 1 1 1 1 1 1 1 1 0 0 -0 -0 0 1 1 1 1 1 2 2 2 2 1 2 1 0 -0 -1
-2 -1 -1 -1 0 2 2 3 3 3 2 2 1 2 2 2 2 1 1 1 1 1 1 1 0 0 0 1 1 1 0 1 1 1 2 1 1 0 -2 -5 -14 -21 -21
-1 -1 -0 1 0 2 3 3 2 2 2 2 2 2 2 2 2 1 1 1 1 1 1 0 0 0 1 1 0 0 0 0 0 0 -3 -12 -24 -28 -28 -29 -30 -32 -32
-1 -1 0 0 2 2 3 3 3 2 2 2 2 2 2 2 2 1 1 0 0 0 0 0 0 0 1 -0 -1 -0 -0 -0 -4 -14 -25 -27 -26 -25 -27 -27 -27 -27 -28
-2 -1 -0 -0 0 3 3 4 3 3 3 2 2 2 2 2 1 1 0 0 0 0 0 0 -0 -0 -0 -1 -1 -2 -12 -21 -27 -28 -26 -24 -21 -22 -33 -28 -26 -26 -26
-1 -0 -1 -1 -1 1 3 3 3 3 3 3 2 2 2 2 1 0 0 0 0 -0 -0 -0 -0 -1 -1 -2 -8 -25 -29 -27 -26 -25 -24 -25 -24 -25 -31 -27 -23 -23 -21
0 0 0 -1 -2 -2 3 4 4 3 3 2 2 2 2 1 0 0 -0 -0 -0 -0 -1 -1 -1 -1 -2 -11 -26 -28 -29 -26 -25 -24 -23 -23 -24 -29 -29 -29 -23 -22 -22
1 0 2 3 3 3 4 4 4 3 3 2 2 2 1 0 0 -0 -1 -1 -0 -0 -1 -1 -1 -1 -5 -18 -24 -29 -29 -26 -24 -23 -23 -22 -23 -25 -27 -27 -25 -25 -24
1 1 1 2 3 3 3 3 3 3 2 2 1 1 0 -0 -0 -1 -1 -1 -0 -0 -1 -1 -1 -2 -7 -17 -25 -23 -27 -28 -27 -25 -24 -24 -24 -26 -26 -26 -25 -24 -21
1 1 1 1 1 2 2 2 2 2 1 1 1 0 -0 -0 -0 -0 -1 -0 -0 -1 -1 -2 -2 -2 -5 -16 -22 -23 -25 -26 -28 -28 -28 -27 -26 -26 -25 -25 -25 -25 -21
2 2 3 2 2 1 1 1 1 1 1 1 1 0 0 1 1 -0 -0 -1 -0 -1 -2 -2 -2 -2 -5 -17 -21 -23 -24 -25 -25 -25 -26 -26 -27 -26 -26 -25 -24 -25 -25
3 3 3 3 4 3 3 3 2 2 1 1 1 1 1 2 2 1 1 1 -0 -1 -2 -2 -2 -1 -5 -15 -19 -21 -22 -22 -23 -24 -26 -27 -28 -28 -28 -27 -25 -25 -26

GFSMW_850_dewp_090.txt.gz
Dewpoint
5 6 12 12 13 13 13 13 13 13 14 14 13 13 13 12 12 12 12 11 11 11 11 12 12 12 12 12 12 11 11 11 10 11 9 10 9 9 8 6 6 8 9
5 4 7 9 11 12 13 13 13 13 13 13 13 14 13 13 12 11 12 13 13 13 12 12 12 12 12 12 12 12 11 11 11 10 10 9 9 7 8 8 7 7 9
3 4 4 6 8 10 10 12 12 12 13 11 12 13 12 12 12 12 12 11 12 12 12 12 12 12 12 12 12 12 12 11 10 10 10 9 8 8 9 9 9 9 9
3 3 3 4 5 6 10 11 11 12 12 12 12 12 11 12 12 11 10 11 12 12 8 9 10 11 11 9 10 9 8 8 7 5 8 8 10 8 8 8 9 9 9
2 2 3 3 3 4 5 9 10 11 12 11 11 12 11 11 11 10 9 10 9 7 6 10 9 8 7 4 0 -1 -1 -1 -1 -0 1 2 9 8 8 8 8 9 8
1 2 2 2 2 3 4 6 7 10 10 10 11 11 10 10 10 9 9 8 8 9 10 7 1 -1 -2 -2 -3 -3 -3 -2 -2 -1 -1 0 4 6 8 9 9 9 9
1 1 1 1 2 2 2 4 7 8 9 9 10 10 10 10 9 9 8 9 9 8 6 -1 -2 -2 -3 -3 -2 -2 -1 -1 -0 0 1 2 3 7 7 8 7 8 9
1 0 0 1 1 2 2 2 4 6 8 8 8 9 9 9 8 8 8 8 8 1 -2 -2 -3 -3 -2 -1 -1 -1 -1 -1 -1 -0 1 1 1 2 7 7 7 8 8
-2 -1 -1 0 1 2 2 2 1 1 2 6 7 8 8 8 7 7 5 1 -1 -1 -2 -2 -1 -1 -1 -1 -1 -1 -1 -1 -1 -0 0 0 -0 1 6 6 7 6 7
-2 -2 0 0 1 2 2 2 1 1 0 0 1 1 2 2 0 -0 -0 -1 -1 -1 -1 -0 -1 -1 -0 -0 -0 -0 -0 -0 -1 -1 -1 -1 0 2 4 5 6 6 6
-5 -2 -1 2 2 2 2 2 1 1 0 1 0 0 1 1 1 0 -1 -1 -1 -1 -1 -0 0 -0 0 0 -0 -0 -0 -0 -0 0 0 0 1 2 4 4 4 4 4
-3 -4 -3 -2 2 2 2 2 1 1 1 1 1 2 4 3 3 4 4 1 -0 -0 0 0 0 0 0 0 0 -0 -0 -0 0 1 1 1 2 2 3 3 3 3 3
-3 -3 -3 -3 -2 1 3 3 3 2 2 2 2 1 1 0 -0 2 3 3 4 4 2 1 0 0 0 0 0 0 -0 0 1 1 1 1 2 2 2 2 3 3 3
-2 -2 -3 -2 -2 -1 1 2 3 3 3 3 3 2 1 1 2 5 4 4 2 1 1 1 0 0 0 0 0 0 0 1 1 1 1 2 2 1 1 2 2 2 2
-2 -2 -2 -3 -4 -2 -1 0 3 4 4 4 3 2 1 4 4 3 2 1 1 1 1 0 0 0 0 0 -0 0 1 1 1 1 1 1 1 1 1 1 2 1 1
-2 -1 0 -0 -1 -2 -2 -0 2 3 3 4 4 3 3 1 1 1 1 1 1 1 0 0 0 0 0 0 0 1 1 1 0 1 1 1 1 1 1 0 -0 -1 -3
-2 -2 -1 -1 -0 1 1 1 1 2 3 3 2 2 1 2 2 2 2 1 1 1 0 1 0 0 0 0 1 1 0 0 0 -0 1 -0 -7 -16 -23 -25 -28 -30 -30
-1 -1 -1 -1 -0 0 2 2 3 2 3 3 2 2 2 2 2 2 2 1 1 0 0 0 0 0 -0 -0 0 -0 -0 -0 -0 -0 -4 -17 -25 -26 -26 -25 -27 -27 -28
-2 -2 -2 -2 -1 -0 0 3 3 3 3 3 2 2 2 2 2 2 1 1 0 0 0 0 -0 -0 -1 -1 -1 -1 -1 -1 -4 -14 -26 -26 -23 -21 -25 -28 -26 -25 -25
0 -0 -1 -1 -1 -1 -1 3 3 3 3 3 2 2 2 2 2 2 1 0 0 0 0 -0 -0 -0 -1 -1 -1 -3 -12 -21 -27 -26 -25 -24 -23 -21 -29 -29 -23 -23 -22
1 1 -1 -0 -0 -1 -1 1 3 3 3 3 3 3 2 2 2 1 1 0 -0 -0 -0 -0 -0 -1 -1 -1 -4 -16 -27 -26 -25 -23 -24 -23 -24 -27 -30 -30 -22 -21 -19
1 1 -0 1 2 1 1 -0 1 3 3 3 3 2 2 2 1 1 0 -0 -1 -1 -0 -0 -1 -1 -1 -1 -12 -25 -27 -27 -24 -22 -22 -22 -22 -23 -27 -28 -27 -24 -26
2 1 1 2 3 3 4 3 3 4 3 3 3 2 2 1 1 0 -0 -1 -1 -1 -0 -0 -1 -1 -1 -2 -14 -22 -27 -27 -25 -24 -23 -22 -22 -23 -25 -27 -27 -26 -25
1 1 1 1 2 3 3 3 3 3 3 2 2 2 1 1 0 -0 -0 -0 -0 -0 -0 -1 -1 -1 -2 -2 -13 -23 -22 -25 -27 -27 -27 -26 -25 -25 -25 -24 -24 -25 -25
1 1 2 1 1 1 1 2 2 2 2 1 1 1 1 0 0 0 1 -0 0 -0 -1 -1 -2 -2 -2 -1 -9 -20 -21 -22 -22 -22 -24 -26 -26 -26 -26 -25 -25 -24 -25
2 2 3 3 3 2 3 2 2 2 1 1 1 1 0 0 1 1 1 1 1 0 -1 -2 -2 -2 -2 -2 -11 -19 -21 -22 -22 -23 -24 -25 -25 -25 -26 -26 -26 -25 -25

GFSMW_850_dewp_093.txt.gz
Dewpoint
9 9 11 12 13 12 12 12 11 11 11 11 11 11 11 7 12 12 12 12 12 11 12 12 12 12 12 11 12 12 11 10 10 9 9 9 9 8 7 7 7 7 7
5 5 8 11 11 11 12 12 12 12 11 12 10 9 8 10 12 12 12 12 12 12 12 11 11 12 11 11 12 11 11 11 10 10 9 9 8 7 6 7 8 7 6
5 4 5 9 11 11 11 12 12 12 12 12 11 12 13 12 12 12 12 11 12 12 12 11 11 11 11 11 12 11 11 10 10 9 10 9 9 9 8 7 8 8 9
4 3 4 4 4 8 9 9 9 10 11 11 11 12 12 12 13 12 11 12 12 11 11 9 8 10 10 11 12 12 9 10 10 8 7 8 10 10 8 7 7 8 8
3 3 3 3 3 4 5 9 10 10 10 11 11 11 10 11 12 11 11 11 11 11 7 6 8 9 9 10 9 6 3 1 -1 -1 -1 1 3 4 8 8 7 7 7
2 2 2 2 2 3 3 4 8 8 9 9 10 11 10 10 11 11 11 11 11 9 8 9 8 8 8 -0 -2 -2 -2 -2 -2 -2 -1 -1 1 2 5 7 6 7 7
1 2 2 1 2 2 2 2 3 5 6 7 9 9 10 10 10 10 10 11 10 9 8 8 8 8 -1 -2 -3 -3 -3 -2 -1 -0 0 1 2 3 4 6 7 7 8
0 0 0 1 1 1 2 2 3 3 4 7 8 8 9 9 9 10 10 11 10 9 7 5 5 -1 -2 -3 -2 -2 -1 -1 -1 -0 0 1 2 4 3 5 6 8 8
-1 -1 -1 -1 -0 0 1 2 2 2 5 7 7 7 8 9 9 9 8 7 7 8 7 2 -1 -2 -2 -1 -2 -1 -1 -1 -1 -0 -0 0 0 1 1 2 6 5 7
-2 -2 -3 -2 -1 0 1 2 2 2 3 2 2 4 7 8 10 8 8 6 5 2 -0 -1 -1 -1 -1 -1 -1 -1 -1 -0 -0 -0 -0 -0 -0 -0 1 4 4 5 6
-5 -4 -3 -2 2 1 1 2 2 2 2 1 1 2 4 6 5 4 4 3 1 2 0 0 -0 -0 -1 -1 -0 -0 -0 -0 -0 -0 -0 0 0 1 2 4 3 4 4
-3 -3 -4 -4 -4 2 2 2 2 2 2 2 2 2 2 3 2 2 2 1 3 3 3 4 3 3 2 -0 0 0 0 -0 -0 0 0 1 1 1 2 2 3 3 3
-2 -3 -4 -4 -4 -4 0 2 2 2 2 2 2 3 3 1 1 3 4 4 4 2 2 2 3 2 0 0 0 0 0 0 -0 0 1 1 1 1 2 2 2 2 2
-2 -3 -3 -3 -3 -4 -4 -2 1 3 3 2 2 3 3 2 3 3 3 1 1 3 4 3 1 0 0 0 0 0 -0 -0 0 0 1 1 1 1 1 1 1 1 2
-2 -3 -3 -2 -2 -3 -3 -2 -1 2 3 3 3 3 3 3 1 1 2 4 4 2 1 1 1 0 0 0 0 0 -0 -0 0 1 1 1 1 0 0 0 1 1 1
-2 -2 -2 -1 -0 -0 -1 -1 -1 1 3 4 4 4 3 3 1 2 3 2 1 1 1 1 0 0 0 0 0 0 0 1 1 0 0 1 0 0 1 1 1 1 0
-2 -2 -2 -2 -1 -1 -1 0 0 1 2 3 4 4 3 2 2 2 1 1 1 1 1 1 0 0 0 0 0 0 0 -0 -0 0 0 0 0 -5 -7 -8 -6 -10 -13
-1 -1 -2 -2 -2 -2 -1 -0 1 2 3 3 3 3 3 3 2 1 2 2 1 1 1 0 0 0 0 -0 -0 0 -0 -1 -1 -1 -1 -0 -9 -22 -25 -25 -26 -27 -28
-1 -2 -1 -1 -2 -3 -3 -1 0 2 3 3 3 3 2 2 2 2 2 2 1 1 0 0 0 0 -0 -0 -0 -0 -1 -1 -1 -1 -2 -15 -23 -22 -22 -24 -24 -24 -24
-1 -0 0 0 -0 -1 -1 -1 -0 2 3 3 2 3 2 2 2 2 2 2 1 1 0 0 -0 -0 -0 -1 -1 -1 -1 -2 -5 -12 -23 -24 -21 -20 -21 -29 -24 -23 -22
-0 0 1 1 -0 -1 -0 -0 -1 2 3 3 3 3 2 2 2 2 2 2 1 0 -0 -0 -1 -0 -0 -1 -1 -1 -7 -18 -24 -25 -23 -21 -21 -26 -26 -29 -22 -21 -20
-0 1 1 1 0 0 2 0 -0 -1 3 3 3 3 3 2 2 2 2 1 0 -0 -1 -1 -1 -0 -0 -1 -1 -2 -17 -24 -24 -23 -21 -21 -22 -23 -25 -28 -27 -22 -21
1 1 1 1 1 2 3 3 2 0 2 3 3 3 3 3 2 2 1 1 0 -0 -1 -0 -0 -0 -0 -1 -1 -4 -19 -25 -25 -22 -21 -21 -20 -21 -23 -26 -27 -26 -24
1 1 1 1 1 2 3 3 3 3 3 3 3 3 3 3 2 2 1 0 -0 -0 -0 -0 -0 -0 -1 -1 -1 -3 -17 -22 -26 -25 -24 -23 -22 -21 -22 -24 -25 -25 -24
2 2 1 1 1 1 2 2 3 3 3 4 4 3 2 2 1 1 0 0 1 0 0 -0 -0 -1 -1 -1 -1 -2 -14 -21 -21 -23 -24 -25 -26 -26 -25 -25 -24 -24 -24
2 2 1 1 2 2 1 1 2 2 2 2 2 2 2 2 1 0 0 1 1 1 1 0 -1 -1 -2 -2 -2 -2 -10 -18 -17 -17 -21 -22 -23 -24 -24 -25 -25 -25 -25

GFSMW_850_dewp_096.txt.gz
Dewpoint
10 9 10 10 11 11 10 10 8 8 8 9 9 5 5 7 12 12 12 12 12 12 11 11 10 10 11 11 11 11 11 11 10 10 9 9 8 8 7 5 5 6 7
10 10 9 9 10 11 11 11 9 9 9 8 8 9 7 8 12 12 12 12 12 11 11 11 11 11 11 11 11 11 11 10 10 9 9 9 7 5 6 7 7 8 7
6 5 8 9 10 10 11 11 11 11 11 9 9 8 9 10 11 11 10 12 12 12 12 12 12 12 11 11 10 10 11 10 9 9 10 9 8 8 8 8 7 7 7
5 4 4 5 8 9 9 11 11 11 11 11 11 11 11 11 11 9 10 12 12 12 12 12 11 11 8 7 9 9 11 12 11 8 9 8 9 10 8 8 8 7 6
4 4 3 3 3 4 7 9 10 10 10 11 11 10 11 11 11 11 11 12 12 11 11 11 12 10 8 8 8 7 9 6 1 -1 -1 -1 0 3 8 8 5 7 7
4 3 3 3 3 3 3 3 4 8 9 9 10 10 10 10 10 10 10 11 11 12 11 12 10 9 10 8 9 3 -1 -2 -2 -2 -2 -1 0 1 3 5 4 5 7
2 2 2 2 2 2 1 2 3 3 7 7 8 8 9 9 10 10 10 10 11 12 12 11 10 10 9 5 -0 -1 -2 -2 -2 -1 -1 -0 1 2 3 5 6 5 6
-1 0 1 1 2 1 1 2 2 2 2 5 6 7 8 9 9 9 9 10 10 11 11 9 8 7 7 3 -1 -2 -2 -2 -2 -1 -1 -1 -0 1 4 5 5 6 7
-1 -1 -1 -0 0 1 1 1 1 2 2 3 4 6 8 8 8 8 8 10 10 10 8 7 6 6 7 0 -2 -2 -1 -1 -1 -1 -1 -1 -0 0 2 2 2 4 5
-3 -2 -2 -2 -2 -2 -1 0 1 1 2 3 5 5 3 3 5 7 10 9 8 7 7 7 5 1 -1 -1 -1 -1 -1 -1 -1 -0 -0 -0 -0 -0 0 0 2 5 5
-4 -4 -4 -4 -1 1 0 1 1 2 2 2 2 2 1 2 4 9 10 8 7 6 3 1 -0 2 3 4 4 4 2 -0 -0 -0 -0 -0 -0 0 0 2 4 4 3
-2 -3 -3 -4 -4 -3 2 2 2 2 2 2 2 2 1 2 4 6 5 4 3 2 2 3 3 4 3 3 3 2 1 -0 -0 -0 -0 0 0 0 1 2 3 3 2
-2 -3 -3 -3 -3 -4 -3 1 3 3 2 2 2 2 2 2 3 3 2 1 2 3 4 5 4 2 2 3 2 0 0 -0 -0 -0 0 0 1 1 2 1 2 2 2
-2 -2 -3 -3 -3 -3 -3 -3 -2 0 2 3 3 2 2 3 3 2 1 3 4 4 3 2 3 4 4 1 0 0 0 0 0 0 0 1 1 1 1 1 1 1 1
-2 -2 -2 -2 -3 -2 -2 -3 -2 -2 -1 1 2 3 3 3 3 2 2 3 3 2 4 5 4 2 1 1 0 0 0 0 0 0 1 1 1 0 -0 -0 0 0 -0
-1 -2 -2 -2 -2 -2 -1 -1 -1 -1 -0 0 1 3 4 4 3 3 2 1 2 4 3 1 1 1 0 0 0 0 0 0 0 1 0 0 0 0 0 -1 -1 -0 0
-1 -2 -2 -2 -2 -2 -2 -1 -1 -0 0 1 2 3 4 4 4 3 1 1 2 1 1 1 1 0 0 0 0 -0 -0 -0 0 0 0 -0 -0 0 -5 -7 -2 -0 -0
-1 -1 -2 -2 -2 -2 -2 -2 -2 -1 -0 1 2 3 4 4 4 3 2 2 1 1 1 1 1 0 0 0 -0 -1 -1 -1 -1 -1 -1 -0 -0 -6 -19 -24 -25 -26 -26
1 1 -0 -1 -1 -1 -1 -1 -3 -3 -0 0 2 3 3 4 4 3 3 1 2 2 1 1 0 0 0 -0 -0 -0 -1 -1 -1 -1 -1 -1 -7 -21 -23 -22 -22 -23 -23
-0 -1 -1 -0 -0 -0 0 -1 -1 -2 -1 -0 2 3 3 3 3 2 2 2 2 2 1 1 0 0 -0 -0 -0 -0 -1 -1 -1 -1 -2 -12 -23 -22 -19 -22 -26 -23 -23
-0 0 -1 -0 1 1 1 -0 -1 -0 -1 0 3 3 3 3 2 2 2 2 2 2 1 0 -0 -0 -1 -1 -0 -0 -1 -3 -8 -15 -21 -23 -21 -22 -22 -25 -25 -21 -21
-1 -1 0 0 1 1 1 1 1 1 0 0 3 3 3 3 2 2 2 2 2 2 1 -0 -0 -1 -0 -0 -0 -1 -1 -5 -19 -24 -23 -22 -21 -21 -24 -27 -28 -21 -21
0 -1 -0 2 1 1 1 1 2 3 2 1 3 3 3 3 2 2 2 2 2 1 0 -0 -0 -0 -0 -0 -0 -1 -1 -10 -24 -25 -22 -20 -21 -21 -21 -24 -26 -27 -24
-1 0 1 1 2 1 1 1 3 3 3 2 2 3 3 3 2 2 2 2 2 1 0 0 0 1 -0 -0 -1 -1 -1 -6 -20 -25 -23 -21 -21 -21 -21 -21 -23 -25 -25
-0 -0 1 1 2 1 1 1 2 3 3 3 3 3 3 3 3 2 2 2 1 0 0 1 1 1 0 -0 -1 -1 -1 -4 -17 -20 -24 -25 -24 -24 -23 -23 -23 -24 -23
0 0 0 1 2 2 2 1 2 2 3 3 3 3 3 3 3 2 2 2 1 0 1 1 1 1 0 -1 -1 -1 -2 -3 -14 -18 -20 -23 -23 -23 -24 -24 -23 -23 -24

GFSMW_850_dewp_099.txt.gz
Dewpoint
9 8 9 11 11 10 9 7 8 8 6 7 9 7 7 10 10 10 10 12 12 12 12 12 12 11 9 9 11 11 11 10 10 10 10 9 8 9 4 5 4 3 6
10 9 7 9 11 9 9 9 9 9 7 7 8 8 9 7 10 10 10 12 12 12 12 12 11 10 10 11 11 11 11 10 10 9 9 9 8 6 4 6 6 6 6
9 9 10 11 10 10 10 11 10 10 8 9 9 9 9 9 10 9 8 10 11 11 11 12 12 11 11 11 12 10 11 11 10 10 10 9 8 8 8 7 7 7 7
5 7 9 10 10 9 9 8 10 11 11 10 10 10 9 9 8 8 9 10 11 10 10 11 12 12 11 11 11 10 10 10 12 11 11 8 10 9 8 7 7 7 7
5 5 5 5 6 9 9 9 9 10 11 11 11 11 11 11 10 9 8 11 11 11 11 12 12 12 12 11 9 10 9 8 4 5 0 -1 0 1 7 8 6 6 6
4 4 3 3 3 3 4 6 8 9 10 10 10 10 10 11 10 10 10 11 10 10 11 11 11 12 11 9 10 10 8 5 1 -1 -1 -1 -1 -0 1 3 3 5 4
3 3 3 3 3 2 2 3 3 4 4 9 9 9 10 10 10 10 10 10 10 10 10 11 11 10 10 8 4 1 -1 -1 -2 -2 -1 -0 -0 0 1 2 3 5 5
2 2 2 2 2 2 2 1 2 2 3 3 7 6 7 8 9 9 9 10 10 10 11 11 11 10 8 9 6 6 6 3 -1 -1 -1 -1 -1 -0 0 3 5 6 5
-1 -1 -0 -0 0 1 1 0 1 1 2 2 2 5 5 7 8 9 9 9 10 10 11 10 8 8 8 7 7 7 3 -0 -2 -2 -2 -1 -1 -0 0 1 3 4 5
-2 -3 -3 -2 -1 -1 -1 -0 0 1 1 2 3 4 6 6 5 4 5 7 10 11 11 9 8 7 7 6 4 0 -0 1 2 1 -1 -1 -1 -0 -0 0 0 1 4
-3 -3 -4 -5 -4 1 0 -1 -1 1 1 2 2 3 3 2 2 2 4 9 10 10 8 8 6 2 -0 -1 1 4 4 3 1 0 0 -1 -1 -0 -0 0 0 4 4
-2 -3 -3 -3 -4 -5 -0 2 2 2 2 2 2 2 2 2 1 2 7 10 9 8 7 2 1 1 3 4 4 3 2 2 1 0 -0 -0 -0 1 0 0 1 3 4
-2 -2 -3 -3 -3 -3 -4 -4 1 2 2 2 2 2 2 1 1 2 6 7 5 3 2 2 3 3 4 2 3 3 1 0 0 -0 -0 -0 0 0 -0 1 1 1 2
-1 -2 -2 -2 -2 -2 -3 -3 -4 -3 -1 2 2 2 2 2 2 3 4 4 3 2 2 4 5 3 2 3 3 2 0 0 -0 -0 -0 -0 0 0 1 1 1 1 1
-1 -1 -2 -2 -2 -2 -1 -1 -2 -2 -2 -2 -1 0 3 3 3 3 3 3 2 3 4 3 2 4 4 3 1 1 0 -0 0 0 -0 -0 0 0 0 -0 -0 -0 0
-1 -1 -1 -1 -2 -2 -2 -1 -1 1 0 -0 -1 1 2 3 3 3 3 2 2 3 2 3 4 3 1 1 1 0 -0 -0 -0 -0 0 0 0 0 0 0 -0 -0 -0
0 -0 -1 -1 -2 -1 -1 -2 -2 -2 -1 0 2 2 2 3 4 4 3 3 3 2 3 3 1 1 1 0 0 -0 -0 -1 -1 0 -0 0 0 0 0 -3 -3 0 -1
-1 -1 -1 -1 -2 -3 -2 -1 -0 -1 -2 -2 0 3 3 4 4 4 3 3 2 2 2 1 1 1 1 0 -0 -0 -1 -1 -0 -0 -0 -0 -0 -0 -1 -14 -22 -23 -16
-1 -1 -1 -1 -1 -2 -2 -0 -1 0 -1 -1 -2 0 3 3 4 4 4 3 2 2 1 1 1 1 0 -0 -0 -1 -1 -1 -1 -1 -1 -0 -1 -1 -15 -23 -23 -22 -23
-5 -3 -3 -2 -1 -1 -1 -0 0 0 0 -1 -1 -1 2 4 4 4 4 3 2 2 2 2 1 1 -0 -0 -1 -1 -1 -1 -1 -1 -1 -2 -2 -17 -22 -19 -22 -23 -22
-5 -4 -1 -2 -3 -1 0 -0 0 0 0 -0 -0 0 1 3 4 4 3 3 2 2 2 2 1 0 -0 -0 -1 -1 -0 -1 -1 -2 -4 -8 -21 -23 -21 -19 -25 -23 -21
-2 -2 -2 -2 -3 -3 -1 1 1 1 1 1 2 0 1 3 4 4 3 2 2 2 2 2 1 -0 -0 -0 -0 -0 -0 -1 -2 -10 -18 -22 -22 -20 -21 -25 -27 -24 -21
-3 -2 -2 -1 -1 0 0 1 1 1 1 2 3 2 2 3 3 3 2 2 2 2 2 2 1 -0 -0 -0 -0 -0 -0 -1 -2 -16 -22 -21 -21 -21 -21 -22 -26 -28 -22
-1 -1 -0 -0 -1 -1 0 1 2 1 1 3 3 2 2 3 3 3 2 2 2 2 2 1 0 -0 1 1 1 -0 -0 -1 -3 -17 -24 -21 -20 -20 -20 -20 -22 -25 -24
-2 -1 -0 -1 -0 -0 0 1 2 1 1 3 3 2 3 3 3 3 2 2 2 2 2 1 0 0 1 1 0 0 -0 -1 -1 -12 -21 -23 -22 -21 -21 -20 -20 -21 -23
-2 -1 -1 -1 -1 -0 0 1 2 1 2 3 3 3 3 3 3 3 2 2 2 2 1 1 1 0 1 1 0 -0 -1 -1 -2 -8 -17 -22 -24 -24 -23 -23 -22 -22 -23

GFSMW_850_dewp_102.txt.gz
Dewpoint
10 10 10 12 11 10 8 8 10 9 8 7 7 10 12 11 11 10 10 11 12 12 12 12 12 12 11 9 9 10 12 11 10 11 11 11 11 9 5 6 3 3 5
11 11 10 9 12 11 11 11 10 9 8 10 9 8 10 10 10 10 11 11 11 11 12 12 12 12 12 11 11 12 11 10 11 10 10 9 8 9 4 4 5 6 6
11 10 8 6 9 11 11 10 9 9 8 7 10 10 9 9 10 8 9 10 9 9 11 11 11 12 12 11 10 11 10 12 10 10 10 10 7 8 9 7 7 6 6
9 10 10 10 8 8 8 9 8 8 8 7 9 10 11 10 9 9 8 9 10 10 10 11 11 10 12 12 12 11 11 11 10 10 11 11 11 9 7 9 6 5 7
7 9 10 10 10 10 9 8 9 7 9 11 10 10 10 10 10 9 7 8 9 8 8 10 10 10 11 11 11 11 11 9 10 9 6 1 -2 1 8 6 7 6 5
6 5 5 5 6 9 10 10 10 9 10 11 9 10 9 10 10 10 10 9 8 8 7 10 11 11 10 9 10 10 10 9 8 2 0 -1 -1 5 6 6 6 6 7
3 4 3 3 3 3 4 7 9 10 10 10 10 10 10 10 10 11 10 10 9 10 10 10 11 11 11 10 10 8 8 7 4 1 2 1 0 -2 -1 4 6 6 7
1 2 3 2 2 2 2 2 3 3 6 8 9 9 9 10 10 10 9 9 10 10 10 11 11 11 10 9 8 7 7 6 6 5 -1 -2 -1 -1 -1 -1 2 6 6
-0 -0 -0 -0 -0 0 1 2 1 1 2 3 3 5 8 7 8 8 9 9 9 10 11 11 11 11 11 10 9 8 8 7 6 1 -1 -1 -1 -0 0 1 1 3 5
-2 -3 -3 -3 -1 -1 -0 0 0 1 1 2 2 3 3 6 6 7 8 8 9 10 11 11 11 10 8 8 8 8 7 4 0 -0 1 1 -0 -0 -1 -0 1 1 3
-1 -3 -3 -3 -4 -1 1 -1 -1 -0 1 1 2 3 5 6 5 4 3 3 6 10 11 11 9 8 7 7 6 4 0 1 3 3 2 1 0 -0 -0 0 0 -0 1
-2 -2 -3 -3 -3 -4 -3 2 1 1 2 2 2 3 3 3 2 2 2 3 7 10 11 10 8 8 3 -0 -0 1 4 3 2 2 0 -0 -0 -0 0 0 0 0 2
-1 -1 -2 -2 -2 -2 -2 -2 1 3 2 3 3 3 2 2 2 2 2 5 9 10 10 8 7 2 0 2 3 3 3 3 1 0 0 -0 -0 0 0 0 0 1 1
-1 -1 -1 -1 -2 -2 -2 -1 -2 -1 1 3 3 3 3 2 2 2 3 7 10 9 9 6 1 1 3 4 2 3 3 2 0 0 -0 -0 0 0 0 0 0 1 1
-0 0 0 -0 -1 -2 -2 -2 -1 -0 -1 0 1 2 3 3 3 2 3 5 6 6 4 2 2 4 5 2 3 3 1 1 0 -0 -0 -0 -0 -0 0 0 0 0 0
-0 0 -0 -1 -2 -1 -2 -2 -3 -2 -2 0 0 1 2 3 3 3 4 4 4 4 2 2 4 4 2 4 4 1 1 0 -0 -0 -0 -0 -0 0 0 0 0 0 0
0 -0 -0 0 -0 -2 -3 -3 -2 -2 -2 -3 -2 -0 1 2 3 4 4 4 4 3 2 3 2 2 3 2 1 1 0 0 -0 -1 -1 -0 0 0 0 0 -0 -0 -0
-2 -2 -1 -0 -0 -1 -1 -1 -2 -3 -2 -1 -1 -3 -2 1 3 4 4 4 3 3 2 2 3 3 1 1 1 0 -0 -0 -1 -1 -1 -0 0 0 0 -0 -8 -17 -8
-3 -3 -2 -2 -1 -0 -0 0 -0 -0 -0 -1 -1 -1 -2 -2 2 3 4 4 4 3 3 2 3 2 1 1 1 0 -0 -1 -1 -1 -0 0 0 -0 -0 -3 -19 -21 -23
-3 -3 -3 -2 -1 -3 -1 -0 -0 -1 1 0 1 1 -1 -1 -1 3 4 4 4 3 2 2 2 1 1 1 0 -0 -1 -1 -1 -1 -0 -0 -0 -1 -2 -19 -22 -21 -22
-3 -3 -3 -2 -2 -2 -1 -0 0 0 -1 1 1 1 1 -0 -1 0 4 4 4 3 2 2 1 1 1 1 -0 -0 -1 -1 -1 -1 -1 -1 -1 -2 -18 -20 -20 -23 -23
-2 -1 -1 -1 -1 -0 -0 0 0 1 0 1 1 1 1 2 1 1 3 4 4 3 2 2 1 1 1 0 -0 -0 -1 -0 -1 -1 -3 -5 -10 -22 -23 -21 -21 -25 -23
-3 -3 -2 -2 -1 -1 0 0 -0 1 1 1 2 1 2 3 2 1 3 4 4 3 2 2 1 1 1 0 -0 -0 -0 -0 -1 -2 -8 -17 -21 -21 -20 -21 -24 -27 -22
-2 -2 -2 -2 -1 -1 -1 -1 -1 0 0 1 2 1 2 3 2 2 4 4 3 3 2 2 2 1 1 -0 -0 0 -0 -0 -1 -2 -13 -20 -21 -19 -19 -20 -22 -24 -25
-3 -3 -3 -2 -2 -2 -1 -1 -1 -1 0 1 1 2 2 3 3 3 4 4 3 3 2 2 2 2 1 0 1 1 1 0 -0 -1 -13 -21 -21 -19 -19 -19 -18 -19 -22
-4 -4 -3 -3 -3 -2 -2 -0 0 0 1 1 1 2 3 2 2 3 3 3 3 2 2 2 2 1 0 1 1 0 0 -0 -1 -1 -6 -17 -22 -22 -20 -20 -20 -19 -20

GFSMW_850_dewp_108.txt.gz
Dewpoint
5 6 7 8 10 11 11 10 10 10 7 8 8 10 11 12 12 13 12 12 12 11 9 10 12 12 12 11 11 11 11 10 10 11 9 10 9 10 10 10 8 7 5
6 10 8 9 11 11 11 11 11 9 8 7 6 6 8 9 10 10 10 11 11 11 10 10 11 12 12 12 12 11 11 11 10 11 11 10 10 10 9 8 5 6 5
8 10 9 10 10 9 10 11 11 10 9 8 9 8 9 11 12 10 9 8 8 8 9 11 12 12 12 12 11 11 11 11 11 11 10 10 8 8 8 7 5 6 3
10 9 8 8 9 9 9 10 11 10 10 10 9 10 10 9 10 10 11 11 11 11 11 11 11 11 11 10 11 10 10 11 11 11 11 10 9 8 8 8 9 7 6
10 9 8 8 7 8 9 11 11 10 10 10 10 10 10 10 10 10 10 10 10 11 10 10 10 10 9 8 8 8 7 8 9 11 11 10 8 7 2 6 6 5 8
10 9 8 6 6 8 9 11 10 10 9 8 9 8 9 9 10 9 10 10 10 10 10 10 9 9 8 8 8 8 8 6 9 10 11 10 9 9 8 8 7 5 6
10 8 7 6 8 9 7 7 7 7 6 8 8 7 8 7 8 9 8 9 9 9 9 9 9 9 9 8 7 7 9 8 9 10 10 11 10 9 8 7 6 5 6
9 9 9 9 8 8 9 9 9 9 8 7 7 8 6 9 9 8 9 8 8 7 7 7 9 9 9 8 8 8 10 11 11 11 11 10 9 8 4 3 2 2 2
5 3 3 4 4 4 4 6 9 10 10 10 10 9 10 9 9 8 10 9 9 8 8 7 9 10 9 7 9 10 11 11 11 10 10 9 5 3 2 -1 -2 -1 0
1 1 2 3 3 3 2 2 3 4 4 6 8 9 10 9 10 9 9 9 9 9 9 9 10 9 10 10 11 11 11 11 10 10 8 6 5 6 1 -1 -0 0 1
-0 -0 0 1 0 2 3 2 1 1 2 2 4 6 8 9 8 7 9 9 8 7 8 8 7 9 9 10 11 11 10 9 9 8 7 7 5 0 0 1 1 1 1
-0 -0 -0 -1 -1 -1 -1 -1 -0 2 2 2 2 4 5 6 7 9 9 8 8 7 7 8 9 9 10 11 11 10 10 9 9 8 7 3 0 2 2 2 1 0 0
0 -0 -0 -0 -1 -1 -1 -1 -2 -1 -1 0 2 3 3 4 6 7 7 6 6 6 6 7 9 11 10 11 11 10 8 8 7 5 1 3 3 2 1 0 0 0 1
-1 -1 -1 -1 -1 -1 -1 -1 -3 -2 -3 -2 -1 -0 2 3 3 3 3 3 3 3 4 7 9 10 10 10 10 8 7 4 0 1 3 3 3 1 0 0 1 1 1
-2 -2 -2 -1 -1 -1 -1 -1 -1 -1 -1 -3 -4 -3 -3 -1 0 2 3 3 3 3 3 6 9 9 9 9 9 8 4 0 1 3 3 3 2 0 0 0 1 1 1
-6 -6 -6 -6 -5 -4 -4 -4 -3 -2 -1 -0 -0 -1 -1 -1 -2 -2 0 2 3 3 3 7 9 9 9 9 9 7 1 1 3 3 3 2 0 0 0 0 0 0 0
-7 -12 -11 -11 -10 -9 -8 -8 -6 -6 -5 -4 -2 -2 -1 0 1 0 0 1 1 2 4 4 7 8 8 8 8 2 1 4 3 3 2 1 0 -0 0 0 0 0 0
-9 -9 -7 -7 -8 -9 -9 -10 -10 -9 -7 -6 -5 -4 -1 -1 -0 1 1 1 2 4 3 3 6 7 8 8 4 1 3 3 3 3 1 0 -0 -0 -1 -0 -0 0 0
-5 -5 -6 -7 -7 -4 -4 -6 -8 -6 -4 -2 -2 -2 -2 -1 1 1 0 1 2 3 4 4 4 5 6 6 2 2 4 2 3 1 1 0 -1 -1 -1 -0 0 0 -1
-3 -3 -4 -4 -4 -4 -4 -4 -3 -3 -3 -4 -3 -1 -1 -1 -1 -1 2 2 1 1 1 3 4 4 4 4 2 3 3 3 2 1 0 -0 -1 -0 -0 -0 -0 -0 -4
-4 -3 -2 -2 -3 -2 -3 -3 -2 -2 -2 -2 -2 -2 -1 -1 -0 -1 -1 -0 2 2 1 1 3 4 4 3 3 3 2 3 1 1 0 -1 -1 -1 -0 -0 -1 -1 -14
-4 -4 -5 -6 -5 -4 -3 -3 -3 -2 -3 -2 -2 -2 -1 -1 -1 -1 -0 1 1 3 3 2 2 3 3 3 3 2 2 2 1 1 -0 -0 -1 -1 -1 -1 -1 -10 -19
-4 -5 -6 -6 -5 -4 -4 -4 -3 -4 -3 -3 -2 -1 -1 -1 -1 -1 -0 1 1 2 2 3 2 2 3 3 2 2 2 1 1 1 -0 -0 -1 -1 -1 -2 -3 -18 -19
-8 -9 -9 -7 -5 -4 -4 -4 -4 -4 -4 -4 -3 -3 -1 -1 -1 -1 -0 0 1 2 2 1 2 2 2 2 2 2 1 1 1 0 -0 -0 -1 -2 -2 -4 -17 -19 -19
-10 -10 -8 -6 -4 -5 -5 -4 -4 -4 -4 -4 -4 -3 -2 -1 -1 -0 0 0 -0 1 2 1 1 2 2 3 3 2 2 1 1 0 -0 -1 -3 -6 -7 -15 -19 -19 -22
-10 -9 -7 -5 -5 -5 -5 -5 -4 -5 -5 -5 -4 -4 -3 -2 -2 -0 0 0 1 1 1 1 1 1 2 2 3 2 2 1 1 -0 -0 -1 -3 -6 -12 -16 -18 -18 -20

GFSMW_850_dewp_111.txt.gz
Dewpoint
3 4 4 4 7 9 10 9 11 10 13 12 12 11 10 9 9 9 10 10 8 7 6 6 7 8 8 8 9 8 9 10 10 10 10 10 10 10 9 9 9 9 8
3 4 4 6 8 9 9 10 11 10 11 12 12 11 11 11 11 11 10 9 10 11 9 9 10 12 12 12 11 11 11 10 10 10 10 10 9 9 9 10 9 5 3
3 5 9 10 10 9 8 10 11 11 9 10 10 11 11 10 10 11 12 12 12 11 12 10 11 12 12 11 11 11 11 11 11 11 11 11 10 10 10 10 8 4 6
5 8 9 8 8 8 9 9 8 10 9 8 7 7 6 8 8 9 10 10 10 11 11 11 12 12 12 12 12 11 11 11 10 10 10 11 10 9 9 9 8 8 7
6 8 9 8 7 8 9 9 9 10 8 8 9 9 8 9 7 7 8 8 9 10 12 11 11 11 10 10 10 10 9 8 8 8 7 10 11 10 8 8 8 9 8
8 9 9 6 9 8 9 9 10 11 10 10 9 9 9 9 9 10 9 10 11 10 10 11 10 10 9 10 9 8 8 9 8 8 9 8 9 11 10 6 6 7 8
10 9 8 8 8 8 8 10 10 10 10 11 10 10 10 9 9 9 9 9 10 10 10 11 10 9 9 9 9 9 8 9 9 9 8 10 9 11 10 9 8 7 6
9 9 9 9 9 9 9 9 9 10 9 9 9 9 9 9 9 8 8 8 8 8 9 10 11 9 8 10 11 9 8 9 9 7 9 10 10 11 11 10 8 7 6
5 5 5 4 4 5 5 8 10 9 9 9 9 7 6 7 7 7 7 9 8 8 9 9 8 8 8 8 9 10 9 10 9 9 9 10 10 10 10 7 3 3 3
3 3 4 4 5 4 3 3 3 6 9 9 9 8 8 9 9 9 9 9 8 9 9 9 9 9 8 8 9 11 10 10 8 9 10 10 10 9 5 3 2 0 0
0 -0 -0 -0 0 1 3 4 3 3 3 3 4 6 7 8 8 8 9 9 9 9 8 9 8 8 8 9 10 10 11 10 10 11 11 9 9 7 4 6 4 -0 0
-0 -0 -0 -0 -0 -1 -1 -1 -1 0 3 4 4 5 7 7 7 7 5 4 4 7 8 8 8 8 8 8 10 10 10 10 11 10 9 9 8 6 7 3 -0 2 2
-1 -1 -0 -0 -0 -0 -1 -1 -2 -2 -2 -2 -1 1 3 4 5 6 7 7 8 7 6 7 8 7 8 10 10 10 11 11 10 9 9 9 8 7 2 1 2 2 1
-3 -3 -3 -2 -1 -1 -1 -2 -3 -3 -3 -3 -3 -3 -2 -1 -1 1 3 4 4 4 4 3 3 3 6 9 9 10 10 10 9 9 8 7 5 1 3 2 2 1 0
-7 -9 -10 -9 -10 -11 -11 -12 -11 -8 -5 -4 -3 -3 -3 -2 -2 -1 0 1 2 3 3 3 3 5 5 5 9 10 9 9 9 8 7 2 1 3 2 1 1 1 1
-7 -9 -15 -14 -10 -9 -9 -10 -11 -11 -11 -12 -11 -10 -8 -4 -2 -2 -1 0 1 2 4 4 4 4 5 7 9 9 9 8 8 7 1 1 3 3 2 1 0 1 1
-7 -10 -7 -6 -7 -7 -7 -6 -4 -5 -6 -6 -6 -6 -7 -7 -7 -5 -2 -1 -0 1 1 4 5 6 7 8 9 9 9 8 6 2 1 3 3 3 1 0 0 0 -0
-11 -10 -8 -6 -6 -8 -9 -9 -9 -8 -8 -7 -5 -4 -3 -2 -3 -4 -4 -3 -1 -0 1 1 3 5 7 7 8 8 8 7 5 2 3 3 3 2 0 0 -0 -0 -0
-18 -14 -10 -10 -12 -13 -13 -14 -14 -10 -9 -7 -5 -3 -2 -3 -3 -2 -2 -3 -1 1 2 2 2 2 4 6 7 7 7 7 3 2 3 3 3 1 0 -0 -1 -1 -0
-9 -9 -13 -13 -10 -9 -9 -9 -9 -10 -11 -11 -10 -7 -5 -3 -3 -1 -1 -1 -1 -2 -1 1 3 2 1 3 5 5 5 5 2 3 3 3 2 1 0 -1 -1 -0 -0
-7 -9 -6 -5 -5 -6 -7 -6 -5 -6 -5 -6 -5 -5 -5 -4 -3 -3 -1 -1 -1 -1 -2 -2 -0 2 3 2 3 4 4 3 2 3 3 3 1 1 -0 -1 -1 -1 -0
-6 -5 -4 -5 -5 -4 -4 -3 -4 -4 -4 -4 -4 -4 -4 -4 -3 -2 -2 -1 -1 -1 -1 -1 -0 -0 2 3 3 4 4 3 2 3 2 2 1 0 -1 -1 -1 -0 -0
-8 -8 -8 -7 -7 -5 -4 -5 -5 -5 -5 -4 -4 -4 -4 -4 -3 -3 -1 -1 -1 -1 0 -0 0 -1 0 2 3 3 4 3 3 3 2 2 1 -0 -1 -1 -0 -0 -1
-9 -8 -7 -7 -7 -7 -5 -5 -6 -6 -5 -5 -5 -5 -4 -4 -4 -3 -2 -1 -1 -0 -0 0 1 1 -1 2 2 2 2 3 3 2 2 1 0 -1 -0 -0 -1 -1 -1
-8 -8 -7 -8 -7 -9 -7 -6 -7 -7 -6 -5 -5 -6 -5 -5 -5 -4 -3 -3 -1 -1 0 -0 0 1 1 1 2 2 2 2 3 2 1 1 -0 -1 -1 -1 -1 -1 -8
-8 -8 -9 -9 -9 -11 -7 -7 -7 -7 -7 -6 -6 -6 -6 -6 -5 -5 -4 -3 -3 -1 0 0 1 1 1 1 1 1 2 2 2 1 1 0 -0 -1 -1 -1 -2 -5 -17

GFSMW_850_dewp_114.txt.gz
Dewpoint
-5 -4 3 3 4 3 3 6 10 9 10 10 11 11 9 12 12 10 11 11 11 11 12 10 9 8 5 6 8 7 7 8 10 9 9 10 10 10 10 9 9 9 9
-3 4 3 3 2 2 4 8 10 9 10 9 11 11 12 11 10 11 11 11 10 11 11 10 9 7 7 8 7 7 8 9 10 10 10 10 11 10 10 9 9 9 10
2 3 2 3 3 7 8 8 10 9 9 9 12 12 12 11 10 9 10 11 11 11 10 8 7 6 9 9 9 9 9 10 10 10 10 11 10 10 10 9 9 10 9
3 3 3 6 8 10 10 9 9 8 6 9 11 12 11 11 10 10 10 10 10 10 7 7 9 9 10 10 9 11 10 10 10 10 10 10 10 9 10 10 10 9 8
3 3 4 7 8 8 8 9 10 9 6 8 11 11 11 11 11 11 10 9 10 9 11 11 11 11 13 12 11 10 9 10 10 10 9 9 10 10 9 9 9 9 8
4 5 7 8 8 8 9 9 10 9 7 10 10 10 10 8 9 9 9 10 10 10 10 9 9 9 10 10 9 11 10 9 9 8 8 8 9 9 11 9 9 9 8
6 8 9 9 8 7 9 9 10 9 9 9 10 9 9 8 9 8 8 9 8 8 9 8 9 9 8 10 10 9 8 8 9 9 8 8 9 9 9 10 9 8 7
8 8 8 8 7 8 9 9 10 10 10 10 9 10 10 10 9 10 9 9 9 9 9 9 9 9 10 10 10 10 9 10 9 9 9 9 9 10 9 9 10 8 8
6 6 6 6 5 5 5 8 9 9 9 9 9 9 10 9 8 8 9 9 8 8 7 7 9 9 10 9 10 9 8 8 9 10 9 9 9 10 10 9 10 10 9
3 4 4 5 5 5 5 4 4 8 9 9 9 10 9 9 8 8 8 8 8 8 8 7 8 9 9 9 8 9 9 9 9 9 10 9 9 9 10 10 10 9 6
2 1 0 0 0 0 1 3 4 5 5 5 4 8 9 9 9 9 9 10 9 9 9 9 8 9 10 9 8 10 10 9 9 9 10 10 9 10 10 10 9 6 3
-0 -0 -0 -0 -0 -0 -1 -1 -1 -1 -0 2 4 5 6 6 7 7 8 8 7 7 7 8 9 8 8 9 8 9 10 10 10 10 11 10 10 10 10 9 6 3 4
-2 -2 -2 -2 -2 -2 -2 -2 -2 -1 -2 -2 -2 -1 0 2 4 4 5 6 7 8 9 8 8 9 9 9 8 7 8 9 10 10 10 10 10 9 9 7 5 6 3
-10 -12 -13 -12 -13 -13 -13 -13 -12 -9 -7 -6 -5 -4 -3 -2 -2 -1 0 2 4 4 5 5 5 5 6 8 8 9 10 9 8 10 10 10 9 9 8 7 7 3 1
-7 -10 -10 -10 -9 -10 -10 -11 -10 -11 -13 -16 -18 -17 -14 -10 -6 -4 -3 -2 -1 0 2 3 4 5 5 5 5 7 9 9 10 10 10 9 9 9 8 7 2 2 2
-7 -8 -9 -9 -9 -10 -10 -11 -12 -14 -12 -11 -11 -11 -11 -11 -11 -13 -14 -9 -4 -2 -1 0 1 3 4 7 7 8 8 9 9 9 9 9 9 8 6 1 3 2 1
-9 -12 -10 -10 -9 -10 -10 -8 -9 -8 -7 -7 -7 -7 -8 -9 -9 -8 -8 -8 -9 -11 -6 -2 -0 1 1 3 6 7 7 8 8 9 9 8 8 6 1 3 2 1 0
-10 -10 -9 -7 -7 -8 -8 -9 -10 -9 -9 -9 -9 -9 -7 -6 -5 -4 -4 -5 -6 -6 -7 -7 -3 0 1 2 3 5 6 7 7 8 8 8 7 3 2 2 2 1 0
-10 -10 -11 -12 -13 -12 -11 -12 -14 -13 -12 -11 -9 -7 -6 -5 -4 -3 -3 -3 -2 -3 -3 -4 -5 -5 -1 2 2 4 5 6 6 6 7 5 5 2 4 3 1 0 0
-18 -19 -18 -17 -17 -18 -17 -17 -17 -17 -15 -14 -11 -8 -8 -7 -6 -5 -4 -3 -3 -2 -2 -1 -2 -3 -4 -2 2 3 4 4 5 5 5 5 4 5 5 3 1 0 -0
-17 -14 -15 -16 -15 -15 -16 -15 -14 -12 -10 -10 -11 -10 -9 -8 -7 -7 -5 -4 -3 -3 -2 -1 -2 -2 -2 -4 -3 2 3 3 4 5 5 4 4 3 3 2 1 0 -0
-14 -15 -17 -17 -16 -14 -13 -14 -11 -8 -8 -8 -8 -9 -9 -8 -8 -6 -6 -5 -4 -3 -2 -1 -1 -2 -2 -2 -2 -1 2 3 3 4 5 4 3 3 2 2 1 -0 -0
-10 -10 -11 -10 -9 -7 -6 -5 -6 -5 -6 -6 -6 -6 -6 -6 -7 -6 -6 -4 -4 -3 -3 -1 -1 -0 -1 -2 -1 -2 -0 3 3 3 4 4 3 3 3 2 0 0 -0
-11 -9 -8 -8 -8 -7 -7 -5 -6 -6 -6 -6 -6 -6 -6 -6 -6 -6 -5 -5 -4 -5 -4 -3 -2 -1 0 -0 -1 -1 -2 1 2 2 2 2 3 2 2 1 1 -0 -0
-8 -6 -7 -8 -10 -8 -9 -7 -6 -6 -6 -6 -7 -7 -7 -6 -6 -6 -6 -6 -5 -5 -5 -4 -3 -2 -1 0 0 0 0 1 2 2 2 1 1 1 1 0 0 0 -1
-9 -8 -7 -9 -10 -9 -9 -8 -5 -6 -7 -7 -7 -7 -7 -7 -7 -7 -6 -6 -6 -5 -4 -3 -4 -3 -1 -0 0 0 1 1 2 1 1 1 0 0 1 1 1 0 -1

GFSMW_850_dewp_117.txt.gz
Dewpoint
-6 -8 -9 -7 -2 4 3 1 1 2 5 8 9 9 9 8 8 9 9 12 12 12 11 11 8 8 10 6 5 5 7 8 9 10 10 10 10 10 10 10 10 10 9
-7 -8 -7 -5 2 4 2 1 -0 1 7 9 10 11 10 10 10 10 9 11 12 12 12 7 6 10 8 6 6 7 7 8 9 10 10 10 10 10 10 10 10 10 9
-4 0 -2 4 3 1 -0 -1 -2 5 8 10 10 10 11 11 11 11 9 12 12 12 11 8 11 11 8 7 6 7 8 9 8 10 10 10 10 10 10 10 10 10 9
-2 1 4 4 2 1 5 5 8 8 9 9 7 11 11 12 11 11 11 12 12 11 11 10 10 11 10 9 7 8 9 9 9 10 10 10 10 10 10 10 10 10 10
-0 1 3 3 3 7 8 8 8 9 9 9 9 10 11 11 11 11 12 11 11 11 10 8 10 11 10 9 8 10 10 10 10 10 10 10 10 10 10 9 9 10 10
2 3 5 6 8 8 9 9 8 8 9 9 10 10 10 11 11 11 10 9 10 9 10 11 10 9 8 8 9 11 11 10 9 9 10 10 10 9 9 10 10 9 9
6 7 7 8 8 9 9 9 9 9 9 10 10 10 10 10 10 11 11 11 10 10 10 9 8 8 7 8 8 10 9 8 9 9 9 9 9 9 9 9 9 10 9
7 7 7 7 7 7 7 9 9 10 10 10 10 9 9 9 9 9 8 10 10 10 10 10 10 10 9 9 10 10 9 8 9 9 8 8 9 9 9 9 9 10 9
5 5 6 6 6 6 6 8 9 9 10 10 9 10 10 10 9 9 9 8 8 8 8 10 9 9 10 9 9 10 10 10 9 10 9 10 9 10 10 10 10 10 9
3 3 3 2 2 4 5 6 7 7 8 9 9 9 9 9 9 8 9 8 8 8 8 7 7 8 7 8 9 9 9 10 10 10 9 9 10 10 10 10 10 10 10
1 -0 -0 -0 -0 -0 0 0 2 3 5 6 7 9 9 9 10 10 9 9 9 10 9 8 8 8 8 8 8 9 9 9 9 9 8 9 9 10 10 10 10 10 10
-4 -3 -3 -4 -5 -6 -5 -4 -3 -2 -2 -1 2 5 6 7 8 9 9 9 9 9 10 9 9 10 9 8 8 9 10 10 10 9 8 10 10 9 9 10 10 10 10
-12 -13 -13 -12 -12 -12 -13 -13 -13 -12 -11 -8 -5 -3 -2 0 2 3 4 4 5 6 7 9 9 9 9 9 9 10 10 10 9 8 8 9 10 10 10 10 10 10 9
-10 -13 -14 -13 -12 -14 -16 -18 -17 -16 -17 -15 -14 -15 -14 -11 -8 -5 -3 -2 -1 0 2 4 5 5 6 7 7 8 8 9 9 9 9 9 10 10 10 10 10 9 8
-9 -14 -14 -12 -12 -13 -14 -14 -15 -15 -16 -15 -15 -15 -14 -14 -12 -12 -12 -12 -12 -8 -3 -1 -1 1 2 4 5 7 7 7 8 8 9 9 9 10 10 10 9 8 6
-8 -11 -11 -10 -11 -11 -12 -11 -12 -14 -14 -13 -13 -13 -14 -14 -13 -13 -12 -12 -11 -11 -10 -11 -8 -3 -1 -1 0 3 5 6 6 7 7 8 8 9 9 9 9 8 7
-7 -11 -11 -10 -9 -8 -9 -11 -12 -12 -12 -11 -11 -11 -11 -11 -12 -12 -11 -12 -11 -10 -9 -9 -8 -8 -8 -6 -0 2 3 5 6 6 7 7 8 8 8 8 8 7 6
-9 -10 -9 -8 -8 -9 -11 -12 -13 -14 -13 -12 -12 -12 -11 -10 -9 -9 -9 -8 -8 -8 -8 -7 -6 -5 -5 -5 -7 -3 2 3 4 6 6 7 7 7 8 7 7 5 3
-10 -9 -8 -9 -11 -13 -14 -15 -16 -15 -14 -15 -14 -13 -13 -12 -11 -11 -10 -9 -8 -6 -5 -3 -5 -5 -5 -4 -3 -3 -1 2 2 4 5 6 6 6 6 5 6 3 3
-10 -10 -11 -12 -15 -17 -18 -18 -19 -19 -18 -17 -14 -13 -14 -13 -11 -10 -11 -10 -8 -7 -5 -3 -3 -2 -2 -3 -2 -2 -3 -1 2 2 3 5 5 5 5 5 3 3 4
-15 -15 -14 -16 -20 -21 -21 -21 -20 -21 -18 -17 -16 -15 -13 -11 -10 -9 -10 -8 -6 -5 -6 -4 -4 -3 -2 -2 -3 -2 -2 -2 -1 2 3 4 5 5 5 4 4 4 5
-19 -21 -20 -17 -16 -17 -19 -21 -20 -17 -15 -15 -14 -13 -13 -11 -10 -9 -9 -9 -6 -6 -5 -5 -4 -4 -3 -2 -2 -2 -1 -1 -1 0 2 3 4 4 5 4 4 4 3
-18 -17 -18 -17 -16 -16 -16 -15 -13 -8 -6 -6 -7 -7 -7 -7 -8 -7 -7 -7 -6 -5 -6 -5 -5 -4 -4 -3 -2 -2 -0 -0 -0 0 1 2 3 3 3 4 4 2 3
-17 -16 -15 -13 -12 -11 -11 -9 -9 -7 -6 -6 -7 -7 -7 -7 -8 -8 -7 -7 -7 -7 -6 -6 -5 -5 -5 -4 -4 -1 -0 0 0 0 2 3 2 2 2 2 3 2 2
-15 -14 -13 -12 -11 -11 -12 -9 -9 -6 -6 -7 -7 -7 -7 -7 -8 -9 -8 -7 -7 -6 -6 -6 -6 -5 -5 -5 -4 -3 -1 0 0 0 1 2 2 1 0 1 1 2 2
-15 -13 -11 -10 -10 -11 -11 -10 -9 -8 -6 -7 -7 -7 -7 -7 -7 -7 -8 -7 -7 -6 -6 -5 -6 -5 -5 -4 -4 -3 -2 -1 -0 0 1 1 1 1 1 0 1 1 1

GFSMW_850_dewp_120.txt.gz
Dewpoint
-5 -5 -6 -9 -14 -13 -6 -4 3 3 2 2 3 4 4 5 7 8 8 9 9 9 10 12 12 12 9 8 11 10 9 9 5 8 8 8 9 10 9 10 10 10 10
-3 -5 -7 -8 -8 -13 -8 -3 3 2 1 -0 1 7 8 9 9 9 9 9 9 9 8 10 12 12 7 9 10 10 9 8 8 9 10 10 10 10 9 10 10 10 10
-4 -7 -8 -9 -9 -7 -8 3 2 0 -2 -4 3 9 10 10 10 9 9 9 10 10 10 10 11 12 5 2 7 9 9 7 8 10 10 10 10 9 9 9 10 10 10
-4 -4 -1 -1 -5 3 4 2 1 0 -3 1 7 9 10 9 8 9 9 10 11 11 10 10 10 10 6 6 8 9 7 8 9 10 11 10 10 10 9 9 10 10 10
2 -1 2 4 4 5 4 6 8 7 7 10 10 10 9 8 9 9 10 11 11 11 10 11 12 10 6 4 3 7 8 8 9 10 10 10 11 10 10 9 9 10 10
3 3 4 5 5 6 8 8 8 7 7 9 9 9 9 10 9 11 11 11 10 11 11 12 12 10 8 9 9 9 9 9 9 10 9 9 10 10 10 10 10 10 9
6 5 6 7 7 7 7 8 8 7 7 8 9 8 10 10 10 11 11 11 11 11 11 12 10 9 9 9 8 8 8 9 9 8 8 8 9 9 9 10 8 9 9
5 6 6 5 6 6 6 7 9 9 9 9 9 10 10 10 10 9 10 10 10 9 10 9 9 10 10 10 8 9 8 9 9 8 8 8 9 9 9 9 8 9 10
3 4 4 5 5 5 3 6 8 9 9 9 10 9 9 10 9 9 8 8 9 9 10 10 10 9 8 8 7 7 8 8 7 9 10 9 9 9 9 8 9 9 10
2 3 1 2 4 3 3 4 6 7 8 9 9 9 10 10 9 9 9 9 9 8 8 9 9 9 10 9 9 9 8 9 10 9 10 10 9 10 9 10 10 10 10
-5 -5 -6 -4 -4 -7 -5 -2 -1 2 3 3 5 8 8 9 9 9 9 9 9 9 9 9 9 9 8 8 8 8 8 8 8 7 8 9 9 10 10 9 9 9 10
-8 -8 -9 -8 -9 -10 -11 -12 -12 -9 -6 -5 -2 0 2 3 6 7 8 8 8 8 8 9 9 9 10 9 9 9 8 8 9 7 9 9 9 9 9 9 9 9 10
-11 -11 -11 -10 -11 -11 -12 -13 -14 -15 -15 -16 -16 -13 -10 -8 -6 -4 -1 1 2 3 4 5 6 7 9 9 8 8 9 9 10 9 8 7 10 9 9 9 9 10 10
-10 -12 -13 -12 -12 -11 -11 -12 -13 -13 -13 -15 -16 -17 -18 -17 -16 -15 -15 -14 -13 -12 -9 -6 -3 -0 2 4 5 5 6 7 8 9 8 9 9 9 9 9 9 9 9
-7 -13 -13 -12 -13 -13 -13 -13 -14 -14 -13 -13 -15 -16 -16 -16 -17 -17 -17 -16 -15 -14 -13 -11 -11 -11 -10 -7 -3 -1 0 2 3 6 7 7 7 8 8 8 9 9 9
-5 -11 -13 -12 -14 -14 -15 -15 -15 -16 -16 -18 -18 -18 -18 -19 -20 -20 -19 -19 -19 -17 -16 -15 -13 -11 -10 -9 -8 -8 -6 -1 1 4 5 6 6 7 7 8 8 8 8
-6 -10 -12 -10 -11 -13 -13 -15 -15 -15 -14 -12 -13 -15 -17 -17 -17 -17 -18 -17 -18 -18 -18 -17 -15 -13 -12 -10 -7 -6 -5 -5 -4 1 2 4 5 6 7 7 8 7 7
-6 -11 -11 -11 -12 -13 -14 -14 -15 -14 -15 -16 -17 -17 -18 -17 -17 -18 -18 -17 -17 -16 -13 -11 -8 -10 -12 -10 -6 -4 -4 -3 -3 -4 1 3 3 5 6 7 7 7 6
-7 -12 -10 -10 -12 -14 -14 -16 -17 -19 -19 -21 -20 -18 -17 -18 -19 -21 -20 -18 -15 -15 -14 -11 -9 -9 -8 -5 -8 -4 -2 -2 -3 -3 -4 1 3 5 5 6 6 6 6
-12 -10 -9 -11 -13 -15 -16 -18 -20 -21 -23 -21 -19 -17 -17 -19 -19 -17 -16 -14 -12 -12 -11 -11 -10 -7 -6 -5 -4 -4 -2 -1 -1 -1 -1 -3 1 3 4 5 5 5 6
-11 -11 -11 -13 -15 -15 -17 -18 -20 -22 -21 -21 -20 -19 -19 -16 -14 -12 -11 -10 -10 -10 -10 -9 -9 -8 -6 -5 -4 -3 -3 -2 -1 -1 -0 1 -1 2 3 3 4 6 5
-13 -14 -15 -16 -16 -16 -18 -22 -23 -22 -22 -22 -21 -20 -17 -15 -13 -11 -11 -10 -9 -7 -7 -6 -6 -6 -6 -5 -5 -5 -4 -2 -2 -1 -0 -1 1 -1 2 3 3 4 4
-15 -16 -17 -16 -16 -18 -20 -21 -20 -21 -22 -21 -20 -15 -12 -11 -9 -7 -7 -7 -7 -7 -7 -7 -6 -6 -6 -6 -5 -5 -5 -4 -2 -1 -0 0 0 -1 2 3 3 3 3
-16 -16 -16 -19 -19 -19 -19 -18 -18 -18 -16 -15 -10 -8 -8 -7 -7 -7 -7 -7 -7 -7 -7 -7 -7 -6 -6 -7 -6 -5 -5 -4 -3 -1 -0 -0 -0 0 2 2 2 2 3
-17 -18 -19 -20 -19 -18 -17 -16 -15 -14 -12 -10 -8 -8 -6 -7 -7 -7 -7 -7 -7 -7 -7 -7 -7 -6 -6 -6 -5 -5 -4 -4 -4 -2 -1 -0 -0 0 1 1 1 1 2
-19 -19 -21 -20 -17 -16 -16 -16 -16 -12 -9 -8 -7 -7 -7 -7 -7 -7 -8 -8 -8 -8 -7 -6 -6 -6 -5 -5 -5 -4 -4 -3 -3 -3 -1 -1 -0 -0 1 0 1 0 1

GFSMW_850_dewp_123.txt.gz
Dewpoint
-3 -2 -5 -6 -6 -8 -11 -12 -7 -4 2 4 3 2 1 -0 0 1 3 6 7 8 8 9 9 9 9 10 12 12 9 10 10 11 10 7 6 7 7 8 9 9 9
-3 -3 -3 -5 -6 -8 -10 -14 -10 -5 1 2 1 -0 -1 -2 1 4 5 7 8 9 9 9 9 10 10 11 11 12 7 7 8 11 11 10 8 7 7 8 9 9 10
2 -3 -5 -5 -7 -7 -9 -14 -13 -7 -0 2 1 -1 -2 2 7 7 5 5 7 7 8 8 9 11 11 11 11 12 9 9 9 10 10 10 10 8 7 7 9 9 10
2 2 -3 -4 -4 -7 -9 -9 -8 2 2 1 0 -2 -0 9 10 10 8 7 7 8 8 9 10 10 11 12 11 11 8 7 8 9 10 10 10 9 8 7 7 9 9
3 2 1 2 6 3 3 5 6 4 2 -0 -1 4 10 10 10 9 8 7 8 10 10 10 11 11 11 11 11 11 7 5 8 5 8 9 10 10 10 9 8 8 8
5 5 5 5 6 7 7 7 6 5 4 6 8 10 10 10 9 7 8 9 11 11 11 10 11 11 11 11 11 10 6 8 7 3 7 8 9 10 10 10 9 9 8
4 5 5 5 5 5 6 6 5 4 5 7 7 8 9 9 9 10 11 11 10 11 11 11 10 11 10 11 11 8 7 6 6 6 8 7 9 9 8 8 8 9 9
2 3 4 3 3 4 4 6 8 8 8 8 8 9 9 10 10 10 9 9 10 10 9 10 11 11 11 10 9 8 8 9 9 9 9 9 8 9 9 9 9 10 9
2 3 3 2 4 3 2 3 6 8 8 8 9 9 10 10 9 9 9 9 9 9 10 10 10 10 10 10 10 10 9 9 8 8 9 9 9 8 8 8 8 9 10
1 2 1 -3 -3 -2 -0 3 3 6 7 7 9 9 10 9 9 9 9 9 9 9 9 9 9 10 9 10 9 8 8 7 7 7 7 8 8 8 8 8 9 10 10
-6 -6 -6 -6 -7 -6 -8 -2 -6 -1 2 4 6 8 8 8 8 9 8 9 9 9 9 9 9 9 10 9 9 9 9 9 9 9 9 7 7 7 7 9 9 9 9
-7 -7 -8 -10 -10 -10 -10 -10 -12 -13 -12 -11 -9 -7 -3 -3 0 2 4 4 4 4 5 5 5 6 8 9 9 9 9 9 9 9 8 8 9 9 9 8 7 9 9
-9 -8 -8 -9 -10 -11 -14 -14 -13 -13 -15 -15 -16 -17 -17 -18 -17 -17 -16 -16 -15 -13 -12 -10 -7 -5 -3 1 4 6 7 8 8 8 8 8 9 9 9 8 8 9 9
-8 -9 -9 -9 -9 -11 -12 -14 -15 -16 -17 -19 -20 -21 -21 -21 -21 -22 -22 -22 -22 -22 -22 -20 -19 -18 -17 -15 -14 -11 -6 -2 0 1 4 5 7 8 8 9 9 8 9
-5 -10 -11 -11 -13 -14 -15 -15 -16 -17 -18 -20 -21 -22 -22 -22 -23 -23 -24 -24 -24 -24 -24 -25 -24 -23 -22 -20 -17 -15 -13 -12 -12 -11 -5 -0 1 4 6 8 8 8 8
-4 -8 -12 -13 -14 -16 -17 -17 -19 -19 -19 -19 -19 -18 -20 -21 -23 -24 -25 -25 -26 -27 -26 -24 -23 -23 -23 -22 -21 -18 -14 -11 -9 -8 -8 -8 -6 1 1 5 6 7 7
-3 -6 -14 -14 -15 -17 -18 -18 -19 -19 -19 -19 -20 -20 -20 -21 -20 -20 -19 -20 -19 -18 -17 -17 -16 -16 -17 -16 -15 -15 -15 -14 -10 -8 -6 -6 -6 -6 3 3 5 6 7
-3 -6 -12 -13 -15 -17 -17 -18 -18 -18 -18 -19 -19 -19 -19 -20 -19 -19 -19 -18 -18 -17 -17 -17 -16 -14 -13 -11 -9 -9 -8 -8 -9 -7 -5 -4 -4 -5 -5 3 4 5 6
-4 -7 -14 -14 -15 -15 -16 -16 -18 -18 -18 -19 -20 -20 -21 -21 -21 -22 -21 -19 -20 -19 -17 -15 -14 -12 -11 -9 -7 -5 -5 -6 -4 -2 -1 -1 -1 -1 -1 -0 3 3 5
-5 -13 -14 -14 -13 -13 -14 -16 -18 -19 -20 -21 -21 -19 -19 -20 -19 -17 -16 -15 -14 -14 -12 -13 -11 -10 -10 -8 -7 -5 -4 -4 -4 -3 -2 -2 -2 -1 -1 0 1 3 3
-13 -14 -13 -13 -12 -13 -13 -16 -19 -21 -21 -20 -20 -19 -17 -17 -18 -17 -15 -14 -13 -12 -11 -11 -9 -8 -7 -8 -7 -6 -5 -4 -4 -4 -4 -3 -2 -1 -2 0 -0 2 3
-15 -14 -13 -13 -13 -14 -16 -17 -19 -20 -20 -20 -19 -20 -19 -18 -18 -16 -16 -14 -11 -10 -11 -9 -8 -8 -6 -6 -6 -6 -6 -5 -5 -5 -4 -3 -4 -1 -1 -1 -0 1 2
-14 -14 -14 -14 -15 -15 -16 -16 -19 -20 -20 -21 -21 -21 -20 -19 -18 -16 -15 -12 -9 -7 -7 -7 -7 -6 -6 -6 -6 -5 -6 -5 -5 -5 -4 -4 -2 -1 -1 -0 -1 1 2
-15 -15 -14 -15 -14 -15 -16 -18 -20 -20 -21 -20 -21 -21 -22 -19 -15 -11 -8 -7 -7 -8 -7 -7 -7 -6 -6 -6 -6 -6 -5 -5 -5 -4 -4 -4 -3 -1 -0 0 -0 1 1
-15 -15 -15 -15 -16 -17 -18 -20 -22 -22 -21 -20 -21 -21 -17 -11 -7 -7 -8 -8 -7 -8 -7 -7 -7 -7 -7 -6 -6 -6 -5 -5 -4 -4 -4 -4 -4 -2 -1 -0 -0 1 1
-14 -16 -16 -15 -16 -16 -18 -19 -20 -19 -18 -19 -20 -18 -12 -8 -7 -8 -10 -8 -8 -8 -9 -8 -7 -6 -6 -6 -6 -5 -5 -4 -3 -3 -3 -3 -3 -2 -1 -1 -0 0 0

GFSMW_850_dewp_126.txt.gz
Dewpoint
1 0 -5 -6 -3 -3 -7 -7 -9 -10 -4 -2 4 5 4 3 2 1 1 0 1 3 5 7 10 11 11 10 11 10 11 11 12 10 9 11 11 11 9 7 7 8 8
2 2 1 -4 -4 -6 -2 -7 -7 -11 -9 -4 0 4 3 3 1 -1 -3 -3 -1 2 6 7 7 10 11 11 11 11 11 12 12 11 11 11 11 10 7 5 6 7 10
4 4 4 3 -4 -5 -6 -4 -7 -11 -11 -6 -2 3 3 1 -1 -3 -4 -1 1 2 5 7 9 10 10 10 9 12 11 11 12 11 9 10 8 8 8 7 5 5 8
5 4 4 3 1 -0 -1 -6 -6 -7 -3 -3 3 4 2 0 -2 -3 5 -0 3 6 6 7 7 9 9 9 10 10 12 11 11 11 9 8 8 9 9 8 6 6 9
5 5 5 4 5 5 5 -0 -3 -2 6 5 5 4 2 0 -2 -3 -1 7 7 7 7 8 10 10 10 10 10 11 10 11 11 11 9 7 10 10 10 10 10 8 8
2 3 4 4 4 5 5 6 3 1 7 7 7 7 3 1 -1 8 9 8 10 11 11 11 11 11 11 11 11 11 11 11 11 11 10 9 9 9 10 8 8 8 9
2 2 2 1 2 3 4 6 7 7 8 8 7 6 4 5 9 9 10 9 9 9 10 9 10 10 10 11 11 11 11 11 11 10 9 8 8 9 8 7 8 6 8
2 2 1 0 2 2 2 4 7 7 8 8 8 8 8 9 9 9 10 10 10 10 10 9 10 11 11 10 10 10 11 11 10 9 9 8 7 6 6 5 8 9 9
-0 -1 -3 -1 -1 1 1 2 5 6 8 8 8 8 10 9 9 9 9 9 9 9 8 9 10 10 10 10 10 10 9 9 9 8 8 7 6 7 8 10 9 9 9
-3 -3 -3 -3 -3 -2 -2 1 3 6 7 7 8 8 9 8 9 9 9 9 9 9 9 9 9 9 9 9 10 10 9 9 9 9 9 9 9 9 8 7 7 8 8
-4 -3 -4 -6 -5 -5 -7 -3 -2 2 5 5 6 7 7 8 8 8 9 8 8 8 8 8 8 9 9 9 9 9 9 9 9 9 9 8 7 7 8 8 8 8 9
-10 -6 -7 -6 -7 -8 -9 -9 -9 -11 -10 -11 -5 -6 -1 -0 3 3 -5 -9 -8 -7 -7 -6 -3 -1 1 4 7 8 9 9 9 9 9 9 9 9 9 8 9 9 9
-7 -11 -8 -8 -11 -11 -12 -13 -13 -14 -14 -16 -16 -18 -19 -20 -21 -21 -21 -21 -22 -22 -22 -21 -21 -21 -20 -18 -16 -11 -4 0 3 6 7 8 8 8 8 8 9 9 9
-5 -9 -11 -12 -11 -12 -13 -13 -16 -17 -17 -18 -19 -21 -22 -23 -23 -24 -25 -25 -26 -26 -27 -27 -27 -27 -27 -26 -25 -24 -21 -19 -17 -16 -13 -11 -6 -2 1 4 6 7 7
-5 -6 -10 -10 -12 -14 -16 -16 -17 -18 -18 -20 -22 -23 -23 -24 -25 -26 -26 -25 -26 -26 -26 -26 -26 -26 -26 -26 -26 -26 -25 -24 -24 -23 -20 -18 -15 -12 -10 -7 -5 2 6
-4 -4 -11 -11 -12 -16 -17 -18 -18 -20 -21 -22 -23 -23 -24 -25 -25 -24 -25 -25 -24 -24 -24 -24 -25 -25 -23 -21 -18 -16 -16 -16 -16 -18 -21 -21 -18 -13 -12 -11 -8 -6 4
-3 -3 -8 -15 -16 -19 -18 -18 -19 -20 -21 -23 -23 -22 -22 -22 -22 -22 -21 -20 -21 -21 -20 -19 -18 -17 -15 -14 -13 -11 -9 -9 -10 -9 -10 -12 -15 -17 -13 -8 -4 -3 -3
-3 -3 -6 -15 -16 -18 -18 -18 -20 -21 -22 -22 -20 -19 -18 -19 -19 -20 -20 -19 -17 -15 -15 -14 -14 -14 -12 -12 -10 -8 -7 -5 -5 -6 -6 -4 -5 -4 -3 -2 -1 -1 -0
-2 -3 -7 -16 -16 -17 -17 -18 -19 -20 -20 -19 -18 -17 -17 -18 -18 -19 -20 -18 -18 -19 -20 -17 -15 -13 -12 -10 -9 -8 -7 -5 -5 -5 -4 -4 -3 -3 -3 -2 -2 -1 -1
-3 -5 -11 -16 -16 -16 -16 -16 -17 -17 -17 -18 -19 -19 -19 -19 -19 -19 -19 -18 -18 -18 -17 -14 -12 -9 -8 -7 -7 -5 -4 -4 -5 -4 -4 -4 -4 -4 -3 -3 -2 -1 -2
-5 -7 -16 -16 -16 -16 -15 -15 -16 -17 -17 -19 -19 -20 -19 -19 -19 -18 -18 -17 -16 -14 -13 -12 -11 -9 -7 -7 -6 -5 -5 -5 -5 -5 -5 -5 -5 -4 -4 -3 -2 -1 -1
-8 -14 -17 -16 -16 -15 -15 -14 -16 -17 -18 -19 -19 -18 -19 -20 -19 -18 -16 -14 -13 -13 -11 -11 -11 -8 -7 -6 -6 -5 -5 -5 -5 -5 -5 -4 -4 -4 -4 -3 -4 -1 -0
-10 -15 -16 -15 -15 -14 -14 -15 -17 -18 -19 -20 -19 -19 -20 -19 -18 -16 -15 -15 -12 -10 -9 -9 -10 -10 -8 -7 -6 -6 -6 -5 -5 -5 -5 -4 -4 -4 -4 -3 -2 -1 -0
-9 -14 -15 -15 -15 -15 -15 -16 -17 -18 -19 -18 -19 -21 -20 -19 -16 -16 -16 -16 -12 -9 -8 -7 -7 -7 -7 -6 -6 -6 -6 -5 -5 -5 -4 -4 -4 -4 -3 -3 -3 -1 -0
-8 -11 -14 -15 -15 -15 -15 -15 -17 -18 -18 -17 -19 -20 -20 -19 -19 -17 -15 -14 -10 -8 -7 -8 -8 -7 -7 -7 -7 -6 -6 -6 -5 -4 -3 -3 -3 -4 -3 -2 -1 -1 -1
-6 -10 -13 -14 -14 -14 -15 -17 -18 -18 -17 -18 -19 -19 -19 -18 -17 -17 -17 -11 -11 -9 -9 -8 -8 -7 -8 -7 -7 -6 -6 -5 -4 -4 -3 -3 -3 -3 -3 -2 -1 -0 -1

GFSMW_850_dewp_129.txt.gz
Dewpoint
1 2 2 2 1 -2 -2 -1 -3 -3 -2 1 -1 8 9 8 8 8 9 9 8 9 10 9 8 10 11 10 12 12 12 11 11 13 12 12 11 10 10 4 6 8 9
4 4 4 4 3 2 0 -0 -1 -1 -1 -1 0 0 8 8 8 8 7 4 2 4 2 4 8 9 11 10 12 12 11 12 11 12 11 12 12 11 8 10 10 6 5
4 5 5 5 4 3 1 0 -0 -0 -1 -2 -1 6 8 9 9 8 5 3 2 -1 -2 0 4 8 9 11 10 10 10 11 11 11 12 11 11 10 9 8 9 6 6
3 3 4 4 4 5 5 3 1 1 -0 -1 0 5 8 9 9 8 6 2 2 -1 -0 2 6 7 9 9 9 10 10 10 10 11 11 10 11 9 8 9 9 6 5
2 2 1 2 3 3 4 5 4 2 1 -0 3 6 7 8 8 8 3 -2 -5 -0 6 7 8 10 10 10 10 10 11 10 10 10 10 10 11 11 9 10 9 9 8
2 1 1 1 1 1 3 4 5 2 4 3 5 7 7 9 8 2 -1 -0 5 6 9 9 10 11 10 11 11 10 11 10 10 10 11 11 11 11 10 10 9 9 9
2 1 0 0 -0 -1 2 4 5 5 6 7 7 8 8 8 8 8 8 8 9 8 8 8 9 10 10 10 11 10 10 11 11 11 11 11 11 11 10 10 10 10 9
0 -1 -1 -1 -0 -1 0 3 4 6 6 7 7 8 6 8 9 8 7 10 9 9 9 9 10 10 10 11 11 11 11 11 11 11 10 10 11 10 10 9 9 9 8
-4 -3 -2 -1 -1 -3 -0 1 4 5 6 7 7 8 8 7 8 9 8 8 9 9 9 8 9 9 10 9 10 10 10 11 10 10 10 10 10 10 9 9 9 8 8
-4 -3 -3 -5 -2 -4 -2 1 3 4 6 6 7 7 8 8 8 8 8 8 7 9 9 9 9 9 9 9 9 10 10 9 9 9 9 9 9 8 8 8 8 8 8
-7 -5 -4 -5 -3 -4 -4 -3 -1 -1 3 5 5 6 7 7 7 7 8 8 9 8 7 8 7 7 8 9 9 9 8 9 9 9 9 9 9 9 9 9 8 8 9
-6 -7 -5 -7 -5 -6 -6 -6 -5 -8 -10 -1 -1 3 5 6 6 7 6 3 -2 -3 -9 -11 -12 -11 -12 -9 -4 3 7 8 8 8 8 9 9 9 9 9 8 9 9
-5 -6 -8 -7 -7 -7 -6 -5 -8 -12 -13 -8 -11 -12 -11 -15 -17 -17 -20 -21 -22 -24 -25 -25 -26 -26 -26 -25 -25 -24 -21 -19 -15 -9 -6 -4 -1 1 4 6 6 6 6
-5 -5 -10 -12 -14 -13 -12 -13 -14 -16 -18 -19 -21 -21 -22 -22 -21 -22 -24 -25 -26 -26 -26 -26 -26 -25 -25 -25 -26 -25 -26 -26 -26 -25 -25 -25 -24 -22 -21 -20 -18 -17 -12
-5 -4 -6 -9 -14 -16 -17 -18 -18 -18 -19 -19 -20 -21 -21 -22 -22 -24 -24 -24 -24 -25 -25 -25 -25 -25 -24 -24 -23 -21 -21 -20 -20 -19 -16 -17 -17 -21 -22 -19 -20 -17 -12
-4 -4 -5 -8 -8 -11 -16 -18 -19 -20 -20 -20 -21 -22 -22 -22 -22 -22 -22 -22 -23 -23 -24 -25 -25 -24 -21 -20 -16 -16 -16 -15 -14 -14 -15 -13 -13 -13 -13 -13 -10 -5 -3
-4 -4 -4 -7 -8 -13 -18 -17 -18 -18 -18 -19 -21 -22 -23 -23 -23 -22 -22 -22 -21 -20 -20 -18 -17 -14 -12 -13 -13 -11 -9 -8 -6 -6 -6 -7 -8 -7 -6 -6 -7 -7 -4
-3 -3 -4 -6 -15 -17 -19 -19 -20 -20 -21 -22 -23 -24 -24 -23 -22 -20 -18 -17 -17 -16 -15 -14 -12 -10 -7 -6 -6 -5 -5 -5 -5 -4 -4 -4 -4 -5 -4 -4 -5 -4 -3
-2 -3 -4 -6 -13 -16 -17 -18 -19 -20 -21 -21 -22 -22 -21 -19 -17 -16 -17 -17 -17 -17 -16 -13 -12 -11 -11 -10 -10 -9 -8 -7 -7 -6 -5 -5 -5 -5 -5 -4 -4 -4 -4
-2 -3 -4 -6 -15 -16 -18 -18 -18 -19 -19 -19 -20 -20 -19 -19 -18 -18 -18 -17 -17 -16 -16 -15 -15 -15 -12 -9 -9 -7 -6 -5 -5 -5 -4 -4 -5 -4 -4 -4 -4 -4 -3
-3 -3 -5 -8 -17 -16 -18 -18 -18 -19 -19 -20 -20 -20 -19 -19 -19 -19 -18 -17 -16 -16 -16 -14 -13 -11 -10 -10 -8 -5 -5 -5 -5 -5 -5 -5 -5 -4 -4 -4 -4 -4 -4
-4 -4 -7 -13 -18 -17 -17 -17 -17 -17 -18 -19 -19 -19 -19 -20 -18 -17 -16 -15 -12 -12 -13 -14 -13 -10 -9 -9 -8 -6 -5 -5 -5 -5 -5 -5 -5 -4 -4 -4 -4 -3 -3
-7 -7 -9 -15 -16 -16 -16 -16 -16 -16 -17 -18 -18 -16 -16 -14 -11 -11 -10 -10 -8 -9 -9 -10 -12 -13 -11 -11 -8 -7 -6 -6 -6 -5 -5 -5 -4 -4 -4 -4 -3 -4 -3
-6 -8 -10 -14 -15 -16 -16 -16 -16 -16 -17 -17 -16 -17 -17 -14 -13 -11 -9 -8 -7 -7 -8 -8 -9 -11 -12 -12 -12 -10 -8 -8 -7 -6 -5 -4 -4 -3 -4 -4 -3 -3 -3
-4 -6 -8 -11 -13 -15 -16 -16 -16 -16 -18 -18 -18 -18 -18 -18 -17 -15 -11 -11 -9 -9 -9 -9 -8 -7 -8 -8 -8 -7 -7 -6 -6 -6 -5 -5 -4 -3 -3 -3 -3 -3 -2
-4 -4 -6 -9 -12 -14 -15 -15 -15 -17 -19 -18 -17 -16 -17 -14 -12 -12 -11 -8 -9 -9 -9 -9 -8 -8 -8 -7 -8 -8 -7 -7 -7 -6 -6 -5 -5 -4 -3 -3 -3 -2 -2